GFSNE_sfc_wetblb_000.txt.gz
Wetbulb
42.39 42.32 42.12 41.78 40.58 39.96 39.68 38.82 36.26 34.86 35.67 41.75 43.06 47.15 46.47 46.71 46.32 46.54 46.90 45.24 44.12 45.36 44.13 45.39 45.22 44.58 44.56 45.20 46.33 47.64 49.13 49.31 48.62 50.07 50.87 50.83 51.08 53.43
39.74 39.58 40.36 41.31 41.54 41.14 40.10 39.52 39.21 37.13 34.07 38.99 40.70 42.85 44.18 43.56 44.95 44.69 44.84 44.45 43.33 43.55 44.28 43.41 43.85 44.12 44.01 44.19 44.56 44.97 46.42 48.22 47.86 47.50 48.68 49.86 50.86 51.44
40.00 40.06 39.48 40.37 39.75 39.84 40.27 39.95 38.89 38.58 35.59 37.97 40.44 41.96 42.15 42.56 43.14 44.14 44.10 44.33 44.64 42.21 42.43 42.30 42.02 42.20 42.53 42.72 43.21 43.94 44.49 45.70 46.98 47.09 46.95 47.57 49.19 51.16
38.65 38.89 38.12 37.91 38.03 38.61 38.42 37.93 37.97 38.80 36.99 35.39 38.55 39.38 40.35 41.99 42.54 42.33 42.25 42.87 43.67 42.60 42.37 42.00 41.67 41.14 41.13 41.02 41.46 42.54 42.96 43.22 43.71 44.85 44.64 45.13 46.30 47.74
38.11 37.10 36.76 36.85 36.34 36.89 36.98 36.55 36.87 36.86 37.11 35.73 35.54 38.40 39.20 40.31 40.00 40.96 41.16 41.99 41.97 41.66 40.71 40.77 41.08 41.55 41.23 41.04 41.39 42.16 42.79 42.43 42.20 42.59 42.61 42.36 42.91 43.85
36.33 36.13 35.74 35.27 34.92 34.92 34.86 34.72 34.86 34.83 35.02 34.47 34.49 35.11 36.48 38.12 38.38 37.05 36.99 39.48 39.38 40.57 40.22 38.67 39.16 40.51 40.79 40.69 40.73 41.54 42.26 42.42 42.29 42.08 41.74 41.05 40.56 41.54
35.39 35.38 35.44 34.86 32.74 32.54 32.43 32.93 33.33 33.35 33.82 33.86 33.60 34.44 34.62 34.96 34.88 36.71 35.69 36.95 38.27 39.57 39.19 40.34 40.83 41.10 41.42 39.37 39.87 40.91 40.89 42.28 42.46 42.38 41.98 41.72 40.75 40.92
33.98 34.64 34.57 33.64 33.20 32.22 31.49 30.92 31.40 31.08 31.42 31.14 30.65 30.27 32.14 32.74 34.34 33.01 33.10 31.75 30.19 39.27 37.36 36.86 39.45 38.69 40.64 41.73 39.70 39.50 40.23 41.23 41.29 41.33 40.69 40.13 39.10 39.07
32.93 32.88 32.23 32.51 32.12 32.53 31.76 31.47 30.76 30.21 28.86 29.56 27.98 29.14 29.36 31.59 32.21 31.56 31.86 31.50 31.08 35.38 35.99 34.23 37.66 36.59 39.22 39.86 38.41 38.89 39.32 39.66 40.27 40.56 39.70 38.96 38.01 37.77
31.97 31.98 31.44 31.58 32.17 30.47 29.74 28.86 29.56 30.94 31.82 31.43 30.78 30.75 31.98 32.44 33.18 33.34 33.15 32.91 33.56 34.20 35.50 30.88 35.48 35.22 37.68 38.33 38.12 38.49 39.05 38.79 38.98 38.90 38.39 37.92 37.10 36.30
30.49 31.22 30.26 29.04 29.36 29.63 29.08 28.77 29.07 29.98 32.13 32.33 31.97 31.87 31.91 32.14 32.45 32.45 31.00 29.96 29.97 30.82 34.56 32.40 33.73 34.07 35.84 36.93 39.47 37.31 37.49 37.44 37.63 38.52 38.38 37.47 36.61 36.41
28.50 29.07 29.02 29.71 29.35 28.93 29.17 29.19 27.50 28.44 30.18 31.52 32.22 32.62 32.50 32.64 31.47 32.60 32.73 29.14 29.37 28.96 32.89 31.10 31.15 31.80 30.16 37.77 38.27 39.47 39.91 36.15 36.29 37.38 38.30 38.02 37.14 39.92
26.70 28.41 30.35 28.94 27.50 27.10 26.87 27.57 26.83 28.52 27.34 28.04 28.67 30.01 31.28 32.71 33.64 34.51 34.47 33.02 30.43 29.45 33.39 33.07 32.36 31.40 31.48 31.97 35.62 37.40 37.61 38.76 39.07 39.15 37.03 37.01 35.84 36.35
27.04 28.92 30.29 26.08 26.07 25.29 25.45 25.47 25.04 25.89 27.48 27.89 28.40 27.96 29.12 30.83 32.63 34.00 34.43 34.27 35.26 33.26 34.92 34.17 32.46 32.05 31.31 31.12 30.90 35.54 37.55 38.58 37.46 36.18 38.34 38.25 34.73 34.01
29.09 27.09 24.91 24.80 24.80 25.23 24.44 24.19 24.87 28.13 27.23 26.88 27.34 28.29 30.24 32.33 33.43 33.64 34.18 34.38 34.46 34.59 34.34 34.55 33.37 32.89 32.06 31.25 31.87 33.65 33.67 36.47 36.64 36.35 36.95 37.81 38.23 39.21
26.25 28.47 25.46 24.47 25.41 25.66 25.96 25.75 26.49 26.58 25.68 25.87 26.71 28.65 30.84 31.75 32.27 33.22 31.83 32.80 31.59 31.83 34.95 34.92 33.45 33.27 31.14 31.60 32.01 32.42 34.39 33.17 36.16 36.38 35.86 37.13 37.75 37.96
25.04 25.08 23.48 22.75 23.89 24.12 23.93 24.48 25.64 25.98 25.45 26.27 26.91 27.42 28.65 30.53 31.81 32.73 32.09 32.13 30.92 30.71 31.30 32.71 34.57 34.29 33.80 33.05 30.96 33.17 33.40 33.88 35.85 36.24 34.73 34.58 36.24 37.69
22.88 20.80 20.10 20.35 21.96 22.58 22.71 22.87 24.06 23.81 24.39 25.45 26.60 26.76 27.13 28.47 29.91 31.32 30.20 30.80 30.36 31.09 31.06 32.76 32.82 31.86 32.32 32.49 33.37 31.30 32.09 33.48 35.04 35.87 35.69 32.05 33.38 37.58
19.71 19.16 18.89 19.46 20.93 21.38 21.43 21.63 21.70 23.30 24.67 24.39 25.40 25.67 26.24 27.42 29.74 30.12 30.64 29.91 29.32 30.05 31.54 32.61 31.86 30.65 28.40 27.02 30.59 27.22 30.91 32.26 34.25 34.26 34.66 31.94 31.81 35.00
18.10 17.95 17.83 19.13 19.74 20.10 20.32 20.34 21.51 22.89 23.15 23.35 24.24 25.16 25.46 25.99 26.95 27.81 29.32 29.42 30.65 31.51 31.64 30.65 30.55 30.56 29.59 29.35 30.74 28.55 27.28 29.00 31.50 31.37 32.61 33.06 30.66 25.28
16.69 17.49 18.55 18.57 19.09 20.08 20.55 20.69 22.11 22.29 22.86 23.45 23.55 23.97 24.78 25.42 25.53 26.14 27.17 27.18 28.14 29.38 28.51 28.23 27.98 26.33 30.56 32.06 28.80 27.80 27.39 27.16 28.48 30.06 31.94 30.31 29.11 29.36
16.71 17.23 17.97 18.61 18.96 19.42 20.40 21.23 21.79 21.90 21.83 22.29 23.16 23.96 24.39 25.33 24.89 24.96 25.35 25.69 25.87 26.54 26.12 27.43 28.79 28.83 28.64 27.12 28.22 25.97 26.45 27.15 26.57 26.20 26.32 26.20 27.76 27.67
16.84 17.29 18.14 18.51 18.87 19.11 19.35 20.31 20.90 21.32 21.30 21.14 22.24 23.51 25.13 24.12 24.84 25.34 25.35 25.49 24.98 25.31 25.48 26.03 27.32 28.30 26.72 26.32 26.66 26.52 23.95 25.04 27.54 27.24 26.24 25.26 25.88 25.77

GFSNE_sfc_wetblb_003.txt.gz
Wetbulb
42.60 42.39 41.73 42.30 41.78 41.23 40.65 39.97 36.69 33.74 36.17 41.36 41.73 46.89 47.28 47.98 47.67 47.45 47.31 45.10 44.56 44.96 45.05 45.35 45.51 44.61 44.39 44.84 45.57 46.61 47.38 49.21 49.70 49.23 50.09 51.47 52.23 52.00
41.77 41.41 40.36 40.71 40.99 40.92 40.53 40.73 39.92 36.84 33.68 39.40 40.22 43.20 44.88 44.50 46.81 47.13 46.40 45.30 44.01 43.08 43.35 44.54 44.68 44.93 45.05 44.91 45.33 46.03 46.16 47.18 48.86 48.48 47.98 48.31 49.51 50.89
41.01 40.76 40.35 40.81 39.94 39.68 40.64 40.07 39.17 38.98 35.93 38.51 40.62 42.93 43.41 43.98 44.11 45.98 45.92 45.67 45.39 41.70 41.45 41.85 42.63 43.10 43.03 42.87 43.03 44.01 45.19 46.09 46.88 48.01 47.83 47.49 47.70 48.72
38.77 38.85 38.61 39.26 39.25 39.16 38.92 38.01 38.19 38.72 36.80 35.38 38.49 39.88 41.35 43.29 44.08 44.20 43.19 43.46 44.19 43.31 42.07 41.73 41.97 41.22 40.88 41.01 41.54 42.02 42.64 43.94 44.28 44.72 45.90 46.15 46.27 46.89
37.74 37.44 36.95 36.87 36.24 37.32 37.27 37.16 37.11 37.29 37.55 36.28 35.86 38.96 40.04 41.16 40.97 42.37 42.60 43.75 42.78 43.17 42.04 41.46 41.64 41.58 41.27 40.81 41.32 41.63 42.31 42.71 42.57 42.17 42.56 42.93 43.43 43.97
37.33 37.02 36.60 36.07 35.57 35.30 35.19 35.40 35.50 35.07 35.17 34.97 35.10 35.82 37.24 38.71 39.43 38.27 38.49 41.14 40.80 41.10 40.91 39.33 40.81 41.23 40.75 40.67 40.91 41.21 41.52 42.00 42.27 42.07 41.61 40.78 40.57 41.78
36.35 36.39 37.07 36.72 34.44 34.10 33.23 32.89 32.48 32.29 32.74 32.94 33.42 34.60 35.76 36.35 35.77 38.13 37.28 38.82 40.04 41.21 40.57 41.48 42.38 42.08 41.41 40.13 41.02 41.06 40.83 41.51 41.86 42.16 42.86 41.59 40.99 41.05
32.48 34.10 35.15 35.35 35.18 34.35 33.65 33.43 32.33 29.75 29.23 30.62 31.41 31.55 32.89 34.16 35.63 35.37 34.85 33.72 32.00 39.56 37.43 37.91 40.64 39.56 41.11 42.20 40.30 38.94 39.34 39.41 40.07 40.41 41.40 41.03 40.09 38.95
31.64 32.50 32.62 33.69 33.59 33.29 32.67 32.52 31.94 31.66 29.64 29.47 27.42 28.46 29.37 32.00 33.16 32.45 32.72 32.71 32.46 35.37 35.95 34.56 38.59 37.50 40.08 39.30 38.99 38.68 38.31 39.36 39.91 40.45 40.35 39.90 38.94 38.16
30.85 31.24 31.42 31.54 32.59 31.72 30.72 30.51 30.51 30.59 31.03 31.16 30.87 30.89 32.06 32.88 32.83 32.68 32.33 32.79 33.99 35.06 36.17 31.40 37.30 36.69 38.35 39.21 38.21 38.10 38.21 38.01 38.56 38.96 39.19 38.89 37.99 37.63
29.05 29.76 30.30 29.72 30.13 30.15 28.80 28.05 28.46 29.49 32.12 32.76 32.61 32.45 32.28 32.33 32.75 32.60 30.82 30.17 29.76 30.90 34.74 33.07 34.10 34.46 36.39 37.14 38.55 37.45 37.24 37.25 37.94 38.53 38.45 38.42 37.85 36.76
28.43 28.78 29.37 29.64 29.66 29.69 29.50 28.63 27.39 28.45 29.41 30.48 31.57 32.22 33.74 33.69 31.99 32.01 31.26 28.43 29.09 29.03 33.54 31.90 32.27 32.92 31.05 36.56 37.01 37.79 38.45 36.47 36.50 37.07 37.58 38.27 38.35 38.40
26.38 27.38 29.78 27.37 27.01 27.44 27.28 27.19 26.63 27.98 27.29 27.80 28.36 29.40 30.65 31.45 33.30 34.71 33.87 31.96 29.80 29.92 33.74 32.91 32.07 32.07 32.26 31.96 35.44 37.40 38.14 38.30 38.81 38.47 36.61 37.11 38.32 38.02
25.81 28.00 28.94 26.06 25.88 25.79 25.62 25.96 25.68 25.63 26.99 27.07 27.81 28.12 29.12 29.82 31.43 33.31 34.40 35.35 35.01 33.58 34.59 34.19 31.67 31.76 31.45 31.27 30.96 35.34 36.52 37.70 38.21 38.31 39.14 38.38 37.20 36.52
27.59 26.15 27.11 25.95 25.74 26.14 27.20 25.18 25.33 27.19 28.19 26.85 27.13 28.46 30.41 32.20 33.03 33.41 34.42 34.92 34.94 34.82 34.39 34.42 33.42 33.20 33.05 31.25 30.98 32.82 33.21 36.17 38.13 36.86 38.23 36.72 35.75 36.48
24.76 26.01 26.15 25.42 25.92 27.12 27.41 27.56 28.37 27.95 26.66 26.89 27.54 28.65 30.44 31.31 32.33 33.22 32.53 32.58 32.20 32.57 34.50 34.94 34.55 33.63 32.02 32.06 32.18 31.68 33.47 32.14 36.25 36.00 36.33 35.16 36.78 36.86
23.55 24.82 23.33 22.37 23.16 25.36 25.36 25.65 26.63 26.56 26.19 26.36 27.15 27.40 28.41 29.45 30.37 33.20 31.97 32.11 31.07 30.63 31.69 33.65 34.27 34.08 33.63 32.23 30.67 32.04 32.56 32.84 35.51 35.69 35.42 34.83 36.43 36.35
22.98 20.74 20.20 20.45 21.77 22.91 22.78 23.45 24.54 24.26 24.56 25.37 26.56 27.21 26.91 27.76 28.88 31.89 32.14 30.98 29.95 30.99 31.65 32.78 32.55 31.07 30.76 31.81 32.83 30.87 31.83 32.41 34.03 34.93 33.89 33.75 33.65 36.88
19.92 19.56 19.15 20.06 20.81 21.32 21.45 21.63 22.00 23.83 24.94 25.22 25.59 25.47 26.56 26.83 28.19 29.11 30.52 31.30 30.51 30.95 31.65 33.05 32.48 30.88 27.59 26.06 29.55 28.17 30.77 31.97 33.18 33.51 34.34 34.24 32.47 33.65
19.21 18.97 18.94 19.17 19.86 20.34 20.63 21.04 22.62 23.86 24.07 24.66 25.00 25.60 25.92 26.51 27.09 26.98 28.08 27.92 28.57 30.24 30.97 31.81 31.33 30.10 29.09 28.27 29.00 26.61 27.68 28.14 29.43 30.21 31.41 33.62 31.17 27.57
17.78 18.21 19.42 19.35 19.50 20.31 21.12 22.16 23.33 23.00 23.48 23.98 24.56 25.15 25.64 26.43 26.28 26.62 26.35 27.36 27.72 28.11 27.38 27.36 28.14 27.44 30.03 31.47 29.00 27.78 26.75 27.16 27.12 27.78 29.44 31.02 29.52 29.28
17.85 18.11 18.89 19.58 19.71 19.85 20.62 21.70 22.68 22.70 22.14 22.13 23.36 25.24 26.37 26.38 25.43 25.79 26.10 25.64 25.91 26.61 26.56 28.31 29.10 28.84 28.82 27.13 27.56 26.49 27.54 27.79 26.71 26.22 26.42 26.02 25.61 25.70
17.96 18.26 19.02 19.23 19.48 19.54 19.39 20.03 20.78 21.43 21.41 21.34 21.83 23.78 25.15 24.96 25.84 25.89 26.00 26.14 25.46 25.38 25.83 26.01 27.63 28.21 26.66 25.85 25.65 26.73 24.46 25.63 27.09 27.66 26.23 25.92 26.02 25.96

GFSNE_sfc_wetblb_009.txt.gz
Wetbulb
38.05 38.45 40.27 40.09 39.17 39.74 39.32 38.73 35.49 30.63 30.75 32.58 33.78 38.67 42.07 43.32 43.85 45.38 45.94 45.87 44.14 43.44 44.68 45.44 47.29 46.03 45.24 45.10 45.47 46.12 47.03 48.07 49.43 50.50 50.73 50.97 51.71 52.27
38.18 37.83 36.76 38.34 39.80 39.62 38.64 37.72 36.84 34.75 30.91 33.04 34.75 36.85 38.42 40.96 43.42 43.43 44.49 44.83 43.67 42.63 43.20 43.18 43.48 44.35 44.32 44.60 44.79 44.50 44.19 44.50 45.65 46.93 49.10 49.74 48.84 48.56
36.43 36.03 34.76 35.57 36.08 37.13 37.71 36.43 35.44 34.77 31.37 32.55 32.92 33.98 34.02 35.09 37.38 40.96 42.58 41.81 42.06 42.77 41.92 41.85 41.67 42.14 42.58 43.01 43.08 42.83 42.63 43.01 43.22 43.67 44.42 46.66 49.14 48.78
30.84 30.63 30.91 33.09 30.98 32.21 33.59 33.22 32.63 32.83 32.30 28.67 29.40 30.82 31.81 33.67 34.16 34.72 38.57 39.88 41.20 42.65 42.36 41.63 41.54 41.19 40.92 41.00 41.09 41.14 41.10 40.99 41.69 42.35 43.21 44.22 45.28 47.14
29.88 29.07 28.86 28.98 28.07 29.70 30.76 30.22 29.95 32.25 28.45 27.40 26.24 29.41 29.73 31.92 32.37 33.04 35.50 36.38 39.09 41.86 41.36 41.13 41.25 41.44 41.12 40.78 40.93 40.65 40.71 40.74 40.56 40.88 41.44 41.94 42.81 43.48
29.26 28.78 28.54 28.13 27.73 28.17 29.50 29.77 30.47 27.85 26.81 25.60 25.49 26.43 27.65 30.65 30.53 29.00 29.91 31.59 32.20 37.23 38.42 38.36 39.61 40.55 41.12 40.70 40.28 40.58 40.55 40.97 40.93 40.68 40.15 39.40 39.37 40.89
27.09 27.64 27.55 28.90 31.37 31.87 30.73 29.33 28.26 26.36 25.13 24.87 23.73 24.32 24.41 25.99 26.34 28.31 26.75 28.03 29.66 32.08 31.61 32.18 33.30 35.08 36.62 38.73 40.32 40.54 39.99 40.19 40.55 40.87 40.98 40.10 39.19 39.77
24.12 24.73 25.66 28.05 28.87 30.13 31.57 31.49 30.90 27.70 25.15 23.16 23.09 21.98 22.59 23.91 25.39 24.19 24.45 24.07 24.33 30.41 28.52 27.65 30.80 30.43 33.36 34.91 38.31 38.98 38.35 38.22 38.14 38.88 39.97 40.58 40.15 39.25
23.25 23.93 24.56 26.85 27.06 27.52 29.30 30.14 29.42 30.39 29.21 27.75 25.92 24.35 23.74 24.88 24.95 23.29 23.39 23.64 23.91 27.66 27.65 24.06 24.37 27.32 30.47 35.61 37.73 38.10 37.60 37.51 37.66 37.74 37.60 37.93 38.35 37.96
24.75 24.96 24.40 24.94 26.41 27.15 26.05 25.89 26.13 26.82 27.35 28.06 27.62 26.94 26.82 27.36 27.10 27.62 27.08 28.20 26.80 27.60 28.46 23.93 23.31 23.87 25.87 28.80 35.99 37.85 37.89 37.42 37.27 37.06 37.23 37.11 36.98 37.58
25.74 25.56 25.12 24.33 26.83 28.85 26.74 25.74 25.72 26.29 29.61 30.92 31.87 31.41 31.54 32.49 32.19 30.45 26.89 25.67 22.76 24.27 26.39 23.66 22.18 22.42 23.57 25.67 28.73 35.40 36.79 37.17 37.31 37.27 37.13 37.02 37.15 36.83
23.74 24.49 25.81 26.07 28.67 28.40 25.32 23.17 22.42 23.32 25.82 25.36 25.01 26.13 27.93 28.11 29.65 29.69 28.35 26.52 24.90 19.38 24.79 25.30 24.43 23.23 20.89 23.12 26.08 27.82 27.54 33.75 36.00 36.81 37.42 37.42 37.02 34.81
21.89 22.54 24.30 25.64 27.00 27.36 27.11 24.94 23.49 25.35 25.79 24.19 23.80 23.72 25.37 26.29 27.30 28.29 28.61 28.29 26.30 25.82 27.39 27.78 22.93 22.51 23.48 23.69 22.39 24.94 24.43 27.30 29.27 31.91 36.12 37.15 37.29 36.67
21.69 22.37 23.50 27.07 26.14 26.30 26.27 27.26 27.04 26.10 22.55 22.85 23.10 23.50 24.37 25.87 28.39 30.25 30.27 29.93 30.74 28.78 30.58 29.64 28.12 26.64 26.14 24.65 22.56 24.01 23.17 24.86 24.91 25.57 26.57 33.36 35.89 36.73
22.54 23.78 25.51 24.83 25.02 25.24 26.91 26.77 25.83 25.95 24.23 23.74 23.84 25.16 26.12 27.42 29.08 29.16 29.64 30.89 30.74 30.69 31.90 31.39 31.26 30.32 29.24 26.12 23.71 24.19 24.19 24.96 22.77 25.27 30.55 31.44 28.36 25.83
22.01 22.56 22.70 23.26 22.92 24.57 23.58 24.32 24.79 23.83 23.66 22.63 22.71 25.07 27.03 27.09 27.23 28.69 27.76 28.83 29.37 28.20 30.73 31.88 32.03 31.73 29.47 29.24 28.23 26.59 26.49 26.00 26.02 28.99 32.44 32.20 31.58 28.57
21.16 20.08 19.74 19.54 19.67 20.91 21.15 21.61 22.15 23.04 21.97 22.31 22.59 23.44 24.17 25.22 25.68 27.15 27.87 29.11 23.90 23.41 24.33 26.61 30.51 30.99 30.70 29.26 26.86 27.56 27.60 24.63 25.18 24.65 28.61 26.08 32.18 32.62
18.99 17.29 17.32 16.74 16.97 18.27 18.15 19.19 20.39 21.76 21.95 22.06 22.40 22.63 23.22 23.52 24.42 25.84 25.76 23.34 22.18 25.57 21.91 24.10 24.07 27.83 29.00 28.95 31.58 28.87 24.67 24.69 24.28 28.59 25.68 29.48 28.59 28.19
16.76 16.33 15.06 14.73 16.25 17.39 17.42 18.06 18.09 21.56 21.59 20.67 21.41 21.17 22.38 23.15 23.85 22.68 20.06 21.03 21.59 25.67 27.61 26.89 28.29 27.94 25.65 22.36 25.72 29.55 28.15 26.53 26.09 20.72 21.38 23.44 28.44 29.82
16.36 15.31 14.76 14.75 16.41 16.81 16.84 17.41 17.96 19.50 19.04 19.23 19.36 19.59 21.32 22.07 18.83 21.06 20.67 16.60 22.52 24.37 23.66 23.07 21.76 20.79 19.23 19.29 19.32 15.72 28.32 22.48 23.19 21.22 20.19 24.79 26.11 29.31
13.04 15.45 15.93 16.09 15.72 15.94 14.47 14.89 16.22 16.19 15.22 15.99 17.13 18.05 18.29 21.40 20.79 18.41 18.61 18.10 17.70 22.79 21.19 20.78 21.23 21.84 22.22 21.25 21.12 17.09 17.48 27.01 22.40 18.09 20.14 19.50 21.61 26.55
6.28 12.14 15.55 16.28 14.04 14.46 13.67 13.24 14.06 13.33 12.99 13.23 13.51 14.94 17.07 19.61 19.33 19.75 19.70 19.45 16.47 15.36 18.26 20.31 24.70 25.48 20.35 21.40 19.16 16.95 15.38 13.57 21.76 26.30 26.35 24.04 18.33 18.43
2.88 6.62 8.27 11.85 12.89 12.75 15.06 13.25 11.16 8.48 10.20 10.67 11.22 12.08 13.02 15.31 17.52 20.02 16.70 17.47 19.87 15.30 15.59 20.30 22.30 23.16 22.05 20.73 18.47 20.08 12.36 11.59 18.28 16.90 17.00 25.34 26.50 26.53

GFSNE_sfc_wetblb_012.txt.gz
Wetbulb
35.29 35.81 36.72 37.63 38.88 38.43 37.82 35.99 32.52 28.27 30.52 34.83 32.37 36.36 37.28 38.22 41.19 41.77 41.90 43.76 43.43 42.83 44.11 44.19 46.49 45.85 45.49 46.41 46.41 46.73 47.45 48.10 48.99 50.02 50.50 50.36 50.73 51.37
35.90 33.96 32.84 33.16 34.25 35.17 36.94 36.96 35.21 32.72 29.05 32.01 32.04 33.50 34.25 36.05 38.41 39.60 41.50 42.58 42.32 41.97 42.22 43.61 43.28 45.68 44.52 44.45 44.62 45.00 44.73 44.37 44.74 45.43 46.67 48.76 49.32 48.46
30.19 29.99 29.92 30.06 29.08 29.53 30.38 31.35 32.43 33.77 30.75 31.67 32.77 31.78 31.04 31.64 33.11 34.54 37.15 41.67 42.43 41.13 41.43 42.70 42.38 42.49 43.29 43.19 43.02 43.09 42.77 42.72 42.71 42.76 43.26 44.15 45.61 48.46
28.88 28.43 28.17 29.99 27.14 27.46 27.83 27.99 28.74 30.04 29.18 26.39 28.08 29.35 29.28 30.90 31.58 30.74 34.64 37.49 39.34 40.51 40.76 41.81 42.49 42.20 41.15 41.30 41.40 41.80 41.39 40.85 41.20 41.96 42.26 42.16 42.58 43.64
27.52 27.23 26.89 26.78 25.64 25.95 26.32 27.08 27.65 30.01 28.93 26.69 26.01 27.81 28.43 29.58 29.96 31.05 31.40 32.18 36.00 39.43 39.32 39.03 41.20 41.91 41.49 40.91 41.12 41.10 41.01 40.65 40.06 40.40 40.66 41.23 42.09 42.26
27.70 27.13 26.23 25.42 24.49 24.88 26.07 26.38 27.79 26.78 26.94 25.33 24.90 25.42 25.77 28.05 29.01 28.16 26.48 28.41 28.91 33.83 37.12 36.62 37.93 39.87 40.50 40.56 40.30 40.60 40.80 41.13 40.72 40.27 39.60 38.81 39.00 40.41
26.24 26.35 25.69 26.56 28.68 27.80 27.78 26.32 28.48 26.95 26.48 25.37 24.86 23.87 23.54 23.44 24.08 26.50 24.88 25.09 26.01 30.02 30.68 30.37 31.86 32.96 35.45 36.78 39.10 40.44 40.21 40.42 40.38 40.58 40.31 39.79 38.82 39.17
23.82 24.82 24.67 26.46 26.59 28.08 28.55 29.31 29.00 27.57 26.46 26.59 25.20 23.38 22.09 22.60 23.89 23.36 22.83 21.82 22.03 27.54 27.40 26.89 29.65 30.00 31.72 34.45 37.99 38.34 38.82 38.70 38.67 39.09 39.63 39.70 39.68 38.83
23.67 23.58 24.22 25.93 26.16 25.66 27.16 28.35 28.06 29.06 27.80 27.60 26.08 24.11 23.12 23.89 24.15 22.87 22.10 22.41 22.54 26.55 26.28 24.07 25.14 26.60 29.00 33.16 36.05 38.00 37.60 37.54 37.59 37.57 37.42 37.47 37.78 37.66
24.38 24.12 23.45 23.74 24.86 25.23 25.53 26.82 26.49 26.89 26.78 26.87 25.65 26.05 26.09 26.11 25.80 26.07 25.10 24.76 27.08 27.65 27.61 21.29 21.99 22.51 24.92 26.58 34.13 37.46 37.80 37.60 37.28 37.24 37.25 36.76 36.46 36.39
24.16 24.21 24.45 24.19 26.20 28.07 25.79 24.54 24.10 25.03 27.67 29.67 30.52 30.29 30.81 31.36 30.54 28.89 26.70 25.70 23.97 24.57 25.59 23.04 22.60 21.00 22.02 23.48 26.76 34.35 36.10 36.62 37.18 37.40 37.26 36.96 36.70 36.14
22.21 23.33 24.60 24.41 26.31 27.80 26.47 24.87 22.33 22.79 23.43 23.87 24.50 25.59 26.40 26.24 27.94 26.91 24.77 23.19 23.06 19.79 24.02 23.33 23.28 22.03 17.99 21.53 23.76 24.62 24.67 33.40 35.76 36.82 37.56 37.49 37.19 33.10
20.76 21.42 22.80 25.58 26.21 26.47 27.30 25.32 24.61 26.51 25.28 25.44 23.35 22.95 23.62 24.61 25.53 26.10 26.35 25.38 23.50 23.30 25.75 25.63 21.86 21.21 21.72 21.64 21.06 23.23 23.50 23.76 25.08 28.51 35.29 36.74 37.28 36.05
20.40 22.10 23.51 25.15 25.96 26.14 25.86 26.72 26.67 25.85 25.33 23.01 22.70 22.81 23.50 24.75 27.17 28.67 29.03 29.10 27.88 27.12 28.67 28.48 23.82 24.74 22.19 18.95 21.25 22.29 21.58 21.31 21.17 22.54 23.60 29.81 33.57 35.17
21.96 23.35 23.36 23.86 24.28 24.61 24.85 25.38 24.61 23.44 22.85 21.99 22.61 23.82 25.58 27.39 29.03 29.08 29.87 30.47 30.82 29.73 30.24 28.91 28.00 26.72 25.77 24.14 20.83 22.63 21.76 21.98 19.25 21.65 28.66 24.42 25.15 25.29
21.21 21.58 21.19 22.22 21.63 22.33 22.33 23.21 22.81 22.83 22.17 21.62 22.29 24.17 26.02 26.28 26.38 27.95 26.43 26.59 28.61 28.78 29.87 30.36 30.46 30.76 28.87 28.29 27.84 25.41 23.98 23.73 23.35 28.59 24.01 28.22 31.55 31.66
15.26 17.68 18.37 17.53 17.57 18.20 18.71 19.93 20.77 22.09 21.18 21.89 21.97 22.53 23.91 25.06 25.51 26.60 27.36 27.19 24.68 23.39 25.22 25.12 28.38 30.63 30.97 30.39 27.65 26.50 24.85 23.74 22.89 23.64 27.31 27.95 24.20 27.59
14.21 13.67 13.86 14.39 14.76 16.49 15.75 16.48 18.23 20.19 20.40 20.57 20.36 21.04 21.76 22.79 23.93 24.41 24.16 20.89 22.59 24.55 26.25 27.55 27.76 28.65 28.98 29.00 31.40 27.08 26.32 27.38 22.05 24.01 26.99 26.95 27.45 24.88
9.02 9.92 9.83 13.24 14.41 16.05 15.46 16.05 15.58 17.38 19.14 18.62 18.54 18.94 19.66 21.79 22.02 20.08 18.51 17.82 20.11 23.24 21.43 20.68 25.56 27.70 24.60 22.68 22.93 28.32 23.65 24.67 22.70 18.98 20.60 28.36 27.39 29.44
9.72 8.01 11.75 14.05 14.40 15.23 14.76 14.34 14.89 14.11 13.46 15.20 15.83 16.45 16.84 19.59 18.78 19.50 18.96 15.72 19.43 22.40 21.69 20.75 19.63 21.82 19.74 16.63 17.86 14.93 26.88 25.13 25.97 21.87 21.52 23.90 27.21 29.18
8.45 9.58 7.34 14.10 13.25 13.66 11.92 11.64 9.10 10.36 10.18 10.48 12.68 13.88 14.68 17.18 17.28 19.07 17.79 13.87 13.86 19.27 17.59 17.54 18.91 21.28 21.07 21.29 15.83 12.61 14.72 25.70 21.59 14.82 16.00 13.74 15.89 20.41
3.33 7.57 7.97 9.31 7.49 9.94 9.65 8.59 8.73 6.95 8.00 8.89 9.22 9.97 11.55 14.76 15.96 17.08 16.35 16.61 14.62 11.64 15.31 18.09 22.16 24.09 18.41 20.36 16.24 12.53 14.58 12.03 20.15 25.74 26.07 22.82 16.27 15.42
1.15 4.69 2.40 0.88 3.54 5.47 11.58 8.23 7.29 2.09 6.78 7.62 8.01 8.86 8.95 10.49 14.33 14.77 14.00 12.93 13.74 12.84 14.66 18.07 19.06 20.45 21.38 20.12 16.32 18.64 12.04 10.37 19.68 16.75 13.94 24.67 26.50 26.45

GFSNE_sfc_wetblb_015.txt.gz
Wetbulb
33.02 33.21 33.08 33.22 32.18 33.10 33.12 34.54 32.86 26.34 26.05 29.92 31.00 35.05 35.92 35.89 36.14 35.93 39.48 42.18 41.98 41.25 40.87 41.71 43.71 46.60 46.72 45.60 47.54 49.88 50.69 51.05 51.78 51.80 51.57 51.33 50.78 51.11
33.13 29.48 28.81 29.51 29.51 29.37 29.22 29.91 30.81 31.10 26.66 30.81 30.72 32.80 33.95 35.07 36.22 33.57 34.25 39.74 41.65 40.13 40.10 40.30 42.25 43.74 45.94 45.52 44.76 45.91 47.22 47.74 47.80 48.56 49.67 50.18 49.81 48.92
28.54 28.52 28.26 28.47 27.12 26.84 27.25 27.36 27.48 27.95 26.09 28.03 31.23 31.86 31.39 31.27 31.94 32.43 33.70 33.62 37.85 40.27 39.80 39.72 39.53 41.20 42.82 44.72 43.60 43.41 43.59 44.97 45.11 45.29 45.36 46.13 48.13 49.49
27.55 27.11 26.98 28.92 25.72 25.41 25.41 24.95 25.42 26.64 26.38 24.39 26.97 27.78 28.29 30.56 30.27 29.42 33.34 35.30 32.78 38.65 39.88 38.53 39.06 39.41 40.99 41.64 41.97 41.98 41.90 41.53 41.87 43.01 43.90 43.84 43.96 44.77
27.08 26.54 26.39 25.72 24.04 23.55 23.86 24.06 24.93 27.18 26.30 25.53 25.54 26.63 26.78 27.46 27.25 29.01 30.07 29.66 32.37 35.37 37.63 39.34 39.27 39.40 39.97 41.22 41.67 41.62 41.29 40.67 40.23 40.34 40.64 40.86 41.82 42.48
27.29 26.78 25.95 25.25 23.44 23.15 23.88 23.83 26.59 26.42 27.03 27.20 25.88 25.37 26.49 26.53 26.17 25.55 25.24 26.80 26.08 30.55 33.81 35.23 37.80 38.24 39.50 40.96 40.88 41.03 41.25 41.02 40.71 40.11 39.37 38.55 38.58 39.88
26.54 26.42 26.18 26.79 29.07 27.22 25.42 24.40 23.88 24.17 26.57 26.10 26.02 26.41 25.59 23.15 22.88 24.44 23.91 23.72 24.44 25.90 29.05 30.80 32.01 33.47 35.53 36.79 38.20 40.67 40.60 40.79 40.54 40.61 40.36 39.36 38.44 38.87
24.83 25.20 25.03 26.38 26.17 27.25 27.45 27.75 26.88 24.89 24.33 24.69 24.06 25.02 24.92 22.83 22.97 23.00 22.53 21.19 20.30 26.04 25.77 25.37 30.23 29.22 30.83 33.42 36.75 38.34 39.32 39.99 40.01 40.03 39.79 39.56 39.16 38.50
23.93 23.48 23.73 25.08 25.21 24.66 25.99 26.95 27.10 27.93 27.16 25.73 24.06 23.90 24.96 25.47 23.79 22.72 21.73 21.71 21.47 24.32 25.16 22.77 23.83 26.85 29.71 31.62 34.47 36.77 37.98 38.14 38.36 38.33 38.28 37.87 37.46 37.23
22.66 22.61 22.58 22.99 24.65 25.06 25.60 25.10 25.54 25.82 26.38 27.04 26.63 25.40 25.48 26.34 25.66 25.36 24.28 23.85 24.47 25.77 26.26 24.19 19.79 22.56 23.56 26.75 32.91 35.53 37.12 37.32 37.32 37.28 37.24 36.94 36.35 36.06
22.95 22.68 23.45 23.27 25.04 27.91 26.02 25.02 25.03 25.28 27.40 27.92 27.94 28.93 29.73 30.40 30.35 26.86 25.59 24.76 23.16 24.60 24.56 22.61 21.24 20.90 21.11 22.15 26.97 33.69 35.45 36.26 36.76 37.01 37.15 36.93 36.38 35.80
21.71 22.34 23.83 24.35 26.23 26.57 25.59 24.05 22.12 23.43 24.46 24.15 23.70 25.37 26.26 25.72 27.18 25.75 22.84 22.07 22.19 18.33 23.49 23.01 23.21 21.17 16.91 19.66 21.49 23.23 24.68 32.62 34.89 35.84 36.83 37.07 37.02 31.81
20.92 20.75 22.70 25.00 26.03 26.30 26.04 25.36 24.55 26.08 25.94 25.48 25.09 23.56 23.59 24.01 24.73 25.35 25.11 23.62 21.93 21.55 24.48 24.62 21.48 20.19 19.98 19.97 20.20 22.00 22.65 22.16 23.52 26.15 33.26 36.19 36.90 34.87
20.15 21.35 22.30 24.17 24.98 24.69 24.67 25.87 25.36 24.53 23.56 23.20 23.52 23.64 24.14 24.83 26.80 27.83 28.19 27.83 26.83 25.51 26.19 26.46 21.78 22.91 21.09 18.74 19.48 22.06 20.34 19.96 20.40 20.88 21.88 28.18 33.03 34.91
19.82 22.05 22.67 22.64 22.44 22.36 23.25 24.02 22.92 22.13 21.57 20.17 21.36 22.69 24.66 26.64 28.44 28.52 29.06 29.62 30.04 29.93 29.12 28.20 27.15 25.33 23.21 22.71 20.60 18.31 20.27 21.12 17.44 20.51 28.26 25.17 27.48 27.35
17.69 17.31 18.43 20.59 18.63 19.14 19.24 20.60 20.90 21.68 21.18 20.82 21.16 23.27 25.11 25.77 26.00 27.55 26.80 27.20 26.73 28.59 30.20 30.24 28.63 27.86 27.32 27.49 27.15 23.15 22.46 24.47 21.75 25.96 24.64 19.54 22.90 25.52
10.33 9.89 13.17 14.97 15.00 16.79 16.49 17.16 18.19 19.25 18.63 19.56 19.72 20.24 22.21 23.94 25.04 26.59 26.97 27.01 23.39 23.14 24.49 28.69 30.41 30.82 30.54 29.83 27.22 27.69 21.67 24.31 24.36 22.38 23.94 22.23 21.43 23.86
11.35 5.06 2.92 7.01 12.39 15.08 14.21 14.17 15.06 15.16 16.42 17.78 17.78 18.64 19.02 21.10 22.79 24.18 24.32 22.62 23.05 23.98 24.59 26.18 28.17 28.17 28.42 28.68 32.07 28.61 26.40 27.58 27.93 27.79 26.87 26.00 22.70 23.20
5.85 3.42 -0.87 2.75 9.04 14.41 13.95 13.97 12.78 12.60 13.99 14.99 15.33 15.52 16.77 19.01 20.30 20.78 20.88 21.19 21.94 22.93 21.18 21.95 25.56 27.67 25.28 23.02 25.77 28.36 25.80 25.83 26.93 21.24 25.62 27.23 25.03 29.00
7.83 4.34 2.57 4.57 7.09 12.92 13.76 12.37 11.67 9.86 9.25 9.86 12.37 12.76 13.30 15.84 17.38 18.61 19.37 16.13 17.49 20.13 20.26 19.75 18.31 21.31 18.43 15.33 16.05 18.24 26.69 24.20 26.26 25.29 20.48 21.03 22.61 29.01
7.22 7.98 2.68 6.20 5.98 7.35 4.74 8.07 5.41 6.10 4.17 4.35 7.83 10.60 11.21 13.12 14.99 16.86 16.21 15.89 15.26 17.88 16.98 16.05 17.13 20.09 19.60 17.15 12.74 10.11 11.76 24.67 20.57 14.46 15.88 13.36 14.64 23.13
3.68 7.21 7.85 6.07 2.00 1.98 -2.14 -1.41 5.70 5.42 6.65 6.46 4.49 4.78 6.55 10.10 12.84 14.09 14.83 10.14 11.97 10.60 14.05 17.13 20.09 22.52 17.47 18.64 13.56 5.83 14.98 14.65 21.19 24.87 25.39 22.22 15.65 13.57
3.31 5.40 3.12 -0.94 0.02 -0.73 4.07 -1.05 -0.33 -0.90 5.77 5.58 5.54 6.11 4.45 5.81 10.53 10.10 10.15 11.15 12.51 11.87 13.24 15.69 17.88 18.39 19.59 18.87 14.15 15.86 14.06 11.94 20.93 16.40 13.10 24.02 26.28 26.65

GFSNE_sfc_wetblb_018.txt.gz
Wetbulb
33.64 32.54 32.65 32.31 30.07 30.80 29.95 30.30 28.59 22.74 23.67 28.21 31.06 35.54 36.42 37.49 37.58 37.43 35.70 37.89 41.53 41.25 40.92 41.47 42.10 43.77 45.25 46.14 46.43 48.19 51.92 53.69 54.36 55.16 55.39 55.45 54.58 53.89
33.02 30.00 28.44 28.72 28.74 28.92 28.23 28.30 28.13 25.66 22.18 27.74 29.24 32.39 34.75 36.26 36.98 37.29 35.19 38.08 37.52 40.90 39.94 40.31 40.45 40.93 41.26 42.32 46.02 44.89 45.67 50.54 52.28 52.64 52.42 52.50 51.76 51.52
28.83 28.46 28.10 28.07 27.26 27.14 27.07 26.31 25.47 25.77 22.46 24.97 28.28 30.72 30.94 32.01 33.92 34.26 34.56 35.70 35.65 37.87 40.25 39.50 39.23 39.63 39.70 39.99 43.08 44.44 43.55 43.48 47.72 50.13 50.95 51.24 50.60 50.43
27.71 27.38 27.17 28.70 26.20 25.61 25.20 24.22 24.12 24.64 23.74 22.23 25.84 27.21 28.34 30.83 30.77 30.79 32.66 34.93 33.20 35.49 37.36 39.37 38.43 38.91 39.40 39.14 40.00 42.13 42.57 42.07 41.50 44.68 46.15 48.62 50.00 50.21
27.10 26.58 26.36 26.39 24.83 24.52 23.87 23.39 24.07 25.33 25.14 25.45 25.20 27.62 28.27 29.14 29.30 29.31 29.97 31.28 32.08 33.89 34.63 36.57 38.72 39.21 39.18 39.40 39.38 41.79 41.73 42.00 40.71 40.98 41.83 42.28 43.85 45.38
27.40 26.85 26.49 25.88 24.88 24.23 24.37 24.51 24.42 24.06 24.33 23.51 24.53 26.98 27.45 28.73 27.83 27.36 27.03 28.52 28.12 30.59 31.63 34.57 35.94 38.61 38.42 39.14 39.88 41.02 41.57 41.58 41.36 40.08 39.34 38.79 39.34 41.26
26.84 27.05 26.88 27.40 29.13 27.56 25.58 24.64 24.94 24.50 24.37 24.01 23.58 24.85 25.41 26.40 26.29 27.08 26.30 26.23 26.72 27.62 28.54 31.21 32.06 34.39 36.14 38.34 38.50 39.38 40.81 40.84 40.66 40.66 40.20 38.94 38.50 39.50
24.17 24.11 24.38 25.30 25.48 26.63 26.56 27.06 26.63 24.86 24.06 23.55 23.14 22.33 23.12 25.87 26.32 25.43 25.09 23.28 22.50 27.60 27.58 26.95 30.10 31.00 32.45 33.71 36.08 38.03 39.48 40.09 40.01 40.22 40.31 39.80 39.24 38.59
22.27 21.99 22.41 24.21 24.30 24.16 25.64 26.62 26.85 27.55 26.88 26.38 23.60 24.06 24.05 25.90 26.80 25.53 25.20 23.53 23.44 26.45 26.88 25.92 27.60 28.61 30.73 32.09 33.62 36.24 38.57 39.18 39.55 39.82 39.45 38.85 38.34 37.57
22.59 22.29 22.00 22.31 23.93 24.50 25.50 25.43 25.17 26.04 26.69 26.44 25.93 25.92 27.03 27.83 26.92 26.60 26.15 25.63 25.49 26.41 27.89 24.09 26.17 27.14 28.91 30.03 32.80 34.96 37.13 38.09 38.44 38.27 37.98 37.52 36.83 36.69
22.87 22.95 23.19 22.72 24.85 27.46 25.69 24.70 24.26 25.40 27.47 28.20 28.47 28.51 28.37 28.62 28.86 27.81 24.54 24.60 23.31 24.32 27.52 26.55 25.68 25.44 26.47 28.46 30.98 33.52 35.36 36.38 37.36 37.33 37.27 37.09 36.45 35.85
22.37 22.70 23.24 23.64 25.58 26.13 24.87 23.11 22.33 23.20 24.64 26.06 26.57 26.59 27.05 26.44 26.84 25.86 25.03 23.23 23.19 21.78 26.41 25.52 24.98 25.07 23.26 25.69 26.74 28.45 29.89 33.16 35.23 36.11 36.85 37.21 37.00 36.31
21.18 20.59 22.19 24.13 24.76 25.09 25.15 23.63 23.87 24.37 24.07 24.26 24.84 25.54 25.89 25.62 25.51 25.68 25.69 24.28 22.65 22.27 25.80 26.53 24.35 23.63 24.30 24.88 26.51 27.67 28.79 30.22 31.39 32.78 34.93 36.19 36.69 36.16
18.74 19.93 20.79 23.45 23.16 23.13 22.93 24.22 24.07 22.83 22.06 21.95 21.91 23.04 23.97 25.03 27.01 28.50 27.69 26.58 26.56 25.53 27.40 27.94 25.24 25.16 24.62 23.31 24.16 27.09 27.59 27.84 28.61 29.90 29.97 30.23 33.65 35.79
18.55 20.35 21.60 21.39 20.97 21.06 21.53 21.93 21.04 20.57 20.53 19.97 20.21 21.69 23.79 25.50 27.06 27.90 29.21 29.83 29.53 29.42 29.23 29.52 27.61 26.77 26.24 24.98 25.15 25.03 26.95 28.43 26.18 28.32 28.79 29.79 31.18 31.32
16.00 15.03 15.59 18.81 15.20 17.37 18.62 18.69 18.09 18.75 18.79 18.60 19.20 20.77 23.27 24.96 26.05 27.95 27.16 27.86 26.83 27.74 31.07 31.00 29.27 28.69 26.93 27.27 27.10 25.91 26.58 27.60 27.74 27.81 27.53 28.07 30.25 31.78
8.69 7.98 10.24 11.42 13.68 15.72 15.87 16.28 16.35 15.56 15.64 17.04 17.73 18.36 19.77 21.71 23.96 26.03 26.21 26.84 25.81 25.47 27.15 29.34 30.16 30.28 30.12 29.31 27.25 28.16 28.23 27.50 28.19 28.21 27.89 28.25 29.73 30.78
10.83 4.13 -0.92 -1.46 5.56 13.27 13.72 13.54 14.18 12.20 12.45 15.04 15.78 16.47 16.89 18.43 20.71 23.17 23.95 23.76 23.63 24.12 24.86 25.68 28.58 28.13 28.90 29.78 31.90 29.03 28.66 28.34 29.64 29.51 28.46 28.02 27.61 29.40
6.44 3.51 -3.09 -3.64 1.44 11.08 12.74 13.03 11.99 11.45 11.90 11.14 13.39 13.88 15.15 16.75 18.74 19.81 20.75 20.48 20.96 22.65 23.28 24.71 25.98 27.80 25.32 23.72 26.31 28.90 27.94 27.74 28.22 27.44 28.91 27.99 27.36 30.03
8.48 5.09 2.32 2.16 6.85 10.05 10.86 10.75 11.14 9.33 8.28 8.54 9.43 10.89 12.15 14.36 15.80 16.80 17.38 17.45 18.24 20.02 20.79 22.63 22.69 22.85 23.33 22.87 23.74 24.73 26.78 25.77 27.08 26.85 25.62 26.78 27.74 28.07
8.00 9.12 4.87 6.74 7.87 8.10 1.23 -0.01 -1.11 5.91 6.58 4.23 5.92 7.27 7.85 11.14 13.71 14.41 14.44 11.60 13.37 17.30 16.79 18.14 20.53 21.74 22.78 23.06 20.84 21.26 21.96 24.05 24.02 24.29 23.14 22.89 23.15 24.91
6.63 8.64 9.43 8.43 5.04 4.54 -1.46 -5.27 -0.38 -0.43 5.49 7.43 6.47 4.82 5.55 7.09 10.58 11.63 12.01 12.35 13.85 14.24 15.20 18.30 21.37 22.76 22.45 22.07 20.24 17.92 20.63 21.65 23.37 24.84 25.14 24.21 23.78 21.91
6.67 7.67 6.94 3.23 2.66 1.84 5.62 1.40 0.67 -3.09 1.05 5.29 7.02 7.91 5.72 6.34 9.19 9.55 9.43 11.88 13.27 12.99 13.53 15.41 17.61 19.65 21.07 20.65 18.92 19.84 20.55 19.42 22.66 22.56 23.22 24.54 26.61 26.61

GFSNE_sfc_wetblb_021.txt.gz
Wetbulb
40.02 39.66 38.76 38.53 37.83 36.71 35.83 34.26 31.04 26.59 28.23 32.51 32.91 36.91 37.14 37.78 38.49 39.89 40.71 40.50 39.26 39.54 42.03 41.21 41.17 41.50 42.50 43.32 45.03 46.62 47.36 50.08 53.66 55.07 55.94 56.50 57.14 57.81
38.80 38.51 37.12 36.60 35.87 35.85 35.05 34.19 32.75 29.69 26.75 31.05 31.73 33.36 34.55 34.95 36.65 37.87 38.46 39.78 38.63 38.48 39.90 40.66 40.10 40.00 40.76 41.82 42.29 45.58 45.37 45.82 49.51 53.28 54.33 55.08 56.23 55.95
37.36 35.90 34.96 35.30 34.33 34.35 33.87 32.69 31.12 30.27 26.48 29.39 31.30 32.44 32.29 32.90 34.28 35.97 37.02 38.85 39.73 37.61 38.24 38.62 39.85 39.35 39.60 40.21 40.80 42.26 43.97 44.35 44.46 48.60 52.97 54.14 54.43 54.21
34.81 34.05 33.56 33.39 32.72 33.06 32.08 30.60 29.99 30.09 27.64 25.32 28.68 29.74 31.24 33.08 33.46 34.22 35.20 37.80 38.53 38.02 35.86 35.92 37.73 39.38 39.27 39.60 39.62 40.07 41.85 42.43 42.58 44.05 47.30 50.92 51.81 52.82
33.65 32.99 32.46 32.15 31.04 30.92 30.41 29.46 29.23 28.40 28.24 26.34 26.28 29.65 30.28 31.31 32.23 33.75 34.68 35.93 37.02 36.43 35.35 35.37 36.37 38.19 39.41 39.55 39.18 39.54 40.53 41.70 41.62 40.90 42.96 43.82 47.10 49.23
33.04 32.31 31.28 30.11 29.19 28.97 27.87 27.53 27.16 26.33 26.08 25.83 25.72 26.43 27.89 30.34 30.62 30.32 30.88 34.45 34.45 35.67 35.02 33.88 34.44 37.30 38.92 39.17 38.96 39.65 40.62 41.41 41.50 41.03 40.09 39.55 40.87 43.33
30.66 29.52 29.01 28.13 27.64 27.68 27.11 26.58 26.04 25.11 25.37 25.33 25.29 25.42 25.63 26.64 25.91 28.91 28.64 30.83 33.61 34.52 34.04 34.98 36.19 37.98 39.35 37.35 39.27 38.77 39.50 41.16 40.97 41.18 40.24 39.47 39.27 40.34
27.36 27.71 27.61 26.73 27.18 26.57 26.42 26.80 26.87 26.16 26.24 24.78 24.43 25.49 26.53 27.09 28.11 27.43 28.13 26.55 27.15 35.51 32.68 32.88 35.27 34.66 37.11 35.78 34.82 35.63 38.62 40.72 40.10 39.94 40.09 40.12 39.36 38.94
26.69 26.24 25.86 26.52 26.28 26.34 26.57 27.14 27.84 27.66 27.23 26.95 25.34 25.82 25.64 27.11 27.55 27.60 27.71 27.85 27.05 31.18 31.52 29.61 33.72 32.66 35.44 35.58 34.33 34.55 37.20 39.53 39.44 39.24 39.16 39.12 38.46 37.67
26.33 26.04 25.83 25.54 26.12 25.43 27.00 26.66 26.70 27.16 28.01 28.21 28.39 28.28 28.52 28.79 28.66 28.72 28.60 28.47 29.58 31.13 32.15 27.21 31.96 31.46 34.45 35.44 33.54 34.33 34.94 38.54 39.43 39.00 39.01 38.84 37.80 37.24
26.18 26.55 25.80 24.93 25.16 26.75 25.64 24.99 24.72 25.46 27.97 27.97 28.67 29.27 29.27 29.37 29.30 28.43 26.76 26.55 25.75 27.92 30.96 27.35 28.73 30.80 32.94 33.82 35.68 33.55 34.93 36.49 38.55 38.66 38.42 38.05 37.18 36.56
26.15 25.57 24.27 24.16 24.80 25.09 24.46 24.05 22.48 24.31 25.11 26.08 27.04 28.60 29.10 29.07 28.34 29.02 27.98 25.93 25.89 27.05 30.84 27.86 28.59 30.16 28.95 34.59 34.55 35.33 35.97 34.37 36.67 37.43 37.73 37.56 36.96 39.01
23.84 23.45 24.62 23.49 23.93 23.82 23.73 24.27 23.64 24.44 24.38 24.84 25.78 27.15 27.71 28.24 29.37 29.95 30.11 28.59 26.76 26.91 31.06 30.29 28.79 29.57 29.45 30.98 34.16 35.66 34.75 35.27 37.01 37.17 35.73 36.40 37.05 37.62
23.35 23.26 23.62 22.73 22.53 22.30 22.95 22.84 22.12 22.87 23.99 23.70 24.01 24.73 25.37 26.25 28.00 29.47 31.00 30.97 31.34 29.53 31.48 30.66 28.41 28.52 27.42 27.58 28.63 34.04 34.81 35.31 36.24 36.21 36.99 35.39 34.27 36.21
24.35 22.48 21.22 21.09 20.66 21.39 20.99 21.05 20.56 21.60 21.67 21.77 21.74 22.73 24.81 26.58 28.87 30.37 30.98 31.35 31.65 31.49 31.08 31.24 30.07 29.46 29.16 27.61 28.21 30.37 32.32 33.87 35.57 35.98 36.39 36.18 36.86 37.47
22.26 22.06 19.62 19.51 18.96 19.96 21.00 21.48 20.88 19.78 19.50 20.37 21.03 23.11 25.07 26.31 27.48 29.26 29.22 30.27 29.85 30.31 32.82 32.82 31.74 31.21 28.86 29.20 28.46 28.16 31.03 31.07 33.96 34.93 35.34 35.25 36.65 37.91
20.22 21.09 20.34 19.28 18.91 19.71 20.20 19.53 19.16 18.20 18.44 19.93 20.61 21.11 22.79 24.19 25.34 27.39 28.10 29.17 28.31 28.71 29.51 32.10 33.00 32.56 31.99 30.51 28.14 29.13 30.11 30.47 32.78 33.10 31.68 32.90 35.16 36.90
20.88 19.28 17.97 17.70 17.57 17.78 18.25 18.39 18.46 16.29 16.71 18.69 19.98 20.15 20.28 21.88 23.07 25.68 26.43 26.29 26.20 27.00 27.46 29.10 31.24 29.53 29.72 30.87 32.40 31.54 31.00 30.46 31.29 32.79 32.33 30.47 31.33 35.13
20.73 20.21 18.86 17.83 17.42 17.68 17.65 17.61 17.02 16.74 15.35 16.69 18.24 18.73 19.45 20.75 22.27 22.91 23.93 24.41 24.75 25.55 26.60 28.31 29.02 29.62 27.30 26.65 29.07 29.11 31.49 31.12 31.07 30.12 30.74 29.85 29.12 31.51
20.98 20.24 19.78 19.60 18.67 18.01 17.74 16.97 16.92 16.84 16.02 14.78 16.49 17.01 17.80 19.09 20.45 20.40 21.84 21.41 22.65 23.83 24.80 26.93 26.99 26.59 26.35 26.82 28.51 28.87 27.75 31.05 29.51 28.69 28.60 30.69 31.66 29.39
22.58 21.20 21.51 20.36 19.87 19.18 18.36 17.02 16.15 16.40 14.69 14.56 15.19 15.60 16.13 17.22 18.34 19.08 19.75 19.10 19.59 21.67 21.42 23.10 25.63 25.08 27.82 29.51 27.85 28.00 28.81 25.37 28.19 29.97 30.04 29.24 29.00 28.94
24.06 22.54 22.17 21.59 20.92 20.01 19.32 17.87 17.20 17.47 16.37 15.67 14.94 15.75 16.05 16.30 16.33 17.23 18.45 18.95 19.79 20.31 20.74 23.52 25.57 26.91 27.78 27.00 25.94 25.48 27.97 28.83 26.52 25.88 26.18 26.31 29.59 26.81
24.72 24.07 23.58 22.52 21.75 20.53 19.16 19.01 17.10 17.18 16.23 14.75 14.96 15.50 15.59 15.42 15.84 17.14 17.76 18.31 18.68 18.52 19.42 20.83 23.14 25.21 25.58 25.37 24.55 26.21 25.00 26.17 28.43 27.96 28.30 24.89 26.84 26.75

GFSNE_sfc_wetblb_024.txt.gz
Wetbulb
42.63 41.21 40.06 39.43 40.35 39.70 38.75 37.28 33.88 29.97 30.83 34.94 35.11 38.94 38.81 39.03 38.68 38.86 38.73 38.95 39.59 40.19 39.68 39.53 41.49 42.35 42.09 41.97 42.60 43.50 45.05 47.71 48.24 49.20 52.35 55.10 56.75 58.05
40.76 39.48 39.75 40.02 39.51 39.19 38.26 37.29 35.72 33.06 30.68 34.40 35.01 36.62 37.40 37.06 37.50 37.60 37.95 38.09 37.52 37.73 39.18 39.04 41.07 41.47 41.21 40.90 41.40 42.16 43.60 45.78 46.36 46.41 49.28 52.86 55.35 56.44
39.88 39.51 39.27 39.49 38.39 37.95 37.58 36.79 35.18 34.39 30.59 33.19 34.68 35.86 35.29 35.22 35.46 36.66 37.17 38.05 38.80 38.16 38.95 38.10 37.90 38.18 39.87 39.98 40.23 40.82 41.81 43.39 44.60 44.15 45.19 49.96 53.69 55.43
39.06 38.59 38.00 37.76 37.04 37.04 36.20 35.12 34.20 33.60 30.20 28.67 31.67 31.77 32.12 33.68 33.68 34.61 35.07 36.67 37.99 38.25 38.27 36.46 35.93 37.07 39.76 39.71 40.05 40.24 40.42 41.17 42.42 42.96 42.44 46.68 49.74 54.29
38.26 37.51 36.69 36.01 34.71 34.59 34.06 33.14 32.25 31.27 31.11 29.63 28.49 30.64 31.39 32.33 32.31 33.69 33.62 35.73 36.79 38.15 37.17 36.03 36.37 36.27 37.56 39.56 39.91 39.87 40.03 40.76 41.62 41.80 41.40 43.69 44.77 50.73
37.18 36.23 34.79 33.52 32.46 31.71 31.10 31.48 30.18 29.92 29.81 28.05 27.30 27.74 29.49 32.14 32.41 30.29 30.91 33.81 33.80 36.85 37.49 35.41 35.87 36.90 36.71 39.40 39.65 39.78 39.44 39.92 41.46 41.53 40.76 40.96 42.47 45.35
35.05 33.97 33.54 31.13 28.23 28.59 28.90 28.53 27.87 26.89 26.47 27.14 26.61 27.37 27.50 28.79 28.25 30.63 29.31 31.22 33.29 34.45 35.48 36.66 36.43 37.73 38.56 38.61 38.67 38.51 37.75 39.12 40.57 41.36 40.68 40.24 41.06 41.88
32.49 32.67 32.63 30.64 30.38 27.80 27.91 27.71 27.89 26.70 26.55 26.28 25.94 25.96 27.16 28.36 29.48 29.23 28.75 28.18 27.33 34.38 34.13 33.98 36.46 35.31 36.57 38.48 35.80 34.79 35.87 36.81 38.79 40.91 39.59 40.06 39.43 39.62
31.74 31.38 30.61 30.72 29.79 29.17 27.94 27.64 28.79 28.78 28.18 28.80 26.03 27.48 28.21 29.22 29.64 28.55 28.64 28.10 28.72 32.27 31.95 31.19 35.01 33.98 35.76 37.00 35.14 34.60 35.18 35.58 37.50 39.80 38.98 38.89 38.62 37.97
31.42 30.97 30.59 30.13 29.55 27.00 26.45 27.50 28.79 29.72 29.35 28.92 28.63 28.72 29.54 30.39 30.05 29.85 29.66 29.61 30.76 32.12 32.75 28.38 33.59 32.70 34.88 36.66 35.84 34.27 35.07 35.16 37.01 39.08 38.70 38.54 38.66 37.74
31.03 31.00 29.39 28.26 26.56 26.03 25.83 25.59 26.65 27.86 29.21 28.55 28.38 28.45 28.96 29.80 30.15 29.97 27.78 26.73 26.80 28.67 32.72 30.52 31.12 31.27 32.88 34.64 37.10 34.83 34.52 34.10 35.56 37.67 38.75 38.79 37.84 37.20
30.56 29.92 26.92 25.92 24.43 24.78 24.74 24.66 24.14 25.10 25.83 26.77 27.98 29.05 30.40 31.08 29.54 30.46 28.93 26.48 26.71 27.04 31.80 29.83 29.79 29.84 29.23 35.33 36.00 37.47 37.08 34.09 34.34 37.17 37.65 38.66 37.33 40.43
28.51 28.77 28.49 24.77 23.92 23.86 23.49 25.05 23.74 24.52 24.73 25.60 26.76 28.18 29.79 29.81 30.80 31.72 32.25 30.09 27.43 27.19 31.77 31.71 30.38 30.40 30.79 30.78 35.38 36.42 37.06 36.81 36.62 37.45 37.01 37.50 37.16 38.01
26.80 28.59 27.29 23.51 23.16 22.75 23.32 22.09 22.60 23.37 25.29 24.97 25.82 26.01 26.87 27.76 29.46 30.91 32.16 32.38 32.96 30.90 33.01 32.57 30.24 29.37 28.36 29.12 30.16 35.36 36.15 36.67 37.93 37.65 38.57 38.15 35.76 36.19
27.92 25.99 22.82 22.38 22.60 23.72 22.43 21.86 22.73 24.41 23.48 23.12 23.36 24.32 25.94 28.16 30.20 31.78 32.61 33.70 33.04 33.03 32.86 32.88 31.85 31.06 30.55 28.69 29.92 32.00 33.99 34.47 36.61 36.95 37.95 37.28 38.04 38.45
27.27 27.19 24.46 21.83 23.03 23.22 25.00 25.05 24.72 23.41 22.32 22.62 23.23 24.85 26.85 27.93 28.50 30.11 30.00 32.02 31.62 31.75 33.30 33.37 32.90 31.98 30.88 31.01 30.57 30.60 32.85 33.44 34.77 35.54 36.17 37.20 37.77 38.62
24.39 26.32 26.01 24.98 24.29 24.72 24.98 24.39 24.65 23.28 22.24 22.59 23.27 23.79 24.26 25.24 26.40 28.98 28.90 29.76 30.09 29.91 30.86 34.38 33.88 34.26 33.05 32.51 29.83 30.36 30.69 31.92 33.86 33.95 34.54 33.97 35.66 37.41
24.86 25.70 25.31 24.79 23.69 23.39 23.23 23.40 24.07 22.34 21.63 21.90 22.17 22.89 22.81 23.15 24.23 26.70 27.54 27.69 27.71 28.59 29.74 30.92 32.95 30.81 30.80 31.77 32.01 31.70 32.20 32.68 33.12 33.09 33.04 31.82 32.66 36.25
24.72 26.53 25.76 25.34 24.66 23.75 23.66 23.23 22.49 22.66 21.28 21.41 21.43 22.01 22.18 22.50 23.90 24.33 25.37 25.29 25.87 27.01 28.57 30.25 30.46 30.55 27.82 26.49 30.67 28.77 31.80 32.57 32.70 32.63 33.52 32.21 30.96 33.66
25.01 26.13 25.95 25.82 25.08 24.14 23.71 23.07 22.71 22.51 22.32 21.28 21.19 21.01 21.29 21.94 22.28 22.38 22.90 22.83 23.33 24.99 26.25 28.72 28.71 27.03 26.19 26.73 29.27 30.31 28.27 33.46 33.23 32.61 32.15 33.15 33.46 30.18
27.29 27.32 27.46 26.41 25.91 25.30 24.69 23.55 22.07 21.84 20.70 20.66 21.30 20.49 20.82 20.69 20.95 21.82 22.22 21.85 22.49 23.64 23.13 24.65 26.81 27.11 29.08 31.03 29.69 29.24 29.77 27.52 29.35 31.44 31.97 31.10 30.39 30.43
28.13 27.87 27.98 27.62 26.70 26.25 25.35 24.58 23.18 22.79 22.42 21.37 20.98 21.03 21.63 21.14 19.88 20.02 21.60 21.42 22.22 22.80 23.34 25.14 27.11 27.92 28.66 28.03 27.92 27.43 28.74 29.61 27.14 27.16 27.12 26.61 29.50 29.11
28.98 28.27 28.70 27.82 27.28 26.35 25.42 24.63 23.46 23.14 22.29 21.24 20.84 20.42 20.29 20.36 20.82 20.05 20.73 21.29 21.56 21.05 21.95 23.04 25.32 27.30 27.86 27.18 26.07 28.28 27.68 27.77 29.28 28.46 28.51 26.20 27.32 27.38

GFSNE_sfc_wetblb_027.txt.gz
Wetbulb
44.11 43.60 41.80 41.73 41.51 40.27 39.34 38.33 35.03 30.95 31.47 35.78 36.57 39.94 40.27 40.62 40.41 40.25 39.83 39.30 39.12 38.87 38.69 38.63 39.11 40.20 40.36 42.14 42.78 42.71 43.12 43.67 44.58 45.87 48.26 48.78 50.39 53.93
43.03 42.04 41.36 41.02 40.20 39.93 38.92 39.14 37.27 34.77 30.78 35.60 36.35 38.01 38.47 37.51 38.53 38.96 38.62 38.98 38.28 38.25 38.55 38.30 38.95 39.26 39.85 41.34 41.85 41.50 41.97 42.38 42.81 44.04 46.15 47.15 47.96 51.60
42.27 41.04 40.14 40.34 38.85 38.75 39.15 38.15 37.00 36.25 32.68 34.76 36.21 36.57 35.60 35.32 35.93 37.11 37.57 37.68 38.25 38.01 38.23 38.85 38.78 39.69 39.00 38.37 39.84 40.57 40.79 41.15 41.54 42.56 44.74 45.86 45.84 49.07
39.72 39.25 38.67 38.53 37.76 37.40 36.63 35.41 35.35 35.22 33.47 30.50 32.62 33.22 32.93 34.01 34.60 34.69 35.33 35.59 36.44 37.50 38.12 38.13 38.42 37.94 37.81 37.52 39.01 40.21 40.23 40.32 40.33 41.21 42.31 43.55 43.65 46.60
39.11 38.29 37.31 36.83 35.13 34.96 34.33 32.99 32.97 33.10 32.82 30.18 29.22 31.88 32.36 33.33 33.11 33.95 34.13 34.58 35.61 37.12 37.24 37.36 37.45 37.63 37.76 37.34 38.12 39.43 40.16 40.32 39.99 39.76 41.29 41.70 41.40 45.43
38.37 37.26 36.12 34.95 33.82 32.12 31.00 31.05 31.04 29.74 29.22 28.13 28.36 28.90 30.39 32.11 32.21 31.01 30.52 33.64 32.94 34.86 36.19 36.15 37.25 36.81 37.48 37.43 37.94 38.76 40.04 40.04 39.34 39.29 40.54 40.23 40.02 42.59
37.04 35.84 35.55 32.64 29.89 29.84 29.35 29.08 28.52 26.97 26.96 25.99 26.36 27.63 28.12 28.57 28.65 30.79 29.97 31.25 32.16 34.25 34.15 35.53 36.40 37.87 37.83 37.78 37.00 39.11 38.15 37.01 37.77 38.87 40.06 40.78 40.76 42.03
34.24 34.37 34.40 33.87 32.89 30.81 30.15 28.77 28.47 26.47 26.12 27.21 26.68 25.79 26.31 27.89 29.54 29.44 29.23 28.16 26.30 34.49 31.98 33.03 34.49 35.63 36.57 37.96 38.24 36.09 35.28 35.51 36.56 38.07 39.30 39.88 39.00 39.72
33.92 33.07 32.71 33.00 31.55 31.54 30.07 28.87 28.84 30.06 28.64 28.79 26.38 26.92 26.99 28.12 28.64 27.94 28.20 28.27 27.96 31.27 31.61 29.69 33.79 32.84 35.66 36.60 36.16 35.80 35.13 35.52 35.76 36.89 39.36 39.11 38.85 38.65
33.65 33.17 32.26 31.65 30.21 27.39 26.98 27.05 28.02 29.01 29.89 29.60 28.59 28.07 28.38 28.96 28.56 28.98 28.82 28.93 30.17 31.64 32.48 27.70 32.88 32.47 35.04 36.15 36.34 36.80 35.42 35.22 35.34 36.70 38.74 39.00 37.97 38.15
33.16 32.77 31.55 30.08 27.30 26.06 25.31 24.77 25.86 27.31 30.16 29.92 28.88 29.05 29.65 30.04 30.35 29.49 28.33 27.29 26.80 28.05 32.11 30.10 31.31 31.67 33.75 34.84 36.61 36.05 35.64 35.01 34.92 35.68 37.23 38.50 38.12 37.81
32.19 31.81 28.51 26.74 25.11 24.85 24.24 23.83 22.94 25.41 25.65 25.81 26.83 28.63 30.04 30.75 30.65 30.42 30.01 27.31 26.88 26.51 30.99 29.44 29.89 30.55 28.87 34.95 35.88 37.31 37.21 34.71 34.61 35.32 36.82 38.59 37.96 39.21
29.48 29.67 30.95 26.54 24.83 24.23 24.02 24.06 24.04 23.96 24.10 25.78 26.54 27.62 28.93 29.58 30.63 31.71 31.87 30.69 28.46 27.56 31.70 30.32 29.41 30.04 29.54 29.49 33.46 36.29 37.42 35.83 37.01 34.56 35.80 37.54 37.53 39.02
28.41 29.53 29.72 26.00 24.27 23.84 24.18 24.56 23.52 23.79 26.60 25.44 25.41 25.76 26.48 27.31 28.73 31.07 32.24 33.50 33.82 31.33 32.88 32.63 29.88 29.45 28.49 28.41 28.65 33.76 36.03 37.53 37.51 35.74 33.47 35.91 36.88 36.49
29.58 28.62 25.94 25.58 24.83 25.43 25.37 24.50 23.65 26.06 24.31 23.31 23.41 24.31 26.01 27.98 29.54 30.88 32.47 33.19 34.43 34.15 33.30 33.48 32.23 31.02 30.25 28.90 29.10 31.14 31.60 34.81 37.48 36.90 37.65 36.76 36.57 37.75
29.23 29.72 27.34 25.72 25.57 24.70 26.16 27.66 27.23 26.30 23.94 23.42 23.26 25.19 27.21 27.53 27.54 29.40 29.47 30.26 30.25 32.07 33.46 34.34 33.42 32.47 30.51 30.55 30.83 30.55 32.88 31.73 35.26 36.81 37.60 38.61 38.84 39.52
26.44 27.70 27.96 28.06 26.98 27.07 27.26 26.82 26.96 26.34 24.62 23.67 23.79 23.61 24.22 24.79 25.67 28.29 28.38 28.97 28.58 28.95 30.34 32.80 34.07 33.74 32.85 31.49 29.99 30.89 31.53 32.45 34.70 35.21 34.97 33.68 35.95 38.18
25.71 26.39 27.05 27.50 26.26 26.07 25.88 25.61 26.09 25.24 24.61 23.42 23.42 23.57 22.61 23.07 23.81 25.83 26.90 26.36 25.88 26.89 28.34 30.52 32.12 30.62 30.58 31.90 32.52 31.78 31.33 31.99 33.68 33.93 33.78 32.58 33.16 36.92
24.86 26.56 27.58 27.69 27.03 26.37 26.42 25.72 24.77 25.25 24.15 24.51 23.64 23.31 22.72 22.23 23.58 23.74 24.40 24.52 24.34 25.23 26.95 29.67 30.12 27.75 26.84 25.71 29.75 29.38 30.25 32.39 33.37 32.74 32.99 32.70 31.75 33.68
26.48 26.54 26.88 28.13 27.18 26.67 26.84 25.99 25.34 24.88 24.27 23.50 22.87 23.11 22.59 22.39 21.74 22.15 22.67 22.88 23.01 23.90 25.24 27.07 27.39 25.65 24.89 25.09 29.00 28.72 29.19 32.14 32.96 31.90 32.08 33.74 32.68 29.99
27.85 28.32 30.14 29.17 27.91 27.35 27.74 26.63 25.51 24.12 23.59 22.44 22.87 22.89 22.58 22.17 21.57 21.22 22.22 22.50 22.68 23.60 22.47 23.57 26.26 27.88 29.36 30.82 28.91 28.51 29.26 28.60 29.60 30.22 32.11 31.25 30.02 30.69
29.10 28.57 30.02 30.11 29.52 28.46 28.25 27.17 25.83 25.34 24.40 23.86 23.52 22.91 22.99 22.29 21.59 21.18 20.77 20.92 21.71 22.07 22.25 24.69 27.27 28.28 28.87 28.37 28.09 27.46 28.69 29.32 28.10 27.89 27.79 27.79 27.95 28.21
30.71 29.99 30.45 31.13 30.26 28.92 27.44 26.85 25.88 25.57 24.47 23.63 22.84 22.65 21.95 20.75 22.39 22.32 22.10 20.93 21.16 20.97 21.33 22.07 25.23 27.58 27.95 26.84 26.17 28.37 27.36 27.69 28.20 27.68 27.50 27.20 27.75 28.00

GFSNE_sfc_wetblb_030.txt.gz
Wetbulb
39.86 39.78 39.86 40.48 40.17 36.95 36.20 35.54 32.25 27.44 27.56 31.15 31.12 34.58 35.30 34.55 35.78 35.16 34.82 38.35 39.20 38.99 39.06 39.00 39.22 39.54 39.70 39.76 40.53 41.46 42.88 43.46 43.38 43.63 44.02 44.94 46.09 48.36
40.49 39.24 38.96 38.22 36.62 36.20 35.83 35.81 33.83 31.26 26.93 31.25 31.83 31.87 32.89 34.90 35.64 34.19 34.16 37.43 37.21 37.62 38.02 38.31 39.15 39.81 39.92 40.03 39.38 40.40 41.58 41.85 41.95 42.61 42.89 43.50 44.51 46.82
38.04 38.52 38.50 37.11 35.03 34.62 35.18 32.95 31.44 30.45 27.08 29.39 31.41 31.55 30.58 30.40 32.14 32.93 33.79 32.99 33.51 36.89 37.75 37.96 38.15 38.54 38.96 39.55 39.95 39.80 39.54 39.76 40.55 41.30 41.73 42.58 43.66 45.39
37.01 37.58 36.29 37.20 33.49 32.41 30.87 29.67 29.04 29.27 27.48 25.80 27.99 28.48 28.65 29.99 30.30 30.31 32.51 34.44 32.99 35.88 37.09 37.68 37.73 37.76 38.15 39.06 38.63 38.23 38.25 38.94 40.02 40.41 40.59 40.85 42.08 43.65
35.94 34.96 34.41 32.85 29.55 29.20 27.92 26.81 27.37 29.43 27.21 25.33 24.76 27.33 27.84 29.00 28.69 30.05 30.65 31.04 33.84 36.27 36.35 36.79 36.99 37.41 37.45 37.83 37.94 38.21 37.98 38.60 39.56 40.17 39.34 38.95 39.84 42.27
35.30 34.36 32.97 31.24 28.43 26.67 26.93 25.27 26.30 24.85 25.00 24.13 24.26 24.68 25.76 27.75 28.19 26.57 26.72 29.01 29.03 33.18 34.49 34.82 36.18 36.80 37.47 37.96 38.08 38.03 37.81 38.60 39.78 39.08 38.99 38.31 39.18 40.36
33.10 33.63 31.90 31.08 31.35 28.82 26.92 24.69 24.18 23.41 23.19 22.68 22.90 23.76 24.32 24.08 23.63 26.86 27.18 26.95 27.67 29.56 29.46 30.11 32.94 33.20 34.28 36.20 37.42 38.05 37.61 37.88 38.07 37.77 38.25 38.75 39.52 39.61
29.84 30.22 30.48 32.94 32.01 31.28 31.55 29.48 27.90 23.10 22.57 22.57 23.06 22.73 23.33 25.07 26.58 25.10 24.14 23.35 22.13 28.41 27.90 27.14 31.07 30.86 33.64 34.18 36.73 37.07 35.79 35.70 36.23 36.34 37.06 37.93 39.86 38.61
29.31 28.72 29.55 31.91 29.20 26.63 28.01 27.80 27.31 28.69 27.77 25.80 24.26 25.00 24.88 23.89 24.22 22.88 22.82 23.16 23.30 26.61 26.20 24.53 27.20 28.33 32.61 34.84 35.98 36.74 36.88 35.98 36.05 35.99 36.67 38.42 38.51 37.94
29.59 29.25 27.92 27.14 24.70 24.99 24.00 22.85 23.95 24.81 25.82 27.24 23.77 23.29 24.32 25.46 25.33 25.59 24.79 24.82 26.17 27.42 28.31 23.18 25.50 27.65 29.78 30.06 35.58 36.66 36.45 35.89 35.60 34.97 36.02 38.23 37.65 37.87
30.25 29.94 29.09 26.66 26.31 26.70 23.22 22.29 22.15 23.24 28.11 28.21 27.48 28.09 29.33 30.48 30.17 27.88 25.00 23.76 22.85 24.71 27.35 25.05 26.09 27.94 27.29 26.91 30.03 35.77 36.12 35.95 35.23 34.59 35.35 36.95 37.58 37.45
28.37 28.13 27.86 25.80 25.57 25.18 21.60 20.86 19.25 21.67 22.06 22.04 23.43 26.15 27.57 28.56 30.12 29.63 28.53 25.71 26.08 24.49 27.26 25.30 26.44 27.11 23.20 27.17 32.19 32.55 30.24 34.49 34.85 34.21 35.09 36.89 37.90 36.69
26.12 25.79 26.66 26.56 26.21 25.87 24.63 21.52 21.18 23.24 22.79 22.40 23.82 24.57 26.16 27.29 27.03 27.44 27.84 27.99 27.04 25.72 28.80 29.04 25.27 25.17 24.70 25.89 29.24 31.59 31.25 29.25 32.58 32.65 34.82 36.44 38.36 37.77
25.58 26.02 26.34 27.98 27.06 25.87 24.44 25.01 25.54 23.84 20.99 19.57 21.42 22.81 23.56 24.22 26.40 26.79 27.98 28.97 30.62 30.89 31.78 30.47 25.84 26.16 24.92 23.59 24.30 29.16 31.42 28.50 28.87 32.60 32.24 34.77 36.45 36.82
25.66 27.74 28.58 27.63 27.63 25.61 27.47 26.34 22.72 21.21 19.21 15.39 19.15 19.71 23.22 25.03 26.44 26.71 27.46 28.15 29.99 31.21 33.85 29.66 26.13 27.48 26.01 24.26 24.25 24.59 27.65 30.90 28.59 32.40 31.91 31.91 31.91 32.63
26.40 27.65 25.12 24.44 21.82 22.22 21.78 24.62 23.50 21.98 19.65 17.61 17.12 20.94 21.86 23.80 23.18 25.17 24.32 26.04 26.06 27.42 31.14 31.68 30.94 29.11 25.75 26.05 25.74 23.83 28.67 28.38 31.34 31.80 33.28 32.77 33.87 34.69
21.63 21.59 21.25 23.68 22.57 22.62 22.65 22.67 22.43 22.12 19.76 18.07 16.56 18.50 20.67 21.30 21.80 23.58 24.77 24.74 23.47 24.00 25.28 29.14 31.38 31.82 30.21 29.52 23.53 26.52 25.83 28.09 32.23 31.88 30.97 30.59 31.73 32.44
21.75 18.62 17.89 20.72 20.90 20.87 19.38 19.88 20.17 19.79 20.59 19.08 18.49 18.75 19.23 19.34 19.68 21.82 24.13 23.64 22.13 22.83 23.75 26.09 29.28 27.84 29.20 28.10 30.15 27.24 26.20 25.07 27.49 28.81 29.29 28.24 29.47 32.14
20.66 19.32 21.08 22.60 24.30 22.48 21.23 20.48 18.16 18.65 19.27 19.20 17.60 17.15 17.58 20.85 19.22 19.85 20.66 21.92 20.85 21.60 23.39 25.53 26.74 23.35 21.87 21.65 27.41 29.73 25.71 25.63 25.74 23.43 25.61 25.83 27.95 30.51
25.11 22.51 22.61 23.01 23.47 22.83 21.79 20.90 19.49 17.65 17.12 17.44 14.31 17.79 16.67 17.54 19.46 18.16 18.28 18.80 19.08 20.59 22.20 23.79 23.62 23.11 21.63 22.71 25.29 23.83 29.41 28.85 28.51 23.67 23.46 24.88 28.40 31.13
25.34 25.17 24.37 24.27 25.79 23.58 21.09 20.55 17.94 16.53 15.23 11.88 13.50 16.84 17.79 19.17 15.50 20.33 14.67 16.58 17.99 20.32 18.92 19.83 22.36 25.58 26.85 26.98 25.20 25.81 25.09 29.12 27.99 24.42 25.74 23.12 22.82 24.70
25.73 26.99 26.21 24.65 25.80 26.18 22.73 20.47 19.37 16.34 18.08 16.40 16.15 12.28 17.35 13.04 13.46 18.11 16.04 11.15 17.92 18.03 18.78 20.51 23.43 25.86 26.96 27.80 24.68 21.87 24.13 22.55 26.99 28.14 28.30 26.64 21.51 24.24
26.91 26.72 26.40 26.11 26.56 27.38 23.13 20.89 21.64 19.13 18.12 15.74 15.25 13.98 11.92 9.82 15.84 18.77 17.99 18.22 16.00 17.74 16.54 17.16 21.37 24.45 24.82 25.99 24.05 24.33 21.44 21.81 23.25 22.89 21.19 27.90 28.52 28.86

GFSNE_sfc_wetblb_033.txt.gz
Wetbulb
37.33 37.70 37.34 38.82 39.73 39.36 37.11 35.31 33.06 27.52 27.60 28.62 27.72 31.60 31.46 31.80 33.36 32.49 31.99 36.06 38.25 37.95 37.42 37.33 37.67 38.21 38.78 39.24 39.92 40.45 41.28 41.52 42.36 43.12 44.88 44.41 44.78 44.95
37.63 36.01 35.98 37.22 38.59 38.25 36.06 33.41 32.41 29.93 24.41 27.06 27.18 28.46 29.86 32.51 33.58 32.00 31.87 36.12 35.82 36.60 36.97 37.59 38.05 38.25 37.60 38.10 38.69 39.06 39.84 40.39 41.02 42.37 42.71 42.80 43.44 43.94
36.22 35.64 36.07 37.59 35.49 34.91 31.53 29.29 27.23 26.06 22.71 25.11 26.91 27.52 26.89 27.47 29.71 30.28 31.61 31.28 31.70 35.76 36.57 36.97 37.35 37.67 38.23 38.22 38.18 38.45 39.00 39.55 39.96 40.31 40.63 41.38 42.26 42.81
34.31 34.20 35.32 35.71 30.19 28.27 26.76 25.11 24.59 24.71 23.19 22.20 23.59 24.86 24.89 26.38 28.03 27.57 30.50 32.47 31.38 34.39 36.43 36.36 36.86 36.52 36.68 36.91 37.63 38.25 38.47 38.75 38.99 38.69 38.83 39.44 40.79 41.24
34.13 33.63 33.04 31.00 26.64 25.49 24.92 23.95 24.04 26.55 23.32 22.19 22.43 24.46 24.55 25.88 25.99 27.42 28.30 27.89 31.47 34.11 34.30 35.16 35.71 36.37 36.61 36.95 36.92 37.69 38.09 38.55 38.50 38.30 38.78 39.43 40.01 39.52
33.20 32.44 31.71 28.44 26.27 25.16 25.38 23.46 24.31 22.61 22.54 21.84 22.15 22.36 23.58 25.48 25.35 23.57 24.93 27.04 26.92 30.28 31.73 32.85 34.29 34.91 34.90 35.71 36.12 36.00 37.15 38.08 38.44 38.08 38.65 38.42 38.19 39.01
31.11 31.33 30.05 30.38 32.82 28.22 25.72 23.13 22.98 21.84 21.54 21.51 21.27 21.99 22.57 22.98 23.14 26.37 23.35 23.61 24.81 26.14 26.60 27.89 28.92 29.89 31.25 33.87 34.59 34.95 37.02 37.43 37.71 38.30 38.11 38.23 38.06 38.39
27.85 28.86 28.33 31.05 31.00 31.45 30.02 29.01 26.57 22.07 20.32 18.75 21.41 20.99 22.20 24.71 24.99 22.14 21.68 20.42 19.15 24.94 24.64 24.67 27.66 27.12 29.08 31.37 34.81 34.22 36.41 35.51 36.80 36.78 36.67 37.24 37.36 37.47
27.95 27.38 28.18 29.69 27.27 25.21 25.98 26.22 25.46 26.51 25.85 22.75 21.06 21.97 20.54 21.70 21.82 21.75 21.91 21.49 21.34 24.37 24.45 23.21 26.53 24.63 28.02 32.17 34.04 35.60 36.07 36.13 36.11 36.13 36.86 36.53 36.77 37.62
27.83 27.49 26.33 24.71 24.76 24.49 23.16 22.14 22.25 22.84 23.77 24.47 22.01 21.06 22.00 23.44 23.75 24.93 24.40 24.34 25.03 25.68 27.29 23.67 25.31 24.78 26.64 29.00 32.96 34.47 35.43 36.02 36.36 36.35 36.14 35.34 36.77 37.42
28.53 28.12 27.84 24.66 26.77 26.65 23.13 21.81 21.12 22.01 25.72 27.22 26.66 27.61 28.10 28.97 28.89 27.94 25.51 24.60 22.59 24.03 25.93 24.98 23.22 24.54 24.50 24.46 28.24 34.38 34.62 35.08 36.31 35.85 35.54 34.36 36.32 37.35
26.84 26.59 28.56 24.74 26.15 25.55 21.71 20.04 18.16 20.11 21.91 21.84 22.34 23.77 25.78 26.19 28.73 26.83 24.95 23.14 23.06 22.99 25.59 26.89 24.99 23.60 21.15 24.62 27.13 29.25 30.38 33.91 34.98 35.46 34.02 33.86 35.95 36.63
25.82 24.93 24.82 27.02 26.59 27.03 26.27 21.16 19.71 22.55 23.20 21.76 21.56 22.19 23.48 24.52 25.48 26.09 26.10 25.20 23.97 23.45 28.15 29.56 26.30 23.38 24.09 23.49 26.39 29.64 29.78 32.12 28.16 31.37 33.83 34.59 36.82 36.80
25.01 24.91 24.57 29.17 28.36 27.69 25.91 25.68 26.32 24.77 16.50 18.05 18.56 19.34 20.43 21.54 23.72 24.92 25.86 26.38 26.97 27.18 30.54 31.50 28.25 24.49 23.65 22.64 22.93 26.75 28.72 31.21 31.33 31.96 32.64 34.03 36.38 37.22
24.49 25.36 28.00 28.82 28.51 27.00 27.78 27.71 24.18 20.26 16.47 13.06 15.93 17.17 18.66 21.70 23.95 24.25 25.37 25.30 26.53 27.66 29.68 31.84 29.35 28.11 26.46 24.36 23.37 23.59 25.46 28.67 31.89 30.15 31.84 31.79 31.99 32.88
24.60 25.07 23.65 24.22 21.28 21.73 22.14 24.23 22.49 20.09 18.27 16.83 14.68 16.61 19.13 19.51 18.95 21.45 21.72 23.02 23.41 23.89 27.53 28.94 30.04 30.11 27.79 25.34 25.57 23.82 24.83 26.39 31.81 31.45 31.84 31.84 31.84 31.84
18.51 24.15 20.57 18.64 20.08 22.97 21.83 21.82 21.16 20.20 17.78 14.48 13.71 15.11 17.93 19.24 18.96 20.32 21.26 22.56 19.41 21.31 22.52 25.48 28.31 28.47 31.41 29.80 27.41 24.24 24.91 23.98 30.00 31.81 31.96 30.95 31.64 31.84
24.41 18.24 11.36 9.88 15.34 20.60 19.65 19.15 17.80 17.31 18.00 17.09 13.06 15.74 15.58 15.43 17.58 19.91 20.54 19.52 19.27 19.83 20.80 23.65 25.41 23.88 25.57 27.35 30.53 26.77 25.23 25.13 25.71 27.88 28.99 29.16 30.42 31.40
16.76 15.96 11.36 13.66 16.37 21.15 21.79 19.29 17.11 16.43 16.99 16.11 14.10 12.35 13.26 16.26 16.03 18.03 17.40 17.55 18.27 19.34 21.04 23.12 22.86 21.69 19.63 19.46 27.28 29.34 25.07 24.24 27.09 22.57 23.47 25.63 29.34 31.13
21.87 19.87 18.45 18.43 19.91 21.87 21.27 19.77 16.72 14.06 13.69 13.75 10.43 7.27 6.84 11.66 12.08 15.01 17.42 9.49 16.20 18.79 19.13 20.80 20.50 20.30 20.77 20.99 23.19 22.92 29.18 26.06 27.49 22.07 21.33 28.13 28.80 30.19
23.47 23.81 22.30 21.43 21.63 21.96 20.91 19.57 14.81 10.45 8.86 6.27 7.30 7.79 9.18 10.75 9.48 12.47 15.62 11.87 11.47 18.48 16.89 17.00 19.51 22.96 25.72 27.89 23.46 22.38 21.19 28.83 28.03 24.57 25.89 22.97 22.00 23.52
24.13 24.06 24.37 23.62 23.08 23.95 24.75 23.19 16.99 11.96 10.25 7.85 6.46 9.76 4.27 5.76 6.53 7.32 10.19 9.34 13.97 13.64 17.23 17.73 20.64 23.69 24.78 25.50 23.82 21.23 22.82 22.59 26.71 27.83 28.69 26.83 23.65 23.32
25.82 25.15 25.04 24.80 24.54 22.94 21.44 22.21 22.57 18.38 16.84 13.58 11.79 8.70 1.58 5.86 7.57 8.57 10.69 13.09 15.17 12.65 14.36 15.84 17.74 20.91 22.60 23.68 22.48 23.55 20.75 21.00 23.78 23.40 22.46 28.16 28.84 29.35

GFSNE_sfc_wetblb_036.txt.gz
Wetbulb
35.59 35.14 35.29 36.19 37.13 37.64 38.55 37.70 33.85 27.25 25.58 27.00 26.09 29.33 29.25 29.75 31.21 31.15 30.20 34.23 35.76 35.80 35.77 36.23 36.83 37.45 37.87 38.53 39.18 39.44 40.16 41.15 41.89 42.42 42.83 43.29 43.90 45.15
35.78 34.51 34.41 35.50 37.81 37.59 36.75 35.10 32.79 30.06 23.64 24.85 24.82 25.95 27.51 29.94 31.04 30.23 29.77 34.08 33.93 34.79 35.56 35.59 36.18 36.76 36.93 37.55 37.83 38.24 38.67 39.41 40.07 40.94 41.74 42.03 42.98 43.88
35.08 35.49 35.02 35.93 34.80 33.41 30.58 29.46 27.79 26.02 21.95 23.20 24.67 25.04 24.15 24.74 27.04 27.98 29.60 28.87 29.60 33.65 34.53 34.87 35.85 35.96 36.75 36.46 36.28 36.49 37.29 37.99 38.75 39.80 40.75 41.19 42.47 42.48
33.96 33.55 33.61 35.28 30.72 28.26 26.50 25.44 24.56 24.28 22.74 20.74 22.03 22.53 23.12 24.67 25.43 24.91 28.24 30.70 28.83 32.28 33.45 33.82 33.66 34.12 35.81 36.23 36.32 36.68 37.10 37.32 37.71 38.39 39.56 40.03 40.22 40.61
34.45 32.57 32.10 31.86 27.90 26.20 25.21 24.39 24.03 26.15 22.68 21.76 21.51 22.61 22.52 23.80 24.31 25.63 26.08 26.25 30.02 31.91 31.23 31.58 32.20 33.24 34.15 34.60 34.98 35.50 36.08 36.16 36.83 38.33 38.60 38.61 38.45 38.42
32.45 31.52 31.15 29.25 27.28 25.94 25.32 23.58 23.68 22.26 22.36 21.46 21.70 21.72 21.70 23.78 23.88 22.89 24.06 25.35 24.80 27.62 28.92 29.48 31.26 32.49 32.96 33.10 33.70 34.10 35.40 35.67 36.02 37.42 38.25 37.68 37.29 38.58
31.16 30.82 29.51 29.90 32.52 28.57 25.06 23.04 22.60 21.42 21.15 20.80 20.58 21.13 21.40 21.37 21.87 23.83 23.20 22.53 23.35 24.41 23.98 25.50 26.87 26.98 28.25 31.07 32.20 33.55 34.83 34.43 36.82 37.46 37.76 37.93 37.56 38.02
28.26 28.72 28.43 30.75 31.48 31.62 30.56 28.95 25.81 21.26 19.57 17.44 19.85 19.12 19.79 20.60 22.31 21.09 20.68 19.99 19.59 23.57 23.06 23.67 26.09 25.69 27.59 28.32 31.41 33.38 35.08 35.32 35.20 36.71 37.06 37.35 37.54 37.11
27.17 27.43 27.64 29.08 28.41 26.00 27.49 26.60 25.24 25.96 24.24 20.85 19.13 19.51 19.31 20.32 20.81 20.71 21.63 21.61 22.03 24.57 24.22 23.11 24.66 24.18 27.45 29.74 32.08 33.22 34.36 35.75 36.04 36.04 36.70 36.92 36.50 36.15
27.51 27.65 26.22 25.53 25.17 24.75 23.40 22.37 22.50 22.38 22.93 23.56 21.47 20.73 21.18 23.06 24.31 25.46 25.81 26.26 25.44 25.41 24.89 22.37 23.98 24.35 26.81 27.07 31.88 33.56 34.74 35.15 35.29 35.85 36.54 36.37 35.92 35.46
28.89 28.67 27.41 25.42 26.78 28.56 23.65 22.49 21.57 21.69 25.03 26.30 26.65 27.30 27.27 27.57 27.84 26.47 22.86 22.30 20.06 22.08 24.05 24.55 24.22 24.24 26.07 26.66 27.19 33.33 34.17 34.70 35.01 35.45 36.22 36.52 36.03 35.13
27.43 27.11 29.38 25.90 27.86 27.00 22.55 20.97 18.21 20.08 21.28 21.94 22.39 23.15 24.53 24.53 26.98 25.12 23.87 21.30 21.46 20.29 25.08 23.84 24.55 26.30 21.88 22.96 24.73 26.14 26.66 32.36 34.53 34.72 35.86 36.12 35.13 32.10
26.41 25.53 25.43 28.48 27.96 27.84 27.76 21.81 19.44 22.34 22.59 22.53 21.63 21.37 21.88 22.80 23.63 24.41 24.49 23.20 22.11 21.51 25.37 26.38 26.14 27.07 26.00 22.78 23.03 25.13 25.80 29.07 28.40 29.40 33.56 34.23 34.32 34.04
25.91 26.24 25.27 28.60 28.72 28.69 27.45 26.77 27.14 24.82 17.72 17.49 17.66 18.70 18.91 19.79 21.88 22.86 24.07 24.63 25.27 24.50 25.92 27.15 27.10 27.92 26.32 24.35 21.44 23.44 27.41 28.39 30.31 32.18 31.84 33.64 34.58 35.11
26.29 26.70 27.48 28.48 29.31 28.09 28.75 28.35 24.23 21.02 18.48 12.22 16.79 16.58 17.73 20.01 22.60 22.53 23.46 23.66 25.04 25.62 27.12 25.86 26.48 26.86 27.08 26.33 24.03 21.86 23.63 27.58 30.10 32.05 31.93 32.08 31.91 33.48
26.10 27.32 23.92 24.23 20.83 22.08 21.38 24.09 22.93 20.86 19.68 18.22 15.22 15.41 17.55 18.16 18.39 19.97 19.06 20.66 21.58 22.01 25.11 25.12 26.00 26.67 24.80 28.23 26.96 22.18 23.00 24.77 27.18 31.48 32.03 31.86 31.86 32.07
24.47 21.99 21.47 20.69 22.62 21.84 21.32 21.80 21.35 21.04 18.81 15.99 13.22 13.74 16.03 17.71 17.40 18.93 18.97 19.09 16.63 19.17 20.32 23.28 26.22 26.12 25.34 29.10 27.61 26.84 26.25 24.93 27.20 31.23 31.65 31.09 31.86 31.88
24.46 22.51 22.06 20.97 20.45 19.90 18.31 18.33 18.45 17.64 18.45 17.62 13.05 14.74 14.19 13.61 14.86 18.23 19.31 15.95 15.94 17.87 18.89 21.49 22.17 21.50 22.54 24.30 29.16 26.55 26.16 26.18 26.22 27.67 29.85 29.81 30.46 31.44
25.78 20.89 21.44 17.11 17.16 18.85 19.55 19.28 18.25 18.55 16.86 17.64 15.79 14.50 11.49 14.12 13.05 15.16 15.46 15.81 15.60 17.23 19.23 19.80 19.08 18.24 16.73 14.38 23.38 29.27 23.94 24.85 25.71 21.17 26.17 27.73 28.87 28.91
25.16 22.43 20.48 18.09 18.04 19.36 19.74 19.33 19.53 14.74 14.95 14.83 11.67 7.93 3.50 9.46 10.59 12.31 13.84 9.98 13.00 16.45 17.96 18.94 17.81 18.72 17.29 14.12 19.16 20.63 27.95 24.49 27.35 21.84 26.43 28.17 29.31 30.49
26.85 25.13 23.06 21.58 20.05 20.66 19.82 17.15 14.79 14.05 13.96 10.21 10.26 7.98 1.53 9.84 8.60 9.87 8.75 11.34 10.15 16.63 15.49 15.98 17.84 21.69 24.13 25.36 19.14 18.58 18.84 27.99 28.71 24.78 26.64 19.89 21.01 25.44
26.88 25.39 24.88 24.35 22.88 21.66 19.94 19.14 16.68 16.95 17.16 13.66 10.00 4.56 1.61 5.81 5.65 4.83 3.86 9.10 15.47 11.23 14.77 16.96 19.39 21.40 23.18 23.63 22.59 16.22 19.28 18.50 25.02 27.78 28.67 26.38 19.90 18.61
27.32 26.43 25.25 25.18 25.42 24.24 23.06 21.80 20.65 20.28 20.17 19.33 16.42 11.66 3.84 4.54 8.35 4.89 4.63 9.39 13.67 10.99 12.40 13.32 17.19 19.32 20.32 22.06 22.36 21.60 20.12 18.87 21.45 20.58 20.83 27.42 29.02 29.33

GFSNE_sfc_wetblb_039.txt.gz
Wetbulb
35.44 35.56 36.08 36.76 37.47 38.12 38.54 37.78 34.10 29.57 28.00 28.50 26.76 27.54 28.21 28.66 29.09 29.04 27.95 32.30 34.03 34.24 34.79 35.33 36.19 36.80 37.18 37.87 38.23 38.99 39.94 40.35 40.55 41.31 42.08 42.76 43.17 43.96
36.27 35.28 35.12 35.78 35.96 36.52 35.93 34.63 34.92 31.36 24.08 25.70 24.75 25.68 26.01 28.28 28.62 27.42 27.10 32.55 32.31 33.28 33.65 34.33 35.06 35.66 36.19 36.85 36.84 37.57 38.11 38.48 39.49 39.97 40.27 41.03 41.76 42.71
35.41 34.81 34.59 34.72 34.49 34.36 31.52 29.76 27.01 25.52 22.90 24.58 24.61 24.20 23.09 23.20 25.10 25.34 27.20 26.65 27.51 32.09 32.98 33.36 33.77 34.13 34.15 34.71 35.32 36.32 36.77 37.06 37.28 37.97 38.79 39.69 40.66 41.81
33.52 33.58 34.27 35.64 32.74 29.79 27.47 26.08 25.26 24.68 23.27 21.00 21.48 22.14 22.40 23.24 23.58 23.48 26.78 28.97 26.98 30.77 31.87 31.89 31.82 32.11 32.53 33.15 34.04 35.41 35.49 35.85 36.21 36.95 37.48 38.24 39.29 40.44
33.94 33.32 33.01 31.35 29.84 27.09 26.23 24.99 24.15 25.86 22.73 21.13 21.06 22.00 21.97 22.31 23.13 24.13 24.82 25.55 28.07 30.51 30.16 30.34 30.87 31.50 32.38 32.92 34.02 34.20 34.02 34.59 35.48 36.17 36.23 36.54 37.29 38.70
33.86 31.97 31.01 29.85 28.33 26.45 25.66 24.29 23.57 21.96 21.72 20.95 20.86 21.13 21.21 22.71 22.51 21.99 22.54 24.36 23.81 26.38 28.10 28.66 30.01 31.12 32.03 32.27 32.61 33.40 33.85 34.45 34.71 35.45 35.90 36.13 36.99 37.70
31.48 30.47 29.81 29.91 32.00 28.59 25.27 22.94 22.17 21.25 20.71 20.14 19.53 19.73 20.22 19.83 20.26 21.41 20.85 21.52 22.57 24.15 23.97 24.46 26.37 26.56 27.12 29.57 30.96 32.35 32.89 33.62 34.43 35.32 35.75 36.40 37.25 37.83
29.02 28.28 28.26 31.37 31.92 33.92 31.87 29.59 25.27 21.67 19.65 16.96 18.20 18.07 18.32 19.51 19.73 19.29 19.75 19.62 19.22 23.49 23.12 23.80 26.32 25.34 27.04 27.53 30.44 32.04 33.08 33.75 34.37 34.99 35.33 35.76 36.77 37.27
27.43 27.27 27.64 28.65 29.54 27.85 30.68 29.55 27.70 27.04 24.42 20.18 18.05 18.59 18.41 19.64 20.16 20.49 21.32 22.22 22.07 24.35 23.88 22.94 24.85 23.70 27.09 28.69 31.35 32.55 33.42 34.26 34.98 35.77 36.34 36.33 36.09 36.13
26.97 27.25 26.34 26.63 27.00 25.71 23.96 23.14 22.97 23.26 23.11 22.70 20.82 20.82 20.95 21.90 22.45 23.76 24.64 24.61 23.92 23.98 23.79 20.53 23.79 23.86 26.55 27.29 30.71 32.24 33.22 34.86 35.10 35.22 35.47 36.01 36.00 35.80
28.37 28.86 27.48 26.19 28.41 30.07 24.34 23.09 22.59 22.97 25.43 26.46 26.92 27.30 27.25 27.03 26.08 21.19 20.53 20.82 18.44 20.34 23.20 22.75 22.49 23.44 25.22 26.09 27.70 31.15 33.20 33.10 33.48 34.33 35.07 35.67 36.26 36.00
26.78 27.84 30.88 28.09 28.41 29.37 23.76 21.61 19.56 21.43 21.33 21.34 22.39 23.38 24.10 23.96 25.62 23.31 21.80 19.45 19.38 18.04 23.53 20.51 22.36 24.86 22.63 22.90 23.35 25.25 26.04 30.00 32.37 33.01 34.14 34.78 36.03 31.41
27.27 26.53 26.98 29.82 29.36 29.42 28.04 22.39 21.05 22.76 21.82 21.74 22.21 21.65 21.95 22.35 22.87 23.31 23.09 21.37 19.78 19.51 23.48 23.90 22.01 23.33 25.94 24.27 22.92 24.49 25.71 26.49 27.42 29.22 33.46 33.22 34.72 34.09
26.74 26.91 27.54 29.62 29.93 29.30 27.93 27.80 28.11 24.57 20.98 19.58 18.28 18.77 18.70 19.18 21.20 22.04 23.11 23.23 23.52 23.27 24.59 24.62 23.17 23.63 23.76 22.22 22.94 23.62 23.90 26.19 26.76 29.93 31.32 33.75 33.51 34.42
28.33 27.82 28.99 29.57 29.82 28.58 29.33 29.51 25.22 21.57 18.92 12.53 16.48 17.95 17.04 19.62 22.04 22.31 23.06 22.62 22.82 23.50 25.95 24.37 24.03 24.38 24.51 22.58 23.42 25.61 22.65 24.54 26.71 28.43 31.08 32.30 31.94 32.18
28.81 27.72 28.10 27.40 25.63 23.33 22.34 25.67 22.64 20.46 19.66 18.43 16.70 15.70 16.57 17.32 17.28 19.44 17.55 19.24 18.59 18.64 23.29 24.52 24.56 24.57 22.24 23.43 24.92 25.77 25.90 25.16 26.04 28.66 31.60 31.79 31.93 32.06
29.35 28.02 24.90 24.48 23.28 22.48 21.88 22.22 21.14 19.85 17.84 14.54 13.45 14.31 15.27 17.15 16.12 17.17 17.38 17.64 13.17 15.97 17.91 21.71 24.08 23.83 23.32 24.16 24.18 27.50 26.77 26.09 25.39 27.54 29.26 30.40 31.87 31.50
27.75 24.63 24.79 23.77 22.78 22.13 20.62 20.35 17.95 17.41 19.22 17.71 13.99 15.15 15.79 14.70 13.93 16.30 17.25 14.10 14.29 16.18 16.69 19.21 19.78 19.41 21.02 22.24 28.62 25.59 25.45 24.01 24.20 27.36 28.63 28.47 28.84 30.27
27.56 26.26 23.64 23.83 22.95 21.55 21.57 20.36 18.83 18.02 18.62 17.32 16.20 14.71 15.51 13.60 12.40 13.82 13.11 13.33 12.95 15.68 16.67 18.19 17.90 17.40 15.23 13.01 20.73 28.54 24.64 25.11 24.00 26.81 27.88 27.93 26.81 27.80
29.71 26.45 23.16 24.27 22.70 21.52 21.11 20.13 19.67 17.74 13.95 14.89 12.72 13.82 11.46 11.31 9.72 11.87 12.51 6.41 10.91 15.56 16.24 17.04 16.56 17.08 16.53 13.01 17.01 18.40 27.85 25.06 25.70 25.58 26.80 26.12 27.27 30.32
28.69 28.15 25.74 24.89 23.52 22.41 21.49 21.05 19.64 15.89 10.66 7.66 13.97 13.86 10.04 11.75 9.23 10.93 8.06 8.02 8.42 16.00 14.57 14.17 16.36 20.45 21.95 24.41 17.78 17.69 20.37 26.63 28.31 24.98 25.60 22.29 24.10 24.72
28.40 26.58 26.70 25.89 24.87 23.10 21.31 20.35 17.95 14.87 12.54 12.05 13.08 13.99 11.83 9.73 9.96 7.70 1.29 3.34 11.38 10.90 13.05 15.60 17.64 19.62 21.15 22.78 21.41 18.44 19.76 19.64 24.42 27.11 28.14 28.13 24.82 22.26
28.96 28.07 27.00 26.92 25.64 24.39 23.55 21.75 20.68 20.34 18.73 17.44 17.24 15.92 11.54 8.55 10.25 7.93 3.68 8.42 11.42 9.97 10.95 11.92 14.85 17.34 18.26 19.94 20.86 20.58 22.14 20.81 20.23 19.70 20.47 26.91 28.95 29.01

GFSNE_sfc_wetblb_042.txt.gz
Wetbulb
36.02 35.07 34.51 35.29 36.51 36.90 36.78 38.02 33.29 29.00 28.24 30.81 30.16 30.05 29.74 29.77 29.95 30.63 28.80 31.13 33.13 33.76 33.85 34.61 35.40 36.09 36.65 37.52 38.15 38.85 39.67 39.92 40.32 41.17 41.39 41.88 42.35 43.17
35.79 34.52 34.36 35.27 35.42 35.65 35.15 35.26 34.89 31.67 26.93 28.82 27.75 28.04 28.40 28.83 29.23 29.19 28.06 31.93 31.50 32.26 33.08 33.35 34.04 34.63 35.06 35.84 36.35 36.62 37.29 38.09 38.91 39.52 39.70 40.34 41.20 41.67
35.52 34.15 33.96 34.36 33.87 33.78 33.68 32.44 31.11 30.16 26.17 26.13 26.61 26.59 25.48 25.76 26.58 26.54 27.60 27.47 28.33 31.38 32.14 32.54 32.82 33.07 33.28 33.52 33.83 34.71 35.34 36.10 37.33 38.02 38.44 38.98 39.73 40.19
33.49 33.90 33.86 35.48 33.07 32.63 30.77 28.59 26.59 25.95 24.35 22.33 23.53 24.04 24.07 25.20 25.04 24.52 26.39 28.26 28.24 30.13 31.29 31.70 31.56 31.73 32.19 32.59 32.74 33.24 33.99 34.86 35.86 36.06 36.66 37.11 38.08 38.69
33.43 32.66 32.77 32.38 30.21 29.04 27.51 26.30 25.45 26.40 24.40 22.71 22.23 23.83 23.99 24.24 24.12 25.15 25.49 26.42 27.82 29.92 29.92 30.11 30.78 31.51 32.08 32.65 33.02 33.55 33.83 33.97 34.26 34.47 35.06 35.56 36.22 36.94
33.23 33.11 33.08 31.13 29.49 28.46 27.18 25.73 25.02 23.49 22.83 22.13 22.03 22.28 22.18 23.48 23.53 22.43 22.36 24.38 24.14 26.45 27.92 28.71 30.14 30.85 31.34 31.54 32.07 32.79 33.32 33.69 34.21 34.42 34.91 35.17 35.60 35.88
32.60 32.23 30.95 30.84 32.82 30.13 26.68 25.04 23.64 22.30 22.11 21.68 20.89 20.86 20.40 20.18 19.79 22.37 20.64 22.11 23.54 25.31 25.35 26.29 27.86 28.14 28.61 30.05 30.71 31.67 32.16 33.21 33.94 34.51 34.68 34.99 35.53 36.26
30.74 29.41 29.39 32.53 32.94 34.18 33.28 30.96 26.01 22.85 21.75 19.69 19.97 19.05 18.71 19.71 21.57 20.20 20.28 20.08 18.98 26.28 25.10 24.87 27.55 26.62 28.19 29.44 30.36 31.63 32.60 33.28 34.00 34.54 35.01 35.20 35.92 35.66
29.11 28.95 28.41 29.15 30.49 28.18 31.69 32.26 30.28 29.07 24.70 22.71 19.88 19.38 18.97 20.93 21.31 20.56 21.57 21.88 21.90 24.81 24.88 22.63 26.04 24.65 27.65 28.65 30.52 31.52 32.33 32.95 33.81 35.01 35.22 35.40 35.55 35.66
28.42 27.96 27.73 27.90 28.79 27.66 26.65 25.97 25.26 24.74 24.85 24.37 22.33 21.15 21.72 22.97 22.90 23.29 23.21 22.89 23.79 24.51 25.16 19.87 24.86 24.57 27.11 27.92 30.32 31.56 32.22 32.89 33.95 34.57 34.31 35.33 35.35 35.34
27.79 28.02 28.04 28.66 29.90 31.09 25.62 24.18 23.59 23.86 26.99 28.43 27.42 26.94 27.43 27.63 27.03 23.63 20.54 19.93 18.07 19.83 23.67 22.13 24.25 23.48 25.93 27.27 29.55 31.15 32.57 33.18 33.27 33.42 33.48 34.42 34.65 35.09
26.97 28.57 31.48 29.11 29.93 30.70 27.19 23.85 21.58 22.77 23.46 22.33 22.69 23.95 25.63 24.75 26.03 24.06 22.44 19.00 18.88 17.50 24.40 21.18 22.02 23.42 21.81 27.30 27.57 30.24 30.93 30.73 31.52 32.42 33.10 33.59 33.95 32.99
27.57 27.57 28.38 30.85 31.74 31.10 30.21 24.40 22.94 24.08 22.97 21.79 21.90 22.75 23.37 23.36 23.66 24.26 23.99 22.12 19.59 18.89 23.40 23.75 22.29 22.43 22.98 23.44 26.74 28.21 29.06 30.02 30.02 30.62 31.09 32.43 33.99 33.84
27.69 28.30 28.76 30.66 31.22 31.35 29.98 28.42 27.58 25.11 22.47 21.01 20.44 20.69 20.88 21.16 22.54 23.20 23.75 24.07 24.21 22.81 24.35 24.23 22.00 22.22 21.97 21.60 21.37 26.84 27.92 29.77 29.60 29.08 31.03 32.10 33.23 34.54
29.33 29.65 30.37 30.35 31.32 30.69 30.58 29.52 27.30 25.56 22.35 19.97 20.07 20.21 20.82 21.74 23.09 22.95 24.03 23.56 23.58 23.86 24.26 24.65 23.74 23.65 23.41 21.91 21.34 23.53 24.93 28.79 29.46 28.43 29.93 30.99 31.62 32.31
28.72 30.13 28.61 28.14 27.65 29.31 27.99 29.42 27.84 25.64 23.06 21.10 19.87 20.25 19.43 19.14 19.79 21.41 19.76 20.29 19.58 19.56 22.79 23.93 23.81 24.22 21.85 22.44 22.87 23.23 27.92 26.49 29.10 28.94 29.26 30.48 32.76 32.65
25.61 28.32 27.82 26.66 26.24 25.67 25.41 25.39 25.31 23.81 21.85 19.91 18.04 17.84 17.72 18.21 18.73 19.89 19.41 19.20 16.97 17.09 18.61 21.40 23.13 23.67 23.14 22.56 21.53 25.67 26.28 26.87 27.55 26.79 28.54 29.28 31.72 31.49
27.99 27.76 25.91 23.93 24.43 24.45 24.55 24.17 24.22 22.90 22.83 20.65 18.45 18.30 17.96 17.64 17.51 18.27 18.97 17.57 15.97 16.98 17.76 19.32 19.88 19.14 21.13 22.92 27.34 25.61 25.33 24.58 26.14 27.22 29.46 28.34 28.35 29.68
29.31 28.45 27.14 26.97 26.38 25.13 25.20 24.23 22.57 22.07 22.03 20.92 19.80 17.91 17.34 17.21 15.85 16.94 16.84 16.37 15.85 16.60 17.85 19.20 18.34 17.00 15.42 14.62 21.18 27.79 24.22 25.16 26.00 27.52 29.02 28.61 28.24 29.11
30.11 29.18 28.53 28.08 27.02 25.71 24.78 23.94 23.02 21.76 18.98 19.21 17.29 16.23 14.72 15.84 15.02 15.40 16.43 13.47 14.36 15.95 17.27 18.34 17.33 16.78 16.40 16.73 18.38 21.73 25.83 25.44 26.28 25.54 27.94 27.85 29.08 29.70
28.99 28.39 28.79 28.44 27.52 26.58 25.46 24.47 23.63 21.05 18.56 15.58 17.09 14.54 13.30 15.42 13.82 15.02 14.78 10.54 10.72 16.02 15.90 16.08 17.75 19.43 21.04 23.55 20.33 20.92 25.03 27.03 27.98 26.50 26.16 25.33 25.38 26.51
29.09 28.14 28.13 28.00 27.35 25.78 24.93 24.20 22.04 20.08 18.11 15.63 15.31 14.77 13.45 14.37 14.99 14.32 11.81 12.19 14.71 15.76 15.66 17.09 18.45 19.49 20.42 21.37 20.79 21.94 23.78 24.59 25.35 26.68 27.23 28.09 25.65 23.11
28.49 28.45 28.63 28.38 27.88 25.75 25.52 23.45 21.93 20.87 20.34 18.83 18.01 15.91 14.35 15.27 15.73 15.91 13.27 12.61 14.04 14.68 14.42 15.05 15.98 16.95 17.49 18.93 19.66 19.91 21.50 22.67 24.21 23.34 24.16 26.57 28.46 28.72

GFSNE_sfc_wetblb_045.txt.gz
Wetbulb
45.18 44.95 43.42 43.41 43.05 42.70 41.65 40.97 37.45 31.79 33.35 37.35 36.85 39.81 39.28 38.19 36.39 36.29 35.80 33.75 32.85 33.42 33.44 34.04 35.07 35.63 36.04 36.70 37.27 37.79 38.48 39.40 39.95 40.42 41.16 41.34 42.51 42.84
43.45 43.21 42.53 42.44 42.57 42.64 42.02 41.02 39.62 35.51 32.24 36.82 36.93 37.62 37.34 35.70 35.33 35.05 34.37 32.23 32.29 31.86 32.33 33.01 33.64 34.28 34.83 35.11 35.52 36.12 36.56 37.11 37.90 38.64 39.34 40.49 41.16 41.68
42.83 42.29 41.84 42.17 41.34 41.24 41.28 40.52 38.99 37.71 33.76 35.89 36.27 36.32 34.82 34.23 34.45 34.44 33.15 32.80 33.55 32.14 31.81 32.06 32.51 32.92 32.91 33.08 33.49 34.06 34.67 35.22 35.98 36.92 37.72 38.86 39.88 40.48
41.81 41.75 41.19 40.57 40.79 41.08 40.44 39.41 38.52 38.21 35.06 32.35 34.89 33.42 32.65 33.79 33.29 31.82 31.17 31.84 32.62 31.68 31.04 31.54 31.81 31.61 32.12 32.63 33.05 33.61 34.12 34.57 34.75 35.30 36.04 37.20 37.78 38.42
41.89 41.18 41.13 40.70 39.82 40.22 39.55 38.34 37.60 35.75 35.02 32.46 31.80 33.49 32.35 32.75 31.48 31.28 30.62 31.56 31.50 30.91 30.58 30.63 30.96 31.67 31.96 32.30 32.67 33.12 33.60 34.13 34.22 34.35 34.38 34.84 35.43 36.31
41.11 40.80 40.58 39.91 39.72 39.98 38.64 37.55 36.09 34.56 33.59 31.83 31.40 31.19 31.42 31.85 30.33 27.88 28.20 30.46 29.77 30.82 30.96 30.45 30.65 31.33 31.73 31.68 31.83 32.38 33.13 33.60 34.21 34.22 34.22 34.74 35.01 35.11
40.73 39.85 40.07 40.03 38.66 38.39 36.78 36.86 35.07 33.44 32.40 31.27 30.31 30.37 29.55 29.36 27.42 28.01 26.91 28.26 29.58 31.02 30.62 31.21 31.52 32.20 32.72 32.24 32.48 32.43 32.51 32.78 33.60 34.28 34.77 34.89 35.20 35.60
39.18 39.61 39.57 36.15 36.17 35.00 34.53 33.37 33.83 33.31 31.47 30.77 30.11 28.63 28.68 29.01 27.66 26.96 26.40 25.26 24.02 31.72 29.16 28.49 31.24 30.54 32.11 33.45 32.08 31.49 32.00 32.44 33.12 33.91 34.34 34.91 35.61 35.62
38.90 38.94 38.21 35.84 34.39 36.00 33.79 33.61 33.15 30.97 29.24 32.30 29.55 29.35 28.60 28.54 27.57 26.34 26.52 26.05 25.61 28.66 28.23 26.23 29.98 29.01 32.15 32.48 31.65 31.64 32.28 33.08 33.43 33.70 34.32 35.27 35.26 35.21
37.91 38.06 37.94 37.15 34.36 33.96 33.57 33.37 33.63 33.83 32.46 30.67 31.12 30.90 30.57 29.06 28.45 28.05 27.41 27.14 27.76 28.76 29.31 23.54 28.76 28.47 31.14 32.06 32.07 32.45 32.74 32.89 33.18 33.85 34.45 34.32 34.53 34.56
37.53 36.92 36.54 36.01 33.94 32.33 33.56 31.91 31.66 31.80 31.31 29.90 29.52 29.39 27.96 27.28 28.63 28.69 26.41 24.97 23.68 25.41 28.61 26.26 27.43 26.83 29.01 30.38 33.48 32.07 31.82 32.06 32.35 32.74 33.07 33.23 33.75 34.00
36.94 36.03 32.44 34.03 32.56 32.37 33.78 31.84 29.65 30.82 30.95 29.84 29.82 29.30 28.68 29.30 27.77 28.42 27.85 24.25 24.03 22.99 28.51 24.48 24.96 25.78 23.66 29.78 31.65 32.14 33.35 32.38 32.22 32.74 33.09 33.14 33.27 35.60
35.18 35.28 35.70 32.20 32.24 32.23 31.94 32.86 31.50 32.46 29.76 29.48 29.30 28.78 28.49 28.87 29.40 29.92 29.53 27.39 24.88 24.07 27.94 26.32 24.81 24.47 24.38 24.63 27.95 30.47 31.83 32.99 33.69 34.35 33.57 33.52 33.71 34.22
34.66 35.77 35.89 33.06 32.35 32.07 32.37 32.48 30.90 29.29 30.19 29.32 28.41 26.98 27.37 28.05 29.41 29.88 29.68 29.10 28.94 26.79 27.89 27.69 24.44 23.47 22.87 22.61 23.59 28.79 30.61 32.31 33.88 32.75 33.39 34.46 34.27 34.41
36.13 35.37 33.46 32.65 32.13 31.54 31.64 31.73 30.85 29.91 29.55 28.08 27.79 27.37 28.57 29.78 29.67 28.70 28.63 28.71 28.06 27.47 27.08 27.59 26.10 25.58 24.34 22.66 23.01 26.00 26.93 30.38 33.66 33.04 34.86 34.03 34.20 34.40
32.49 33.89 33.12 31.83 31.91 32.75 31.68 32.08 32.44 31.98 30.04 28.83 28.68 29.16 29.52 28.17 27.64 28.67 26.91 26.91 25.07 25.15 26.85 27.24 26.69 25.93 24.14 25.07 25.17 25.29 28.15 27.79 31.32 31.70 32.02 32.71 33.64 34.56
32.77 32.95 32.81 31.19 30.31 30.50 30.42 30.93 31.41 31.16 29.36 29.67 28.69 28.07 27.14 27.02 27.35 28.25 26.53 25.91 23.43 23.14 23.74 26.09 26.89 26.53 26.31 25.50 24.75 27.19 28.58 28.82 29.25 29.74 30.08 31.36 33.22 33.02
30.16 29.96 30.83 31.76 29.78 30.09 29.71 29.13 29.04 29.20 28.91 28.92 28.59 27.52 26.89 26.61 27.04 27.03 26.14 25.08 23.36 23.43 23.28 24.67 24.90 24.26 26.35 28.17 27.67 26.12 27.75 28.02 29.14 30.93 31.21 30.62 30.61 32.01
29.29 29.09 30.61 31.88 30.58 29.17 28.61 27.56 27.80 29.88 29.94 28.25 28.33 27.64 27.34 26.95 26.04 26.19 25.85 24.62 23.60 23.54 23.49 24.46 23.97 22.19 21.28 21.32 27.24 26.62 26.81 27.73 29.59 30.12 30.83 31.00 30.30 31.06
29.00 30.56 31.03 32.50 31.85 29.85 29.02 28.28 28.29 29.15 28.01 27.67 27.72 28.12 27.53 26.60 26.14 25.57 25.40 24.13 23.50 23.00 22.33 23.80 23.70 22.41 21.26 21.49 22.02 26.55 26.91 27.68 27.24 27.34 28.29 30.57 32.56 29.91
21.34 27.25 30.96 32.04 31.66 30.63 30.51 30.09 28.89 29.10 28.66 27.75 27.44 26.93 26.44 25.83 25.99 26.15 25.64 21.74 20.80 21.94 20.75 21.98 24.00 22.48 24.48 25.75 23.40 26.29 29.92 27.47 28.29 27.45 27.17 27.96 28.46 30.00
18.56 18.87 19.13 30.28 31.81 31.46 31.18 29.89 29.56 28.99 27.96 27.05 27.17 27.06 26.60 26.05 26.04 25.61 25.26 24.52 22.93 22.89 22.17 23.48 23.84 24.04 24.40 23.52 23.46 24.81 26.89 29.31 28.69 26.84 27.48 27.84 26.71 25.19
15.42 15.98 18.21 18.91 22.76 31.00 30.79 30.19 28.87 28.62 27.62 26.65 26.78 25.99 25.74 23.84 25.52 26.53 26.04 24.19 23.72 22.08 21.74 21.54 22.46 23.25 22.41 22.55 22.12 24.30 24.34 25.94 27.23 27.72 28.42 26.52 27.59 27.87

GFSNE_sfc_wetblb_048.txt.gz
Wetbulb
47.10 46.78 46.85 47.14 46.49 45.66 44.92 43.72 40.71 36.95 37.44 40.77 40.33 43.47 43.11 42.90 41.66 40.46 39.50 38.42 35.28 34.29 33.93 33.97 34.71 35.56 36.11 36.47 37.10 37.61 38.32 38.68 39.49 39.92 40.46 41.23 41.89 42.56
44.93 45.58 46.69 46.37 45.73 45.59 44.66 44.18 43.01 40.12 36.74 40.63 40.82 42.19 42.31 40.93 40.80 39.29 38.82 36.61 36.14 35.28 33.66 33.26 33.74 34.23 34.49 34.86 35.27 35.65 35.99 36.38 37.07 37.60 38.33 39.29 40.44 41.05
44.29 44.66 44.73 46.03 44.70 44.69 44.73 43.87 42.57 41.65 37.98 40.00 41.42 41.97 40.53 39.28 39.21 39.52 38.74 37.73 36.96 35.79 34.22 33.21 32.71 32.74 33.13 33.36 33.42 33.98 34.56 35.33 35.93 36.49 36.94 37.79 38.85 39.88
44.14 44.44 44.14 44.10 44.42 44.60 43.96 41.80 41.11 42.12 39.73 37.32 39.44 39.35 39.54 39.55 38.65 37.28 36.73 36.24 36.22 35.87 33.85 32.57 32.19 32.04 32.08 32.42 33.05 33.40 33.80 34.30 34.68 35.38 35.78 36.47 37.10 38.08
43.82 43.68 43.83 43.87 43.47 43.74 42.90 41.42 41.90 41.16 39.93 38.04 37.03 39.12 38.84 38.85 37.19 37.19 36.13 35.74 35.85 35.16 34.57 33.98 32.54 32.49 32.51 32.53 32.76 33.01 33.14 33.45 33.76 34.38 34.85 35.11 35.33 35.89
43.22 43.08 43.97 43.90 43.21 43.09 42.35 41.32 40.60 39.62 38.90 37.74 37.01 36.53 37.03 37.88 36.74 34.04 33.24 34.62 34.20 35.00 35.13 34.11 33.00 33.03 33.04 33.17 33.10 32.99 33.14 33.47 33.88 33.92 34.01 34.62 34.82 34.90
43.79 44.69 44.37 43.15 41.19 41.36 42.26 42.37 40.52 38.45 37.72 36.80 35.35 35.28 35.03 35.06 33.68 34.63 31.94 32.64 33.83 34.90 34.40 34.88 35.02 35.19 35.59 35.13 34.63 33.77 33.24 32.88 33.27 33.59 34.12 34.25 34.97 35.52
41.94 42.50 43.34 41.45 40.46 37.71 37.00 36.49 37.91 39.26 37.44 35.59 34.24 32.88 34.44 34.71 34.67 33.09 31.23 29.78 28.19 35.40 33.10 32.16 34.34 33.77 34.79 35.60 34.71 32.73 32.39 32.82 33.30 34.06 34.44 34.40 34.49 34.89
42.01 41.92 41.35 41.49 39.90 41.57 36.87 34.80 34.07 33.31 30.64 35.96 33.98 34.53 34.31 34.88 34.37 31.85 30.79 30.51 29.95 32.79 31.76 29.49 33.27 32.13 34.54 34.96 34.40 33.19 32.93 33.13 33.65 33.35 33.62 34.35 34.50 34.98
41.91 41.62 41.18 41.13 41.58 40.93 40.13 39.50 38.59 38.90 36.78 35.91 35.52 36.02 36.25 36.07 34.54 32.40 31.34 31.11 31.91 32.96 33.42 27.54 32.15 31.10 33.84 34.49 33.82 33.72 32.95 32.61 32.65 32.84 33.14 33.50 34.23 34.41
41.24 41.33 41.03 40.66 37.97 36.12 37.42 36.84 37.21 37.09 36.78 34.06 33.59 32.74 30.55 29.13 29.50 31.28 29.13 28.39 27.92 29.75 32.71 30.05 30.17 29.90 31.34 32.22 34.57 33.73 32.94 33.16 33.27 33.26 32.93 33.46 33.69 33.98
40.03 40.18 36.28 37.56 35.32 33.61 36.41 35.60 34.55 35.92 35.96 35.89 34.06 31.97 30.95 32.46 29.26 30.62 30.72 27.53 28.08 27.47 32.14 28.57 28.78 28.88 26.65 31.44 32.71 33.56 33.41 32.92 33.46 33.99 34.31 34.31 34.50 35.74
37.78 38.45 39.55 34.80 33.43 33.11 33.14 35.74 35.60 36.33 34.68 34.56 34.89 34.18 33.84 33.62 32.97 32.23 31.98 30.93 28.76 28.41 32.00 29.94 28.01 27.89 27.62 26.87 30.20 31.40 32.73 33.26 34.37 34.63 34.80 34.24 34.49 35.07
35.17 38.37 38.99 35.73 34.96 33.61 33.36 33.17 32.66 32.74 34.58 34.33 32.45 32.27 31.81 31.74 32.71 33.19 33.27 33.27 33.29 31.29 32.27 31.21 27.62 27.10 26.30 25.48 25.79 29.86 30.80 33.53 34.30 34.26 35.19 34.99 34.75 34.93
33.74 35.12 33.40 33.68 33.94 33.18 32.61 31.96 31.73 33.66 33.34 32.35 31.51 31.17 32.06 32.62 32.55 31.97 32.55 32.94 32.34 32.11 31.11 30.50 29.29 28.53 27.75 25.93 25.86 27.53 27.79 30.78 33.68 34.03 34.54 34.82 34.92 35.97
31.37 34.37 32.28 31.74 32.32 33.01 34.45 34.41 35.10 34.51 33.24 32.81 32.19 32.76 33.43 32.54 30.41 30.97 29.23 29.67 28.58 29.44 31.14 30.90 29.88 28.69 26.85 27.58 27.45 27.14 28.97 27.93 32.43 33.17 32.99 33.66 36.15 34.98
27.93 30.53 31.82 31.39 32.85 32.68 33.62 33.96 34.50 33.69 32.21 32.99 32.73 31.98 31.78 31.00 29.54 30.37 29.29 28.74 27.22 27.48 28.46 29.86 30.74 30.24 29.58 27.71 26.05 27.36 29.19 29.75 31.30 31.85 32.07 32.74 34.82 33.75
28.79 28.84 30.21 31.55 30.92 31.58 32.65 33.02 33.12 31.53 32.48 32.58 32.76 31.86 31.01 30.11 29.46 29.39 29.27 27.59 27.14 27.80 27.88 28.68 28.79 28.12 28.18 30.20 30.87 28.27 28.26 28.91 30.30 32.17 33.07 31.58 31.90 34.28
26.05 26.16 28.64 30.66 31.90 31.64 32.76 32.77 31.78 31.58 31.94 30.79 31.07 31.48 31.10 30.39 29.48 28.74 28.74 26.86 26.64 27.71 28.36 28.58 27.47 26.34 23.55 22.25 29.77 28.14 27.46 27.74 28.35 29.13 30.60 30.69 31.21 32.64
23.93 23.09 23.79 25.89 26.41 27.83 33.22 33.35 32.66 32.25 30.38 30.22 31.10 31.58 31.21 30.13 29.40 27.46 27.38 27.16 26.85 27.11 27.38 27.53 27.21 26.74 24.29 23.45 23.70 28.10 28.80 28.67 28.04 27.24 28.00 30.12 33.46 31.57
20.38 20.75 21.49 22.64 23.86 23.26 29.59 33.62 32.17 31.98 31.57 30.86 30.64 30.68 30.90 30.19 29.00 28.19 27.81 27.11 26.41 26.70 25.39 25.67 28.40 24.13 26.50 27.51 24.92 27.78 31.29 28.75 28.32 27.87 27.75 28.00 28.34 31.39
18.70 18.65 19.13 20.11 21.32 22.21 22.61 28.20 32.51 31.95 31.66 31.04 30.99 31.03 31.08 30.42 29.04 27.68 27.97 27.30 25.60 26.56 26.90 27.97 27.97 27.24 26.46 25.62 24.48 26.52 28.09 30.60 30.40 28.17 27.52 27.25 26.96 25.24
17.08 17.20 17.64 18.62 19.54 19.93 19.73 22.06 24.69 31.43 31.76 31.07 30.41 30.61 30.69 29.24 28.86 28.57 28.13 27.08 26.44 26.17 26.35 25.61 26.55 26.64 25.40 25.27 24.37 25.03 26.47 27.02 27.83 28.45 30.56 26.81 26.98 27.29

GFSNE_sfc_wetblb_051.txt.gz
Wetbulb
45.61 46.19 45.93 45.82 47.20 47.67 46.36 45.01 42.03 37.89 38.28 42.38 42.12 45.16 44.60 44.55 44.08 43.38 41.98 41.12 39.70 37.58 37.24 36.03 35.77 35.86 36.40 36.60 36.97 37.54 38.11 38.41 39.04 39.22 39.71 40.46 41.06 41.80
45.02 44.09 44.03 46.04 47.30 46.77 45.74 45.24 43.96 41.23 38.07 41.71 41.91 43.47 43.93 43.10 43.67 42.09 41.27 41.07 39.41 38.59 37.88 36.40 35.03 35.12 35.22 35.15 35.46 36.02 36.33 36.78 37.09 37.72 38.39 38.90 39.62 40.25
43.46 43.17 44.10 46.52 45.78 45.95 45.99 44.95 43.72 42.91 39.23 41.03 42.93 44.06 43.57 43.04 42.49 42.15 41.26 40.39 40.23 38.93 37.96 36.02 35.13 34.40 33.84 33.86 33.82 34.25 34.67 35.33 35.80 36.49 37.00 37.69 38.56 39.43
43.57 43.00 43.80 45.35 45.46 45.89 44.85 44.21 43.67 43.59 40.34 38.79 41.53 41.80 41.80 42.49 42.47 41.09 39.51 39.24 38.91 38.41 37.98 36.33 35.34 34.60 33.62 33.47 33.24 33.54 33.86 34.33 34.45 34.95 35.54 36.16 36.97 37.87
42.74 43.14 44.46 43.97 43.43 44.23 44.25 43.54 43.92 42.25 42.49 40.76 39.75 41.67 41.36 41.61 40.16 40.80 39.65 39.12 38.17 38.61 37.80 36.22 35.91 35.20 34.10 34.09 34.02 33.79 34.08 34.08 33.96 33.92 34.20 34.83 35.46 36.20
43.56 43.61 43.59 43.41 43.31 43.47 43.62 44.26 43.93 42.23 41.53 39.81 39.62 39.20 40.10 40.61 39.82 37.41 36.57 38.28 36.35 36.46 37.03 36.04 36.38 36.41 36.50 36.03 35.42 34.34 34.45 34.49 34.27 34.18 34.31 34.55 34.69 34.82
42.82 43.14 44.17 43.93 42.23 41.60 42.72 43.43 43.67 42.07 41.00 39.07 37.80 38.17 37.78 37.50 36.51 37.37 35.54 35.70 36.07 36.44 35.75 35.89 36.54 36.08 36.38 36.75 36.62 37.04 35.00 33.30 33.63 33.82 34.10 34.29 34.54 34.83
42.32 43.37 45.33 42.23 42.07 38.33 38.72 38.12 39.37 40.50 40.31 39.23 38.39 36.74 37.20 36.45 37.47 36.02 34.27 32.65 29.95 36.13 34.32 33.68 35.22 34.06 35.29 36.35 35.77 34.04 33.59 33.50 33.51 33.85 34.39 34.18 34.34 35.02
42.91 42.73 42.35 42.59 40.68 42.43 39.51 36.69 36.44 35.72 32.67 37.60 36.81 37.58 36.71 37.48 36.98 35.08 33.66 32.71 31.46 33.74 33.45 30.83 34.86 33.34 34.88 35.22 35.61 35.03 34.79 34.34 33.47 33.69 33.65 33.59 33.95 34.17
42.10 42.14 42.09 42.46 42.72 41.57 41.33 41.45 41.63 41.11 39.53 37.41 37.08 37.65 37.81 38.95 37.75 35.57 33.97 32.52 32.42 33.63 34.35 29.40 33.79 32.39 34.60 35.08 34.67 35.14 34.79 33.94 33.25 33.37 33.96 34.09 33.78 33.79
41.43 41.62 41.57 41.81 39.23 37.91 39.77 39.02 39.48 39.55 39.54 36.88 37.02 36.63 32.47 30.37 30.60 33.94 31.14 29.36 29.02 29.47 33.75 31.47 31.92 30.96 32.45 32.50 34.79 34.24 33.17 33.51 33.97 34.25 34.33 34.31 34.31 34.42
39.34 39.96 37.11 38.11 36.10 35.45 38.38 38.00 36.02 37.23 38.01 38.18 38.17 36.08 33.46 33.89 30.36 31.71 31.68 28.87 28.55 28.18 32.57 30.63 29.80 29.64 26.86 31.86 32.71 33.95 34.36 33.79 33.70 34.15 34.64 34.92 34.75 35.07
34.00 35.79 37.81 35.56 35.18 35.17 34.56 36.82 36.33 37.85 36.18 36.63 36.81 36.50 36.31 34.89 34.80 33.36 32.96 30.74 29.13 28.70 32.78 31.48 29.12 28.57 28.02 27.71 30.74 32.81 33.30 33.59 34.07 34.31 34.79 35.00 35.27 34.85
30.21 32.94 33.94 32.90 32.22 31.58 32.99 33.47 33.76 33.03 34.97 35.03 34.24 33.82 34.13 34.53 34.33 34.84 34.46 33.69 33.77 32.48 33.87 32.74 30.11 28.19 26.84 26.33 25.99 30.63 32.07 33.42 33.68 33.64 34.83 35.15 34.97 34.96
30.22 30.21 29.36 29.98 31.00 31.84 32.47 32.73 32.01 33.30 33.07 31.87 32.50 33.78 34.89 35.62 35.23 33.96 34.06 34.65 34.29 34.08 33.17 32.67 31.40 29.19 28.53 26.68 26.12 27.71 28.23 30.93 33.41 33.87 34.37 34.53 34.06 34.56
28.13 29.38 27.93 28.37 28.29 29.15 30.23 32.72 34.19 33.06 32.53 32.28 33.56 35.19 35.62 34.40 33.45 33.64 32.14 31.78 30.66 30.43 32.41 33.28 32.48 30.30 27.33 27.21 27.71 27.24 28.90 27.46 32.20 33.29 33.84 34.25 35.00 34.81
25.93 28.46 30.50 31.80 31.54 32.25 32.60 32.68 33.45 34.08 32.09 33.13 32.88 34.33 32.73 33.16 33.37 32.94 31.82 30.68 29.01 28.34 28.45 31.60 32.64 31.67 30.86 29.04 27.41 28.11 28.91 29.71 31.70 32.08 32.07 32.56 34.00 34.57
25.57 27.49 27.33 27.66 27.50 27.81 29.16 29.29 31.47 32.60 32.78 33.18 33.28 33.10 32.46 32.41 32.07 31.79 30.99 29.60 28.03 27.86 28.54 29.80 30.29 28.65 28.99 30.22 31.33 28.61 29.52 28.29 29.66 30.50 31.15 30.49 30.81 34.47
24.54 24.70 24.86 24.91 24.05 24.80 25.34 27.73 25.42 28.79 34.24 33.39 33.13 32.25 32.93 32.46 31.58 30.58 30.03 29.49 28.30 27.96 28.47 30.16 28.83 26.69 23.48 22.54 29.02 28.05 27.94 28.21 28.28 28.76 29.49 29.30 28.68 32.43
23.45 22.37 22.05 22.42 21.96 22.35 23.16 23.65 25.30 23.12 33.01 33.00 32.38 32.69 32.82 32.02 31.25 30.05 29.79 29.25 28.09 27.24 27.79 28.64 28.28 27.23 25.50 24.50 24.27 28.24 29.54 28.45 28.35 27.19 27.50 28.97 32.01 31.74
21.07 20.63 21.17 21.05 20.79 21.28 22.02 22.68 21.54 20.86 30.88 32.09 31.67 31.17 32.09 31.42 30.66 30.50 30.15 28.91 28.58 27.15 25.96 26.79 28.88 25.71 28.24 27.27 24.44 26.78 30.86 31.41 30.32 28.40 27.56 26.76 27.30 29.55
19.48 18.59 19.10 19.60 19.82 20.27 20.85 21.56 18.92 20.41 22.39 31.69 31.64 31.70 32.09 31.92 30.71 30.60 29.86 28.57 27.89 27.81 27.10 28.65 29.57 28.13 26.66 25.01 24.20 26.67 27.73 30.65 30.31 29.69 28.09 26.14 26.36 23.75
18.10 17.66 17.98 18.58 19.08 19.22 18.77 19.24 18.04 17.91 21.58 22.73 29.57 32.21 31.70 30.46 31.24 30.97 29.71 29.06 28.78 27.11 26.54 26.76 27.64 27.56 25.95 25.73 24.77 24.68 26.40 27.09 28.06 27.69 29.66 28.18 27.64 27.78

GFSNE_sfc_wetblb_054.txt.gz
Wetbulb
45.67 44.49 44.28 44.46 45.58 45.84 44.85 43.61 38.52 31.65 33.69 37.51 38.71 41.84 40.96 40.50 40.22 37.96 37.42 42.34 40.71 39.67 38.59 38.84 39.28 38.39 37.35 37.13 37.37 37.66 38.02 38.46 38.91 39.28 39.81 40.13 40.50 41.10
44.63 43.21 43.64 44.44 44.62 45.59 44.90 42.31 41.17 37.80 33.13 37.97 38.44 38.76 39.60 40.55 41.07 37.99 37.77 42.11 40.86 40.07 39.68 39.85 39.64 37.68 36.76 36.65 36.58 36.25 36.56 37.13 37.40 37.61 38.10 38.84 39.45 39.99
43.16 42.54 42.95 43.66 43.22 44.45 43.81 42.05 39.37 38.42 35.40 36.08 37.26 37.65 37.15 37.69 38.38 38.10 38.62 36.30 36.27 40.31 39.73 39.40 38.69 37.14 36.28 36.04 35.37 35.27 35.51 35.95 35.97 36.56 36.93 37.52 38.16 38.79
42.27 42.74 42.93 43.92 43.23 44.01 42.66 40.91 39.65 39.09 37.67 35.00 36.03 35.86 36.45 37.22 37.04 35.40 37.98 38.70 35.18 39.34 39.48 38.72 37.88 36.93 36.60 36.04 35.31 35.14 34.99 35.17 35.32 35.28 35.31 35.88 36.58 37.23
42.58 42.73 42.33 42.84 42.10 42.44 41.55 40.92 39.81 41.19 39.41 35.19 35.35 36.27 36.48 35.89 34.54 35.28 34.88 34.30 37.29 40.27 39.12 38.24 38.41 37.87 37.40 36.76 36.08 35.94 35.51 35.40 35.09 35.00 34.87 34.62 34.89 35.67
43.04 42.70 42.77 42.82 41.83 41.77 41.38 41.27 40.55 39.06 39.06 37.22 36.30 35.72 34.24 34.95 33.91 31.81 30.71 32.18 31.79 37.07 37.01 35.60 36.64 37.53 38.21 37.47 36.55 36.60 36.86 36.71 35.56 35.38 35.60 34.97 34.80 34.58
42.61 43.04 42.94 42.80 42.02 41.53 42.31 40.62 37.39 35.85 35.49 35.07 34.74 33.69 32.79 31.63 30.21 32.00 31.39 30.36 30.40 31.96 28.75 29.25 29.86 30.40 30.88 34.75 36.49 36.72 36.30 37.19 36.79 35.49 34.55 34.85 34.99 35.16
40.58 41.37 42.23 41.77 41.43 39.87 40.27 39.26 37.58 35.62 34.61 33.81 34.34 34.09 32.81 33.98 31.61 30.25 30.04 27.13 25.53 30.99 27.54 26.26 29.12 27.53 29.40 30.35 35.39 35.36 34.98 34.63 34.37 34.47 34.31 34.20 34.56 34.47
39.99 39.98 39.78 41.22 38.69 38.77 37.79 36.78 35.74 36.15 34.18 35.74 33.54 33.73 33.45 33.57 31.83 30.35 29.51 28.50 28.48 28.42 26.40 24.24 26.32 26.12 29.59 33.83 35.28 35.55 35.33 35.83 35.48 35.06 34.47 34.26 34.43 34.03
37.68 37.93 37.23 37.46 38.08 37.26 35.84 34.57 35.81 36.88 36.25 35.18 33.57 34.57 34.55 33.80 32.03 32.23 31.09 29.60 27.17 26.99 28.24 23.13 25.95 26.05 27.85 28.96 34.95 35.23 35.19 34.14 34.53 34.64 34.63 34.38 34.01 33.89
37.57 37.02 36.74 35.32 36.14 36.10 33.88 32.69 33.63 34.88 38.10 37.66 37.32 37.08 36.63 36.01 34.04 30.01 27.06 25.95 21.94 24.83 26.67 25.86 25.65 24.79 26.39 25.83 27.15 34.47 34.42 34.30 34.51 34.49 34.27 34.30 34.27 34.09
31.47 33.08 33.65 33.97 33.14 32.91 30.54 30.18 29.77 31.66 33.92 34.76 34.78 33.78 34.72 31.67 31.92 30.72 28.97 27.86 27.55 23.37 26.87 25.83 24.96 24.47 20.66 25.53 25.99 26.90 27.37 32.31 33.90 34.31 34.35 34.34 34.68 32.29
26.76 27.08 27.86 30.97 30.84 30.44 30.09 26.83 26.68 29.63 30.92 32.07 32.85 33.44 33.34 32.17 31.28 29.98 29.51 29.11 27.35 26.14 27.89 26.76 23.49 24.13 21.79 22.13 23.20 25.91 26.46 26.79 27.95 29.06 33.42 34.74 35.17 34.38
25.37 26.17 27.16 28.77 29.41 29.56 28.95 29.57 30.25 30.18 31.07 29.87 29.80 30.58 32.60 32.57 33.95 33.20 31.19 29.39 29.62 28.95 29.49 29.53 24.81 24.56 21.70 20.32 21.48 23.64 24.39 26.97 25.38 26.39 27.70 32.69 34.32 34.68
25.90 26.89 26.99 27.36 28.36 28.32 30.27 30.43 28.59 27.15 26.38 26.79 27.38 28.79 30.95 32.83 34.01 33.00 32.52 32.29 30.12 29.38 31.59 31.44 27.05 26.26 23.30 21.61 22.01 22.68 23.52 25.05 26.84 27.15 26.58 28.79 28.90 32.48
24.38 23.21 23.56 25.88 26.07 26.67 27.50 28.08 28.92 29.61 29.05 29.43 29.29 30.81 31.96 32.84 32.69 32.84 30.84 29.77 29.58 28.94 30.09 30.02 28.35 27.22 23.32 23.77 23.53 22.59 23.86 20.81 25.33 28.64 27.74 25.24 31.70 32.29
21.31 22.30 23.38 24.12 23.32 23.15 23.08 23.72 24.39 25.44 25.20 25.66 26.69 29.70 30.99 32.21 31.63 31.93 31.40 29.93 27.38 25.68 26.10 27.67 28.83 28.99 27.02 25.62 22.88 24.24 24.89 24.36 28.51 22.89 25.46 26.18 29.28 32.13
21.43 20.43 18.89 19.00 19.53 20.08 19.75 19.91 20.98 21.51 21.85 23.36 22.59 27.46 30.79 31.05 30.77 31.32 30.50 28.57 26.58 26.10 26.64 26.43 25.66 26.19 25.85 26.22 29.06 25.06 24.99 27.35 23.79 28.04 27.10 25.26 25.98 27.10
18.00 19.04 17.38 17.46 17.83 19.09 18.80 18.61 18.68 20.05 20.14 20.78 21.06 26.12 30.82 30.64 30.19 29.61 29.61 28.04 27.13 26.92 27.01 26.70 25.93 23.88 19.98 16.23 23.26 30.02 22.01 23.90 27.41 26.81 28.01 27.39 25.50 26.29
19.90 17.97 16.57 17.19 17.49 17.54 17.33 17.42 17.82 18.32 17.96 17.77 19.65 27.36 31.05 28.95 28.57 28.49 28.68 26.61 26.77 27.10 26.50 26.42 24.92 25.10 20.68 16.09 14.54 18.32 29.76 19.23 21.88 26.57 25.77 22.87 25.71 30.23
18.03 17.23 15.90 16.22 16.07 16.44 15.53 16.29 16.73 16.08 16.66 16.93 19.90 24.26 29.72 28.80 27.31 25.13 28.02 27.56 27.45 27.64 25.19 24.69 25.31 25.64 24.10 21.12 11.65 14.29 20.33 30.75 28.42 24.86 22.44 19.16 20.58 23.48
15.44 15.62 15.94 15.50 14.66 14.51 14.08 14.91 14.75 14.28 15.07 15.76 17.49 17.98 19.33 28.11 24.84 22.57 24.91 28.54 26.77 27.36 26.78 26.12 25.13 25.26 22.54 22.35 18.08 13.77 21.41 25.18 29.15 30.67 29.55 26.30 19.04 14.52
12.51 15.07 13.82 13.06 13.59 13.22 12.89 12.33 13.14 11.80 13.66 14.65 15.50 14.98 15.95 18.48 26.96 24.94 28.46 27.64 27.61 26.02 26.24 24.55 25.11 25.35 23.41 23.66 20.40 17.81 18.16 17.07 23.85 22.25 21.16 28.72 28.61 28.33

GFSNE_sfc_wetblb_060.txt.gz
Wetbulb
48.15 46.66 44.92 45.21 46.22 46.37 45.98 44.94 41.97 38.70 39.96 39.86 38.68 40.66 40.17 38.59 39.42 41.63 40.18 43.72 42.94 42.48 42.90 43.72 44.00 43.25 42.80 42.35 41.99 41.15 40.47 39.79 39.06 38.92 39.03 39.44 39.91 40.51
46.18 44.84 44.78 45.16 45.45 45.49 44.89 44.56 43.83 41.75 38.78 38.78 37.19 37.37 38.13 39.42 38.89 39.70 39.36 41.34 42.39 41.55 41.58 41.90 42.28 43.18 43.11 42.50 41.83 40.79 39.97 39.39 38.86 38.53 38.37 38.48 38.82 39.36
44.66 44.52 44.33 44.86 44.15 43.94 43.93 44.19 43.26 42.11 39.27 40.58 38.10 36.38 34.67 35.12 36.46 37.88 39.35 38.34 38.39 41.63 41.12 40.83 40.70 41.11 41.33 41.62 41.39 40.89 39.77 39.03 38.45 38.11 38.03 38.25 38.55 38.83
44.00 43.83 43.56 44.27 42.90 43.30 43.08 42.14 42.11 42.12 39.91 37.62 37.87 36.11 35.24 37.83 38.89 37.34 38.46 38.59 37.39 39.46 41.35 40.78 40.61 39.94 40.02 40.01 39.91 39.64 39.19 38.82 38.22 37.45 37.83 37.93 38.01 38.43
43.59 42.80 42.70 42.92 42.15 42.05 41.66 41.40 41.21 41.85 40.55 38.51 38.70 40.28 38.20 35.61 35.05 35.16 35.96 36.11 37.23 39.92 39.87 40.30 40.29 40.32 40.09 39.66 39.17 39.17 38.77 38.48 38.23 37.71 38.03 37.35 37.22 37.28
42.66 42.66 43.03 42.71 41.83 41.29 41.27 40.48 40.81 39.41 37.95 37.04 36.76 36.15 34.52 35.76 35.20 35.45 35.39 33.08 34.67 37.46 38.60 38.33 39.17 40.13 40.04 39.38 38.98 38.89 38.73 38.70 38.45 38.30 37.83 37.07 36.83 36.74
41.86 42.45 42.66 42.63 42.10 40.25 39.91 40.01 34.99 34.64 35.17 34.16 34.36 33.01 31.23 29.20 30.62 32.47 31.70 33.58 31.69 31.21 30.14 30.24 32.57 32.36 33.59 37.78 38.02 39.28 38.82 38.77 38.50 38.44 37.13 36.44 36.84 36.74
40.88 41.23 40.10 39.11 37.74 35.90 35.26 35.12 34.24 32.24 32.77 33.94 33.56 32.43 31.74 31.33 30.90 32.54 32.49 28.35 28.52 30.77 30.48 31.48 33.21 31.35 32.92 31.79 33.82 35.27 35.73 36.58 37.07 36.46 36.00 36.00 35.70 35.20
37.60 34.77 34.77 34.60 33.02 31.59 31.40 31.43 31.18 32.44 30.45 29.78 29.99 30.19 30.79 32.63 33.53 32.93 32.06 30.56 31.36 33.12 31.17 28.43 29.63 29.93 28.75 31.02 34.12 35.50 35.85 36.47 36.08 36.11 36.05 35.99 35.36 34.87
31.88 31.09 29.63 29.49 30.15 28.70 26.31 24.65 24.85 25.44 25.84 26.85 25.26 26.29 27.85 29.47 30.35 30.86 30.73 31.81 33.89 33.51 30.26 30.18 26.01 25.86 26.34 27.42 32.84 34.65 36.02 35.67 34.90 35.13 35.22 34.87 34.60 34.40
29.41 29.14 28.00 26.74 29.80 29.66 26.23 24.96 25.10 26.44 29.95 30.99 31.36 31.61 31.90 32.15 32.19 30.05 27.54 27.38 27.63 30.97 27.01 29.81 25.33 23.64 26.29 24.55 26.42 32.65 34.91 34.09 33.44 33.55 34.12 34.00 34.12 34.27
26.40 26.40 28.16 27.46 28.08 28.25 26.19 25.10 24.45 25.50 26.23 27.17 27.91 28.34 29.52 29.22 30.97 29.42 28.18 26.87 26.96 27.54 25.80 27.59 25.71 26.32 25.76 24.44 24.76 24.93 24.86 29.84 31.55 31.85 32.09 32.05 32.98 29.27
24.52 24.00 24.48 26.69 27.44 28.50 28.79 26.03 25.20 24.78 24.35 24.07 25.38 26.22 26.11 26.42 27.51 28.46 30.04 30.10 28.12 27.04 29.30 29.30 28.20 25.72 24.54 21.64 22.74 24.32 24.38 23.82 23.74 25.57 29.51 30.90 31.58 32.18
23.96 24.55 24.47 26.32 27.39 28.01 26.51 26.09 25.35 23.80 21.55 20.72 20.64 21.05 21.30 21.63 23.53 24.55 25.96 29.81 31.68 30.80 33.06 31.86 27.46 23.57 22.28 20.04 19.79 22.71 22.19 22.62 21.74 22.21 22.71 27.60 30.89 31.86
24.62 24.18 24.91 25.62 26.32 25.57 24.70 24.14 22.89 20.56 18.01 17.07 17.89 18.53 19.18 20.09 22.06 23.28 24.35 28.83 32.22 32.44 32.76 32.07 28.62 24.99 23.54 20.90 20.20 21.05 22.14 23.32 22.16 20.75 20.29 21.82 22.15 23.22
23.76 23.34 22.73 24.15 22.93 22.74 22.45 22.11 21.37 19.76 17.92 17.07 17.05 17.85 19.04 18.43 18.70 21.01 20.34 22.79 29.15 29.96 31.14 31.30 28.80 26.69 23.08 24.03 23.63 22.84 22.30 20.61 20.21 20.97 21.17 19.24 20.45 19.67
20.98 20.35 21.17 19.74 18.69 18.90 19.71 19.08 18.56 17.79 16.42 16.08 15.79 15.23 15.54 16.61 16.80 19.69 19.15 20.71 24.71 26.73 25.89 28.53 28.62 27.88 27.01 26.21 21.61 23.96 22.97 21.21 21.26 20.23 23.69 19.44 19.84 21.01
20.89 17.66 14.30 12.69 14.92 16.47 15.85 15.32 15.20 14.20 14.99 15.04 13.87 13.34 13.89 14.07 15.35 16.46 17.50 21.83 27.81 27.57 27.13 27.58 27.75 26.84 26.19 26.05 27.99 23.19 20.64 20.75 21.31 24.46 23.87 17.74 17.68 17.33
17.94 15.79 9.45 9.97 11.94 15.49 14.78 13.84 12.50 13.07 14.15 12.72 12.00 10.85 12.57 13.76 13.49 13.57 15.82 17.70 27.31 26.69 26.69 26.39 27.69 25.30 22.14 17.61 25.09 29.76 22.16 22.04 21.08 19.61 21.70 19.63 15.18 20.86
18.38 16.27 14.11 14.03 14.09 13.28 13.14 12.12 11.68 9.98 8.69 10.44 8.72 9.19 10.00 10.75 11.50 11.96 13.48 12.75 26.18 26.99 26.25 27.05 26.73 25.74 20.71 18.87 18.53 19.65 29.14 18.15 18.12 15.08 17.76 19.83 22.61 26.76
15.49 14.53 14.51 13.94 11.97 11.65 6.76 3.79 -1.68 -0.67 4.22 2.20 4.77 8.15 6.62 8.17 9.89 11.70 12.20 13.53 18.14 26.72 24.87 24.75 26.40 27.50 25.48 21.99 15.62 13.28 17.69 27.08 24.08 20.34 19.82 16.31 18.48 19.84
13.33 13.61 13.63 12.04 7.87 7.15 2.03 0.29 -2.30 -1.84 3.10 4.72 5.89 3.52 4.68 7.03 9.16 10.46 10.51 10.94 14.77 21.51 26.85 25.14 27.15 26.53 22.89 22.43 18.47 9.41 15.22 16.28 24.28 29.38 27.87 26.17 18.90 15.91
10.65 11.33 8.73 4.49 3.93 3.99 7.40 -1.01 -0.22 -2.82 5.08 6.88 6.56 5.30 4.63 5.10 8.92 9.81 10.33 11.50 13.73 15.10 24.93 24.20 25.66 24.80 23.36 23.66 20.89 17.06 15.00 11.76 18.08 19.44 18.81 27.92 29.40 29.18

GFSNE_sfc_wetblb_063.txt.gz
Wetbulb
50.81 50.07 49.15 47.35 46.81 46.51 46.07 45.22 43.31 38.92 39.79 41.05 40.95 41.77 41.65 38.75 40.60 41.96 42.45 43.27 44.63 43.83 44.16 45.27 46.41 46.74 46.62 45.96 45.08 44.35 43.94 43.50 42.67 41.51 40.93 40.82 40.64 40.85
48.11 47.03 46.31 45.78 45.91 45.84 45.57 45.09 44.12 41.84 38.96 41.02 40.21 39.87 39.84 39.17 39.28 38.78 39.31 43.64 43.17 43.03 42.71 43.10 43.97 44.90 45.14 45.12 44.86 44.30 43.17 42.86 42.31 41.35 40.86 40.42 40.35 40.31
45.64 45.93 44.59 45.48 44.84 44.72 44.45 44.28 43.28 42.68 39.83 41.19 40.81 39.30 37.71 38.29 37.21 36.09 38.32 37.45 38.23 41.37 42.17 42.09 41.76 42.07 42.58 43.03 43.15 43.39 43.34 42.58 41.77 40.90 40.49 40.00 40.10 40.05
44.83 44.85 44.41 45.10 43.92 43.69 43.19 42.19 42.08 42.40 40.68 38.65 39.68 37.99 36.84 35.71 35.98 36.71 39.32 39.69 36.72 40.10 40.88 41.49 41.83 41.14 41.02 40.83 41.19 41.49 40.99 41.48 41.32 40.58 39.71 39.09 39.06 39.17
44.64 44.39 43.81 43.49 42.22 42.49 41.94 41.23 41.28 41.72 40.20 38.47 38.50 38.42 36.08 36.43 36.10 35.54 35.02 36.46 37.52 40.55 40.17 39.83 40.29 41.14 41.19 40.66 40.32 40.38 40.30 40.44 39.58 39.12 38.93 38.67 37.88 37.85
43.51 43.46 43.23 42.89 42.13 41.75 41.04 40.48 40.44 38.71 35.98 34.69 36.60 36.16 34.60 35.19 33.06 32.48 33.99 34.76 34.20 37.38 38.70 38.26 38.87 39.66 40.41 40.63 40.09 40.23 40.23 39.52 38.28 38.76 38.26 37.41 37.09 37.73
42.25 42.59 42.77 42.76 41.81 39.94 40.64 39.04 37.43 36.27 35.72 34.95 34.35 33.63 33.24 33.56 29.32 30.91 31.19 32.58 33.39 31.30 33.10 34.24 34.20 34.95 36.11 39.15 40.12 39.49 37.82 37.69 38.12 38.70 38.64 37.73 37.17 37.25
40.95 41.46 38.42 36.81 35.70 34.85 34.46 33.91 31.97 28.04 26.27 25.94 26.03 25.69 26.31 27.74 27.96 28.42 29.31 28.91 27.35 31.92 30.20 31.32 30.66 30.85 31.41 32.04 36.62 37.57 37.80 37.80 38.37 38.37 38.13 37.73 36.34 35.80
38.47 36.65 34.02 32.62 30.69 28.67 28.94 28.40 27.98 28.93 27.91 25.86 23.73 24.42 24.14 25.28 25.63 25.87 25.79 25.79 25.25 27.84 29.62 28.46 29.30 29.91 32.60 34.14 36.90 37.00 36.25 36.57 36.38 36.50 36.68 36.04 35.70 35.47
31.58 31.16 29.31 27.66 28.67 27.31 25.62 24.96 25.73 26.16 26.85 26.59 24.11 24.13 24.54 25.79 25.74 26.91 26.60 27.54 28.64 29.12 30.33 25.78 29.62 29.99 32.25 32.82 35.36 36.18 35.73 35.70 36.07 36.44 35.72 35.61 35.18 34.62
27.85 27.04 26.75 26.57 28.68 29.00 26.25 25.64 25.43 26.60 29.43 29.62 29.75 30.41 30.83 31.22 30.73 28.55 26.29 25.77 24.70 25.31 26.43 27.00 28.73 28.86 25.29 28.01 28.88 34.87 35.25 35.51 35.86 34.99 34.29 34.19 34.42 33.74
25.84 26.15 28.35 26.82 27.47 28.27 26.16 25.39 24.46 24.22 23.51 23.69 24.05 25.77 27.43 28.11 28.99 27.62 26.35 23.39 23.57 23.50 26.68 24.80 26.77 28.10 26.15 26.17 27.71 28.28 31.09 34.49 33.51 32.53 32.21 32.27 32.23 28.32
24.17 24.13 24.40 26.31 27.66 28.57 27.62 25.11 23.78 23.15 22.32 21.47 21.74 22.08 22.90 22.99 23.05 23.51 23.91 22.93 21.29 21.52 27.03 29.03 26.40 28.29 27.74 25.51 25.95 26.39 25.87 25.13 24.40 25.57 29.79 30.48 30.72 30.28
24.77 24.45 24.61 26.41 27.48 27.27 24.83 24.73 23.83 22.54 19.91 18.70 18.67 18.92 19.03 19.21 20.18 20.93 21.32 22.62 24.12 23.37 26.07 29.62 28.93 28.32 26.33 23.28 21.25 23.47 23.23 21.99 21.68 22.07 22.49 26.58 29.88 30.79
24.70 24.62 25.05 25.90 25.75 24.66 23.46 22.96 22.03 19.92 17.75 15.58 16.18 16.18 17.41 18.41 19.61 19.93 20.89 21.85 22.18 22.95 25.84 30.54 31.05 29.66 27.42 23.98 21.76 20.92 22.12 22.71 22.29 21.10 20.28 21.13 21.07 22.57
23.84 24.11 23.70 24.27 22.79 22.23 21.99 21.12 19.79 19.05 17.13 16.19 15.33 16.17 16.95 15.94 16.06 17.74 17.00 17.67 17.67 18.66 24.96 31.73 32.06 30.68 26.29 25.35 23.91 22.18 21.61 19.66 21.82 21.46 20.28 18.05 19.74 18.47
22.69 22.44 20.26 19.22 18.30 18.60 18.71 18.23 17.43 16.51 15.27 15.07 14.18 13.79 13.39 13.12 13.74 15.72 16.02 15.53 15.33 17.04 21.35 28.78 31.04 30.29 29.03 26.61 22.39 22.75 21.74 21.13 22.90 20.62 22.77 19.25 18.85 19.66
21.69 18.40 15.26 13.92 15.47 16.35 15.53 14.98 14.99 14.19 13.59 13.16 12.22 12.48 10.40 10.57 11.38 12.55 14.24 13.47 14.27 14.81 21.79 27.66 27.35 26.52 26.74 27.02 27.62 23.42 20.69 21.85 22.79 24.38 23.46 20.22 16.44 16.56
18.52 16.27 13.14 12.89 14.17 15.10 14.21 13.43 12.11 12.84 12.58 10.54 9.91 10.11 9.06 10.37 8.72 9.40 11.76 12.59 11.69 14.70 17.03 27.20 26.70 25.73 22.32 19.80 24.29 29.36 21.49 22.06 21.92 19.85 21.30 18.62 14.32 19.64
18.56 16.01 14.16 13.70 13.62 12.96 12.30 11.23 11.11 10.11 7.98 7.80 7.27 6.53 5.67 7.24 5.45 6.69 9.53 9.57 10.73 12.42 15.33 26.55 26.17 25.84 21.41 18.75 20.65 19.01 28.83 19.94 20.34 15.28 16.35 18.25 22.07 26.29
16.02 15.02 15.05 13.89 12.28 11.62 10.37 7.69 4.69 3.04 2.15 -0.91 -0.51 0.26 1.08 2.84 3.33 5.06 7.66 8.55 10.08 12.40 13.14 23.96 26.98 26.49 25.19 24.09 17.30 16.81 16.78 27.60 24.76 20.58 18.59 15.21 16.83 18.61
14.17 14.10 13.91 12.47 10.54 9.79 6.97 3.33 -0.25 -3.16 -1.90 -0.84 -0.11 -4.57 -4.57 1.41 3.09 4.17 5.79 6.05 9.52 11.65 13.76 16.93 26.91 27.74 23.95 23.11 20.57 12.05 15.12 17.22 23.44 28.44 26.91 25.23 18.08 13.19
12.43 12.15 10.26 8.34 8.21 7.58 7.67 1.66 -1.20 -6.20 -1.11 1.87 1.66 2.62 -0.69 1.43 4.29 5.67 4.60 6.69 9.41 10.85 12.61 15.12 23.28 26.30 24.30 24.16 21.32 16.64 16.28 13.42 17.51 18.52 18.28 27.66 28.89 28.58

GFSNE_sfc_wetblb_066.txt.gz
Wetbulb
53.52 52.93 51.75 50.86 50.64 49.47 48.26 47.39 46.15 40.86 40.96 43.02 42.66 43.14 43.56 42.05 42.09 42.37 42.81 44.16 44.49 44.81 44.97 45.82 47.18 48.35 48.38 48.48 48.12 48.10 47.60 47.16 46.61 45.68 45.09 43.98 43.25 42.77
52.40 50.56 49.85 48.77 48.45 47.58 46.90 46.06 45.14 43.37 39.87 42.45 41.43 42.04 42.30 41.87 42.65 41.21 40.26 42.47 43.00 42.88 43.05 43.90 44.41 45.44 46.17 46.76 46.82 46.62 46.62 46.08 45.99 44.99 44.60 44.01 43.31 42.77
50.15 49.26 48.18 47.15 46.46 45.55 45.12 44.95 43.94 43.11 40.14 41.64 42.23 41.51 40.75 40.57 40.62 40.89 39.64 39.08 39.47 41.31 41.94 42.26 42.68 42.78 43.42 43.82 43.98 44.61 44.51 45.20 44.76 44.39 43.77 43.60 42.84 42.55
47.06 46.97 46.03 46.20 44.90 44.49 44.00 43.22 42.60 42.81 41.05 38.87 40.36 39.95 38.92 39.11 38.46 37.22 39.46 40.15 38.72 39.82 41.03 41.40 41.61 41.68 41.81 41.65 41.64 42.00 42.42 42.90 43.17 43.43 43.15 42.07 41.98 41.36
46.52 45.87 45.24 44.83 43.32 43.39 42.87 42.02 41.61 41.89 40.67 38.81 38.34 38.79 38.12 37.92 37.27 36.72 36.70 37.50 37.93 40.43 40.43 40.12 40.42 40.83 40.86 40.92 41.24 41.37 41.41 41.48 41.35 41.51 40.98 40.47 39.90 37.99
45.33 45.07 44.58 44.09 43.11 42.38 41.69 40.96 40.72 39.04 37.24 37.05 36.44 36.10 36.52 37.10 35.17 33.14 32.58 34.30 33.89 36.52 37.76 37.74 38.46 39.15 39.61 39.77 40.02 40.56 41.06 41.24 41.13 40.62 40.05 38.24 35.94 36.63
43.46 43.49 43.33 43.18 41.59 41.04 41.01 39.22 37.93 36.52 35.91 34.70 33.57 31.56 30.30 30.29 29.27 30.75 28.50 28.58 29.41 31.15 31.65 33.97 34.81 35.25 35.64 36.82 37.43 38.65 39.74 40.58 40.60 40.28 38.08 37.16 36.49 37.60
41.35 39.45 38.39 37.03 35.90 35.30 34.85 33.56 32.96 29.62 27.88 27.01 27.19 25.08 24.95 27.83 27.69 26.21 25.90 25.54 24.12 30.46 28.64 28.09 30.67 30.00 31.62 33.28 35.64 36.14 37.43 39.50 38.97 38.57 38.71 38.75 38.06 37.35
37.99 35.32 33.88 33.16 31.64 29.83 29.51 29.31 29.41 29.68 27.14 26.60 24.12 24.83 24.71 25.60 25.63 24.69 25.33 25.03 24.67 27.77 28.55 26.41 30.16 28.80 31.34 32.55 35.22 36.34 36.87 38.04 38.32 38.26 38.38 37.77 37.08 36.30
34.53 33.27 30.62 29.13 29.04 27.71 25.94 26.39 26.59 27.42 27.92 27.71 25.93 26.01 26.66 27.19 27.49 28.19 27.19 26.91 27.41 28.34 30.00 24.77 28.81 27.53 30.27 32.53 34.31 35.70 36.67 37.13 37.08 37.24 37.15 36.34 35.99 34.96
29.71 29.76 29.05 28.06 29.27 29.37 26.81 26.39 25.92 26.72 27.32 27.24 27.01 27.36 27.84 28.49 28.93 27.10 24.43 23.46 21.39 23.66 27.28 26.18 26.67 27.30 29.69 30.35 32.25 33.31 34.08 35.80 35.43 36.19 36.08 36.16 35.04 34.52
27.69 27.88 28.11 26.88 28.54 28.89 26.75 25.73 23.41 23.20 22.84 22.65 23.19 24.09 25.14 25.45 25.99 24.82 23.43 20.19 20.15 20.09 26.53 23.52 24.42 26.08 25.01 30.30 28.60 29.34 30.82 33.89 34.98 35.89 34.65 33.28 33.28 32.56
24.06 23.52 24.91 27.87 28.95 28.83 26.61 25.06 23.70 22.96 21.75 21.12 21.08 21.67 22.53 22.63 22.37 22.59 22.68 20.97 19.08 19.10 23.91 23.98 22.49 22.61 25.59 26.87 29.01 28.47 30.28 32.06 31.80 32.18 32.33 31.53 31.44 31.12
23.94 23.65 25.61 28.04 28.53 26.33 24.93 24.64 23.18 21.72 20.56 19.14 18.41 18.53 18.32 18.81 19.73 20.25 20.93 21.75 22.37 21.34 22.96 23.71 21.06 21.27 22.90 25.45 24.77 27.37 27.40 27.30 28.14 27.88 28.33 27.96 29.11 30.48
24.77 25.80 26.81 27.26 25.67 24.19 24.06 22.91 21.56 19.54 17.98 16.54 16.15 16.06 16.95 18.09 18.40 18.66 19.83 19.98 20.89 21.62 22.80 23.28 22.09 22.35 24.67 27.15 25.91 25.01 25.07 26.20 26.40 27.74 27.18 27.43 27.87 28.53
24.49 24.66 24.71 23.97 22.79 22.17 21.97 21.23 19.90 18.59 16.61 15.70 14.99 15.63 16.53 15.83 14.57 16.20 15.47 16.59 16.10 17.29 21.63 23.06 25.00 25.78 25.74 28.79 27.09 25.39 25.67 25.62 26.15 26.01 26.29 26.15 26.61 27.41
23.44 22.80 20.90 19.90 18.98 19.24 19.01 18.22 17.58 16.81 15.25 14.92 13.75 12.73 13.26 12.86 12.16 14.24 13.49 13.73 13.19 13.79 15.52 19.54 21.67 29.61 31.31 29.27 26.14 26.62 25.76 25.37 26.40 26.01 25.75 25.54 26.77 28.00
22.04 19.08 16.33 16.12 16.44 16.89 16.31 15.70 15.64 14.57 14.33 13.25 11.95 11.27 11.11 10.11 10.17 11.27 11.50 11.23 11.55 12.78 13.70 16.21 17.82 25.58 27.14 28.18 29.85 26.54 26.07 25.90 26.15 26.41 26.21 24.54 24.88 27.19
19.14 16.98 14.81 14.30 14.96 15.82 15.11 14.40 13.05 13.32 13.60 11.21 10.04 9.27 9.92 9.12 8.79 8.26 8.30 8.81 9.41 11.61 13.16 15.16 17.91 22.39 23.44 22.15 26.99 30.63 26.84 24.96 25.56 25.14 26.03 24.81 24.56 26.77
18.39 15.92 14.59 14.52 14.70 13.87 13.29 12.27 11.52 11.37 10.07 8.54 7.81 7.39 6.73 6.64 6.14 5.50 5.86 5.45 7.53 9.27 10.83 14.59 16.66 24.68 25.42 23.72 24.30 25.72 29.51 25.84 25.33 24.71 24.00 24.18 25.84 26.23
17.44 16.58 16.02 15.55 14.01 13.20 12.12 10.34 8.84 7.89 6.99 5.19 3.73 3.57 2.94 3.79 3.32 3.97 4.31 3.68 5.20 7.24 9.39 11.66 15.94 19.54 20.52 26.32 23.85 22.55 24.50 27.39 26.91 25.65 23.19 23.42 23.83 24.10
15.84 15.47 15.49 13.86 11.92 10.94 9.78 7.87 6.12 5.86 4.86 3.96 3.51 1.27 -0.58 0.33 2.41 2.63 3.46 3.98 5.23 6.50 9.10 13.31 16.40 19.56 22.04 24.46 23.15 21.98 22.64 22.31 25.47 28.44 26.72 26.80 25.08 21.94
13.07 12.32 11.11 10.07 9.60 8.61 8.15 6.95 4.27 1.71 1.35 1.02 0.73 2.70 -0.82 -0.42 2.89 4.06 4.79 5.18 5.22 5.91 8.02 11.00 14.64 16.90 22.36 25.62 24.26 22.98 19.90 18.99 22.48 23.36 24.95 27.65 28.04 28.13

GFSNE_sfc_wetblb_069.txt.gz
Wetbulb
59.69 56.37 56.69 57.31 56.79 53.61 52.95 51.46 50.14 43.24 43.53 49.42 48.81 48.44 47.10 48.09 46.22 47.86 47.85 46.04 44.51 44.41 44.74 45.59 46.67 46.87 48.05 48.23 49.32 50.08 50.21 50.22 49.64 48.91 48.34 48.22 48.12 47.70
59.08 55.63 56.67 56.48 54.01 52.71 52.03 50.99 51.07 48.27 44.78 48.38 48.40 47.44 45.69 43.82 45.58 45.47 46.95 42.54 43.13 42.48 42.70 43.18 43.97 44.91 45.68 46.32 46.91 47.58 48.15 48.61 48.34 47.28 47.32 47.24 47.25 47.97
55.59 55.21 54.84 54.56 51.70 49.54 49.30 47.80 46.98 48.25 45.21 44.03 44.74 44.72 45.44 47.99 45.58 46.61 46.71 46.57 46.79 42.16 41.38 41.75 42.10 42.39 43.20 43.66 43.97 44.68 45.36 45.95 46.59 46.93 46.99 46.67 46.72 46.93
53.46 52.71 52.93 50.19 48.73 47.54 47.41 45.41 45.35 44.76 44.76 42.31 43.09 45.53 44.16 43.14 44.34 44.59 44.09 44.04 44.58 42.55 41.11 41.25 41.30 41.23 41.20 41.26 41.58 41.79 42.15 42.63 43.06 43.87 44.50 45.57 45.79 45.67
53.16 50.09 48.85 47.88 46.35 45.26 45.25 43.63 44.27 43.63 43.60 42.23 40.55 41.67 40.64 41.35 42.44 43.07 42.47 42.19 41.42 40.13 39.16 39.55 40.04 40.44 40.47 39.95 40.01 40.17 40.48 40.85 40.72 41.10 41.51 41.71 42.72 43.78
49.73 48.95 47.22 46.11 44.94 44.92 44.17 43.52 43.21 42.04 40.54 38.97 38.45 38.65 39.20 42.53 41.41 38.82 37.43 38.31 36.09 36.32 36.57 35.93 36.83 37.75 38.28 38.04 37.76 37.73 37.96 38.24 38.85 39.55 39.95 40.03 39.86 40.86
46.51 46.35 45.84 45.26 43.08 43.08 43.22 41.86 41.37 40.00 38.44 37.54 37.62 36.64 37.56 37.42 35.35 36.14 32.69 33.89 34.90 35.42 35.55 36.04 36.13 35.84 36.25 35.68 35.92 36.44 36.19 36.17 37.14 37.90 38.71 39.68 39.33 38.18
42.99 41.88 40.97 39.63 38.06 37.28 37.16 36.87 38.69 37.18 35.08 37.27 35.72 34.99 34.62 33.38 33.60 32.28 31.45 30.38 29.76 36.08 33.07 32.48 35.16 34.15 35.09 36.18 34.96 34.97 35.14 35.94 36.59 37.45 39.10 39.73 38.04 36.07
39.37 37.22 35.58 34.45 33.86 32.55 31.32 31.06 30.75 30.07 30.11 33.56 33.85 32.53 31.33 32.93 31.65 30.25 29.91 29.97 29.91 32.77 31.75 29.71 33.17 32.20 35.13 34.69 34.55 34.72 34.97 35.51 35.92 36.74 37.81 38.18 37.29 37.39
36.60 34.95 33.20 31.35 30.94 29.67 28.99 28.50 29.30 30.09 31.37 31.56 33.08 32.89 32.13 32.01 31.73 31.45 31.08 30.43 30.99 31.65 31.81 26.51 31.73 31.08 33.62 34.79 34.34 34.74 34.90 35.10 35.26 35.99 36.99 36.99 36.08 37.28
31.90 31.64 30.97 30.19 30.15 30.86 29.22 28.50 29.67 30.26 28.30 27.36 26.94 26.71 26.88 27.30 28.43 29.91 27.77 26.09 25.47 27.11 29.80 28.56 30.00 29.66 30.11 31.54 34.75 34.69 33.72 34.00 33.66 34.17 36.23 35.75 36.56 35.86
29.57 29.00 29.68 29.14 29.25 29.68 30.46 30.71 28.48 28.07 27.41 27.07 27.26 27.09 26.48 27.58 25.09 27.38 26.73 23.49 23.72 23.80 30.09 26.12 26.81 27.61 25.50 31.10 33.58 34.59 36.17 34.12 33.13 33.81 35.44 36.40 35.84 36.36
26.86 26.68 28.00 29.73 29.89 28.77 29.02 29.36 27.52 26.60 23.79 25.13 25.19 25.46 25.54 25.35 25.51 25.23 24.92 23.81 23.00 23.37 27.09 26.14 24.94 25.31 23.99 24.48 29.52 32.72 34.28 34.23 34.86 35.85 33.24 33.49 32.85 33.21
26.31 28.48 29.70 29.68 28.16 27.07 27.01 25.01 23.56 23.81 24.34 23.74 23.13 22.87 21.90 21.70 22.18 22.62 22.78 23.34 24.67 23.68 25.36 25.36 23.28 23.28 22.32 22.16 23.49 30.47 33.18 34.53 33.75 34.62 34.89 32.14 30.27 30.50
28.02 28.51 28.96 28.18 26.46 25.54 24.68 23.29 22.58 23.32 22.59 21.74 20.74 20.53 20.60 21.11 21.63 21.50 22.14 22.98 23.03 23.42 24.07 24.78 24.45 24.35 23.43 22.50 23.85 27.03 29.82 33.03 34.01 34.10 33.82 33.37 33.49 33.76
27.41 28.60 27.29 26.05 25.44 24.49 23.76 23.09 22.87 22.27 20.96 20.72 20.07 20.28 20.14 19.73 19.03 19.49 18.70 19.67 19.07 20.20 24.24 24.63 25.03 24.58 23.22 24.82 25.88 27.16 31.07 30.14 32.80 32.95 33.44 33.62 33.57 33.59
26.50 25.50 24.37 23.35 22.36 22.40 22.10 21.38 21.39 20.75 19.84 20.06 18.67 17.52 17.03 17.42 17.33 18.07 17.74 17.18 16.02 16.99 18.66 22.16 24.60 25.04 25.57 24.67 27.14 30.04 30.38 30.95 32.79 32.73 31.45 30.73 32.22 33.43
24.33 22.71 21.01 21.20 20.94 20.94 20.59 20.16 19.95 17.94 18.39 16.99 16.33 15.50 14.96 15.49 15.50 15.40 16.40 15.49 14.42 15.69 16.77 19.86 21.37 22.21 25.29 29.19 32.05 30.65 30.24 30.67 31.89 31.91 31.57 29.73 30.08 33.37
22.44 21.19 20.18 20.14 20.24 20.01 19.56 18.36 17.29 16.82 16.09 15.62 14.56 14.28 14.15 14.08 12.97 13.30 13.91 13.57 13.42 14.43 16.57 18.61 19.09 20.05 19.43 19.92 29.80 31.63 30.42 30.08 30.75 30.55 31.22 30.53 29.75 31.32
21.79 20.67 19.80 19.51 19.35 18.34 18.03 16.66 15.77 15.54 14.95 13.99 13.28 12.51 11.91 11.77 11.81 11.83 12.32 11.46 12.45 13.10 13.84 17.12 19.01 19.95 17.84 17.85 19.13 30.02 31.18 31.91 30.77 30.71 30.21 31.71 31.63 27.47
20.24 19.63 19.88 19.40 18.20 17.01 16.55 15.13 14.12 13.24 12.62 11.76 11.49 10.58 10.85 11.00 10.45 10.55 11.21 9.28 9.04 11.55 12.27 14.07 17.68 18.34 19.82 21.87 21.18 26.34 30.55 30.65 32.05 31.44 30.68 29.34 27.89 28.25
18.70 18.18 17.76 16.93 15.97 15.18 14.52 13.58 13.10 12.55 12.10 11.44 10.78 10.32 10.44 10.43 9.42 9.45 10.12 9.88 10.77 11.87 12.46 15.11 17.35 18.56 18.59 18.77 19.98 27.91 29.46 29.84 28.97 28.54 28.74 28.97 29.06 25.20
15.14 15.24 14.87 14.41 13.82 12.95 12.22 11.57 10.29 10.00 9.56 8.73 8.60 8.95 8.88 7.82 8.82 9.90 10.29 10.18 10.47 10.60 11.37 12.05 15.26 16.69 16.69 18.25 19.35 27.10 28.82 27.17 28.27 28.08 29.31 28.53 27.98 27.88

GFSNE_sfc_wetblb_072.txt.gz
Wetbulb
61.75 62.06 61.37 61.90 62.02 59.76 57.46 56.48 52.64 47.53 46.58 52.87 52.07 53.34 50.15 51.37 49.91 51.73 52.32 46.10 44.64 44.32 44.43 44.69 45.49 46.26 46.69 47.11 47.60 47.97 48.27 48.63 49.23 49.78 49.96 49.97 50.06 50.01
61.33 61.50 61.12 62.00 60.49 59.37 58.20 55.58 55.62 51.01 49.25 53.39 50.52 48.80 51.07 48.22 46.38 49.66 51.05 43.82 43.86 42.73 42.72 42.95 43.64 44.22 44.81 45.02 45.37 45.86 46.13 46.55 46.95 47.30 47.85 48.41 48.97 49.03
61.52 60.57 59.80 60.66 56.53 56.00 56.25 55.07 52.45 52.13 48.93 46.63 48.73 47.77 47.30 48.96 48.10 51.26 50.29 49.49 49.65 43.13 42.06 41.74 41.79 42.00 42.42 42.69 42.87 43.18 43.16 43.50 43.76 43.93 44.38 45.27 46.09 47.10
60.20 59.33 57.05 56.04 55.00 54.28 52.79 50.46 49.31 51.11 48.86 45.07 44.72 46.47 46.60 48.88 49.88 48.06 46.15 48.56 48.36 44.42 41.47 40.67 40.61 40.69 40.60 40.50 40.84 41.17 41.21 41.22 40.94 41.04 40.84 41.52 42.28 43.51
58.95 56.18 55.12 54.98 52.78 49.53 49.44 48.47 48.07 47.59 45.68 45.64 44.50 46.78 48.00 44.48 42.87 44.43 45.89 45.79 45.84 42.79 39.65 39.29 39.39 39.53 39.97 39.57 39.10 39.05 39.40 39.05 38.30 38.40 38.47 38.65 39.52 40.45
55.60 55.80 54.96 53.94 52.61 48.75 47.62 46.70 45.17 44.80 44.94 46.35 46.59 41.57 42.40 42.45 43.35 42.69 42.28 43.94 41.65 40.28 39.49 37.13 36.93 37.89 37.79 38.11 38.25 37.46 37.22 37.55 37.79 36.91 36.78 36.68 36.89 38.09
52.85 52.24 52.50 49.98 46.81 46.49 47.17 46.40 45.13 43.28 42.51 44.18 39.96 39.71 39.09 39.13 38.75 42.21 39.24 38.99 39.39 40.09 39.20 39.36 39.54 39.55 39.58 38.78 38.22 37.67 37.29 36.21 36.01 35.77 36.37 36.74 36.76 37.56
48.94 46.91 46.37 44.95 43.09 40.47 40.59 40.38 42.49 41.32 40.42 39.20 38.39 37.28 39.05 38.99 38.92 37.72 36.82 35.17 33.91 41.04 37.85 36.83 38.48 37.21 38.80 39.21 37.39 35.86 35.64 35.84 35.83 35.47 36.32 36.63 36.85 37.02
45.34 42.40 39.39 38.00 37.88 35.76 33.50 32.72 32.13 32.47 33.34 39.59 37.76 37.16 36.13 36.85 37.11 35.55 35.04 34.67 34.50 37.26 36.31 33.48 37.25 36.21 38.59 37.49 36.55 36.07 35.65 35.51 35.40 35.49 35.87 35.81 35.94 37.13
41.56 39.26 35.53 34.17 33.34 32.72 30.93 30.14 30.06 30.75 32.36 33.23 34.57 34.90 34.89 37.04 35.99 35.43 35.11 34.42 34.71 35.47 36.12 30.62 35.81 34.65 36.89 37.18 35.29 35.31 34.87 35.03 35.32 35.54 35.35 35.29 35.50 36.12
35.27 34.77 33.72 31.76 32.35 33.34 30.48 29.87 29.14 28.56 28.96 28.70 28.37 28.18 28.08 27.78 29.13 33.29 30.88 30.51 29.38 31.52 34.68 31.83 33.62 32.97 33.38 33.97 36.89 35.69 35.40 35.18 35.21 35.21 34.62 34.57 35.10 35.81
31.90 31.97 32.39 32.03 31.67 31.70 30.84 29.81 28.84 28.16 28.77 28.60 29.74 27.24 27.78 29.41 25.91 29.28 30.44 27.76 28.37 28.43 33.79 29.43 30.28 30.42 28.38 33.35 34.16 34.75 36.74 34.86 34.95 35.67 35.53 35.37 36.33 38.31
28.37 28.30 29.52 30.21 30.23 31.14 31.65 31.93 30.22 30.80 26.91 30.75 30.26 30.83 30.84 30.69 30.70 30.88 30.05 28.52 27.24 27.51 31.08 29.38 28.10 27.69 27.46 28.09 31.18 33.13 34.26 35.96 36.91 36.83 34.23 34.29 35.18 33.49
27.56 28.67 30.03 29.73 28.92 28.70 27.43 26.20 25.94 27.98 29.11 28.01 28.31 28.35 28.66 28.15 28.87 28.89 28.51 27.97 28.46 27.04 28.46 27.70 25.29 25.80 25.50 25.47 25.82 30.82 33.13 35.40 36.43 35.45 36.28 34.58 31.85 31.64
29.62 29.92 29.27 28.28 27.16 26.28 24.98 24.20 25.68 26.99 27.22 27.40 26.41 27.02 27.14 27.00 26.32 25.83 26.56 26.58 26.85 26.97 26.29 26.41 25.58 25.80 26.41 25.28 25.23 27.02 28.18 31.97 35.16 35.42 36.23 34.85 34.59 35.73
29.43 28.71 27.98 27.88 27.98 26.00 24.56 25.87 26.88 25.64 25.03 25.44 24.31 25.22 24.98 24.54 23.63 24.71 23.18 23.57 22.83 23.65 26.44 27.24 26.42 25.48 24.58 25.79 25.76 25.92 28.58 27.79 34.58 34.85 35.06 34.74 35.29 35.86
28.70 27.33 26.59 26.10 26.07 26.76 25.77 24.97 25.75 25.13 24.41 24.75 22.80 22.14 22.08 22.22 22.19 23.39 21.53 21.37 20.46 20.95 22.40 24.83 26.52 27.04 26.87 26.21 25.61 26.32 28.07 29.30 33.50 34.68 33.39 32.38 34.12 35.14
27.98 27.50 27.18 26.25 25.82 25.32 24.97 24.05 23.88 20.80 22.35 21.59 21.02 20.48 19.64 19.60 20.18 21.12 20.79 20.36 19.65 20.52 21.07 22.71 23.67 23.66 24.57 27.46 29.70 29.09 29.92 31.95 33.39 33.95 33.35 30.96 31.80 34.88
27.11 26.23 25.70 25.47 24.65 23.94 23.89 22.70 21.23 20.92 19.52 20.46 19.73 19.04 18.73 18.88 17.96 18.61 18.94 19.15 18.89 19.81 20.93 22.14 21.53 20.92 19.40 19.42 26.80 30.24 30.73 32.47 33.17 33.06 33.08 32.25 31.57 33.00
24.34 23.64 22.59 22.47 21.85 21.21 21.07 20.75 20.48 20.20 19.29 18.46 17.91 17.41 16.97 16.62 16.86 17.03 18.05 17.06 17.42 17.92 17.72 19.86 20.84 21.11 19.65 18.58 18.87 23.72 25.88 25.49 32.27 32.41 31.62 33.31 33.51 28.45
23.29 22.19 22.31 21.59 20.89 20.38 19.77 19.20 18.36 17.62 16.34 16.12 16.32 16.04 16.15 15.75 15.10 15.72 16.02 14.09 14.16 15.55 15.99 17.72 20.51 20.43 21.13 21.69 19.50 22.58 27.69 29.87 28.85 33.31 32.10 30.77 30.09 30.13
21.64 20.71 20.07 19.48 18.84 18.17 18.02 17.50 16.98 16.73 16.22 15.59 15.20 14.68 14.67 14.59 13.86 13.82 14.19 13.93 14.46 15.09 15.52 18.11 19.91 20.38 19.82 18.33 18.10 20.75 23.33 27.07 31.53 31.06 29.01 28.97 31.26 26.86
18.36 18.19 17.74 16.96 16.63 16.40 15.79 15.40 14.49 14.46 13.81 13.17 12.92 13.02 13.04 12.14 12.89 13.15 13.32 13.34 13.30 13.28 13.93 14.37 16.76 18.41 18.15 18.28 18.34 19.15 21.08 22.33 30.20 29.73 30.77 28.66 28.36 28.29

GFSNE_sfc_wetblb_075.txt.gz
Wetbulb
59.63 61.84 60.85 61.33 61.44 61.47 61.18 59.34 56.97 52.21 51.42 55.04 53.87 55.54 57.39 57.69 52.41 53.44 52.91 47.03 46.41 45.61 45.37 46.19 47.19 47.06 47.13 46.99 47.08 47.46 47.90 48.09 48.49 48.78 49.14 49.42 49.79 50.06
60.86 61.43 61.70 61.91 61.63 62.03 61.48 59.88 58.30 54.18 51.46 55.08 54.81 54.78 55.58 54.19 50.06 51.87 52.73 47.29 44.89 43.44 43.50 43.44 44.02 44.65 45.09 45.18 45.08 45.12 45.43 45.76 45.91 46.24 46.54 46.80 47.37 47.69
60.60 60.83 60.76 61.77 61.12 61.42 60.19 59.01 57.80 54.85 51.39 51.41 49.85 51.84 50.01 50.15 48.16 50.21 51.30 50.99 50.41 43.66 43.23 42.67 42.05 41.76 42.10 42.48 42.50 42.44 42.25 42.35 42.59 42.41 42.43 42.62 43.18 43.48
60.52 60.88 60.16 60.25 59.93 61.05 58.48 55.72 54.91 53.20 51.80 50.35 45.93 47.37 46.54 48.68 48.11 47.69 50.25 50.97 50.77 45.88 43.75 42.18 40.90 40.24 39.85 40.02 39.88 40.44 40.74 39.85 39.35 39.44 39.06 39.08 39.77 40.22
60.75 60.53 60.07 60.39 59.01 57.41 55.40 53.88 53.67 52.00 51.28 49.62 45.23 45.98 46.09 46.62 47.30 45.99 45.68 46.70 47.37 45.32 41.05 40.16 39.92 39.75 39.38 39.29 39.39 39.03 38.75 38.87 38.29 38.03 37.97 37.94 37.45 37.53
60.32 59.96 60.17 58.64 56.56 55.60 53.11 52.47 51.31 48.98 47.37 46.63 45.36 44.26 44.22 44.84 42.95 43.56 43.19 44.59 43.44 45.15 42.35 38.50 39.10 39.84 39.31 38.44 38.15 38.45 38.60 38.59 38.28 38.11 37.35 35.98 36.17 36.79
57.60 57.36 57.00 54.69 50.15 52.53 53.35 51.55 49.17 47.94 45.57 45.02 42.44 42.48 41.90 41.04 41.02 42.46 40.25 41.35 42.88 42.50 40.78 41.41 40.83 41.11 40.90 38.78 38.67 39.40 39.20 38.51 37.44 36.91 36.66 36.32 35.83 36.56
55.16 56.31 55.47 48.62 48.07 43.71 43.89 44.18 46.63 46.15 44.78 43.54 41.23 39.86 39.96 40.54 40.12 39.87 38.82 37.01 34.87 42.35 40.15 38.45 40.46 38.92 39.46 40.64 38.72 36.91 36.39 36.31 36.58 36.61 36.66 36.31 36.18 36.05
56.26 53.43 46.79 44.67 44.53 40.97 37.06 35.68 35.22 35.29 36.22 40.83 38.65 37.87 37.76 38.34 38.74 37.47 35.10 36.04 35.46 39.06 38.32 35.93 39.03 36.94 38.89 39.01 37.69 36.90 36.21 36.03 35.89 35.66 35.91 35.72 35.79 35.32
51.12 46.52 41.84 38.81 38.68 36.92 34.92 32.64 32.07 31.86 32.49 34.79 35.41 34.46 33.59 36.18 36.94 36.70 36.80 36.42 36.97 36.77 37.21 32.19 37.03 35.86 38.43 38.81 37.59 36.93 36.43 36.18 36.19 35.94 35.78 35.74 35.48 35.06
37.31 37.71 37.53 35.11 34.97 35.91 33.05 31.96 31.79 29.93 30.98 30.99 30.56 30.15 29.78 29.63 29.56 34.84 32.42 31.54 31.78 32.52 36.03 34.14 34.16 34.04 35.78 35.25 35.89 36.33 35.08 34.93 34.90 35.30 35.59 35.98 36.10 35.45
33.76 33.64 33.94 33.15 32.66 33.29 32.02 30.44 27.35 26.76 27.04 26.39 26.89 27.60 28.33 27.49 26.46 30.24 31.45 29.03 29.21 28.81 33.60 30.92 30.77 30.90 28.09 33.90 34.78 35.07 35.43 34.93 34.81 34.91 35.78 35.86 36.50 36.44
30.02 29.80 30.88 31.73 32.02 32.19 31.55 31.23 29.26 29.37 28.13 29.38 30.06 30.89 30.95 31.82 31.70 30.73 31.10 29.54 27.54 27.48 31.88 29.11 28.00 27.86 27.58 27.63 30.44 32.30 32.96 33.71 36.50 37.17 36.96 35.27 33.99 34.66
28.42 29.06 30.11 30.83 30.18 29.59 27.95 28.49 29.16 29.45 29.26 29.04 28.88 28.44 29.01 29.27 29.98 30.39 30.31 29.68 29.49 27.73 29.13 28.74 25.74 25.39 24.74 24.35 24.51 29.47 31.35 32.76 33.69 34.53 36.37 36.49 33.46 33.72
29.20 29.08 29.65 28.38 27.29 26.13 26.37 26.98 28.32 28.40 27.76 27.15 26.39 27.14 28.33 28.07 27.50 27.43 27.98 28.32 27.92 27.93 27.98 27.76 26.22 25.07 25.32 23.93 24.13 26.04 27.07 29.74 32.19 32.77 34.85 35.78 35.51 35.46
28.14 27.69 27.83 28.27 26.96 25.19 25.78 27.12 26.78 26.04 25.71 26.15 25.86 26.72 26.88 26.06 25.03 26.05 24.95 24.96 23.01 23.79 27.11 28.38 27.82 26.76 24.45 24.80 25.10 24.95 27.61 26.58 30.78 31.54 33.53 35.44 36.06 36.49
27.55 27.58 26.94 26.36 26.33 27.08 25.79 25.39 25.73 25.50 24.83 24.99 24.39 24.09 23.78 23.86 23.51 24.22 23.35 22.71 20.98 20.94 22.77 25.75 27.53 27.55 26.68 25.34 23.83 25.63 26.19 27.64 30.08 31.13 32.10 32.39 34.82 35.55
28.38 27.54 28.47 28.67 27.31 26.62 25.86 24.67 24.78 23.05 23.65 22.81 22.74 21.99 21.21 20.86 20.81 21.67 21.63 20.46 19.90 20.43 21.59 23.06 24.16 23.74 24.30 26.07 27.75 25.52 26.93 28.34 30.41 31.42 32.47 31.75 32.31 35.02
28.87 28.42 27.80 27.40 26.00 25.39 24.65 23.43 22.62 22.21 21.02 21.89 21.29 20.59 20.30 19.52 18.50 18.59 19.05 19.30 19.02 19.48 20.33 22.36 21.29 20.19 17.69 16.97 24.55 28.87 24.88 24.55 24.93 25.24 26.72 33.04 32.12 33.21
26.18 25.00 24.70 24.43 23.60 22.89 22.62 22.02 21.91 21.57 20.77 19.60 18.95 18.98 18.46 17.91 16.83 16.73 17.29 17.12 17.02 17.17 17.29 19.01 19.41 20.55 18.04 16.83 17.03 20.98 23.90 22.26 23.26 24.26 24.98 32.18 33.69 30.22
23.94 23.50 24.15 22.79 21.77 21.82 21.33 20.82 19.83 19.54 18.57 18.27 18.48 17.77 17.31 16.13 15.20 15.38 15.74 15.06 14.79 15.17 14.65 16.00 19.04 20.77 21.71 21.82 17.98 19.29 24.03 27.27 27.01 25.26 26.41 25.52 30.37 29.67
22.23 20.87 20.71 20.30 19.70 19.68 19.19 19.02 18.36 17.77 17.33 16.71 15.94 15.69 15.58 15.14 13.80 13.40 13.88 13.39 13.61 13.97 14.19 16.86 18.49 18.84 18.39 17.12 16.33 17.74 21.11 24.61 26.01 26.71 27.45 27.89 30.95 27.79
18.89 18.88 18.73 18.06 18.05 17.61 17.10 16.64 15.52 15.17 14.88 14.37 13.93 13.98 13.70 12.30 13.07 13.35 13.39 13.37 13.22 12.96 13.46 13.72 15.48 16.96 15.80 16.32 16.51 17.38 18.34 20.45 22.13 22.73 25.78 29.09 29.55 29.43

GFSNE_sfc_wetblb_078.txt.gz
Wetbulb
56.86 56.62 57.02 57.65 57.17 57.76 56.51 55.41 52.75 48.52 49.34 50.78 52.47 54.87 54.95 55.27 53.27 52.73 51.08 47.19 46.63 46.88 46.65 47.25 48.40 49.17 49.04 48.98 48.71 48.39 48.38 48.49 48.79 48.86 49.16 49.35 49.51 49.77
57.39 57.12 56.89 56.89 57.52 57.78 57.25 56.28 55.96 53.93 51.06 52.09 52.21 52.97 54.19 54.91 51.12 50.47 50.47 47.34 45.60 45.04 44.59 45.16 45.69 46.38 46.45 46.39 46.53 46.38 46.34 46.50 46.36 46.27 46.19 46.43 46.62 46.78
55.98 55.76 56.59 57.02 57.48 57.91 57.27 57.12 56.10 55.45 53.11 53.68 52.07 52.00 50.30 50.44 48.32 48.80 48.00 46.73 44.47 43.57 43.66 43.46 43.08 43.26 43.30 43.29 43.31 43.58 43.35 43.12 42.72 42.56 42.36 42.28 42.41 42.64
55.80 55.67 55.87 57.12 57.56 57.42 57.15 56.39 56.64 56.42 54.74 52.51 50.61 48.99 49.20 50.26 47.30 46.22 49.09 49.96 48.64 45.03 44.07 43.19 42.67 41.57 41.05 40.72 40.45 40.48 40.31 40.34 40.00 39.07 38.73 38.61 39.10 39.73
56.41 56.22 56.28 56.35 55.84 56.54 56.54 56.19 56.66 54.25 53.89 53.43 51.57 48.16 48.01 47.35 46.14 46.05 46.26 46.26 47.00 45.79 44.13 42.21 41.58 41.33 40.80 39.27 39.00 39.35 39.55 39.43 38.95 38.81 38.26 37.78 37.86 37.95
56.95 56.85 56.87 56.49 56.08 56.42 56.03 56.22 54.39 53.58 53.18 52.48 51.70 47.12 45.67 45.61 46.35 44.35 42.20 43.72 43.90 46.15 44.23 41.61 41.07 40.74 39.64 39.21 38.77 38.81 38.97 39.17 39.17 38.81 38.00 37.40 36.91 36.87
57.17 57.00 57.10 55.86 51.09 53.64 56.14 54.67 54.07 52.57 51.98 50.11 48.92 43.46 42.58 40.47 42.24 43.16 41.81 40.95 41.69 42.19 38.61 38.03 35.55 34.73 35.40 39.11 38.94 39.50 39.20 39.34 39.51 39.18 38.30 37.32 36.70 36.65
55.90 56.00 54.07 49.28 48.44 45.30 46.39 46.85 50.88 51.95 50.63 48.83 47.59 43.96 43.82 43.34 42.30 39.27 37.78 35.73 32.97 39.52 36.04 34.26 36.28 33.86 35.82 35.46 38.37 38.10 38.20 37.87 37.83 37.92 37.40 37.14 36.70 36.26
53.84 54.24 51.34 49.74 47.21 50.04 37.23 37.93 35.97 35.47 33.84 46.16 44.86 38.45 36.36 38.11 37.10 33.91 32.64 32.31 32.01 35.73 34.75 30.21 32.60 30.36 34.93 37.29 37.97 37.74 36.61 36.15 36.40 36.53 36.51 36.17 35.88 35.51
52.49 52.93 52.76 45.74 41.58 38.57 35.05 33.35 33.23 33.20 33.94 35.41 33.98 32.77 34.03 34.83 34.80 34.28 33.20 33.47 34.32 34.65 34.38 26.77 30.11 30.20 33.41 34.19 37.07 37.86 37.04 35.98 35.02 35.10 35.55 35.67 35.60 35.31
38.43 39.16 38.75 36.79 36.89 37.50 34.85 32.41 29.51 29.30 32.87 33.80 33.43 32.89 31.89 31.44 31.98 33.16 30.33 30.18 29.85 29.07 31.88 29.47 29.60 29.12 30.08 29.04 31.15 35.64 35.79 35.13 35.56 35.74 35.57 35.71 35.71 35.69
33.05 33.82 34.18 34.30 34.52 34.89 33.86 31.57 28.59 27.01 27.42 26.86 27.34 28.91 28.94 28.55 28.04 29.07 28.52 27.92 27.89 26.41 27.79 27.37 26.87 26.51 24.87 28.14 28.42 27.85 28.84 33.22 34.18 34.34 34.57 35.73 36.29 32.91
31.10 30.84 31.79 32.92 33.23 32.82 31.55 29.44 27.86 29.15 29.55 29.32 29.29 29.07 29.89 29.73 28.97 28.51 28.86 27.74 26.43 25.95 28.38 26.56 24.96 24.47 24.11 23.29 25.21 26.43 26.52 28.11 29.31 31.59 33.73 34.54 36.03 34.25
29.47 30.40 31.34 31.84 31.59 31.12 30.14 30.21 29.98 29.25 28.95 28.04 28.36 27.95 27.70 27.54 27.61 27.24 27.23 26.86 27.45 26.32 27.00 26.61 23.79 22.35 21.24 19.94 19.65 24.03 25.30 27.15 27.77 28.26 28.57 31.74 34.53 35.13
30.04 30.33 30.56 29.74 29.07 28.88 29.53 29.54 28.90 28.59 27.91 26.82 25.94 26.40 25.55 25.24 25.95 26.27 26.90 26.91 26.85 26.80 27.33 26.07 24.03 23.80 22.03 19.84 19.27 21.49 22.14 24.21 26.35 26.27 27.23 29.22 29.93 33.17
27.91 27.36 26.09 25.82 26.45 27.15 26.69 26.30 25.79 25.74 26.14 25.33 24.83 25.14 25.28 24.86 24.24 24.99 23.90 23.98 22.21 21.75 24.95 25.34 24.87 23.91 21.35 21.85 21.50 20.61 22.26 20.86 24.37 25.31 26.34 27.27 28.40 32.81
26.93 26.03 24.94 25.69 25.62 25.06 25.34 25.66 25.92 26.05 24.34 24.11 23.46 23.05 22.82 22.66 22.15 21.82 21.18 20.42 17.59 18.80 19.98 22.84 24.82 24.80 24.09 23.12 20.06 20.95 21.18 21.82 23.73 24.48 26.49 25.87 27.72 30.20
27.43 26.33 26.44 25.84 25.18 24.97 24.24 23.88 23.46 21.81 21.71 21.97 21.40 21.06 19.94 19.42 18.69 18.93 18.80 16.92 17.27 18.19 18.71 20.24 20.94 20.28 20.29 21.64 24.73 20.61 21.47 22.31 22.73 22.41 22.50 21.89 22.87 26.84
26.67 25.91 24.33 23.78 22.99 22.74 22.24 21.84 20.02 20.25 21.88 20.20 19.25 18.33 17.58 17.86 17.27 16.76 17.08 16.88 16.00 16.87 17.28 17.90 16.83 15.69 12.43 10.67 19.41 23.64 17.75 18.08 18.21 17.85 19.85 20.94 21.73 24.41
24.42 22.97 22.00 22.16 22.11 21.23 20.97 20.11 19.45 19.42 18.07 17.12 16.03 14.95 13.08 15.14 13.99 14.09 14.09 10.90 12.96 13.66 13.73 15.45 15.69 16.49 13.86 11.20 12.17 16.06 22.95 17.80 17.48 17.36 19.19 22.92 24.50 27.71
21.15 20.59 20.55 20.35 20.17 19.42 19.10 18.39 17.97 16.35 14.79 14.11 14.60 13.67 9.10 9.81 8.51 9.70 8.90 8.56 9.15 12.23 11.50 12.30 14.85 17.41 17.07 16.65 10.99 12.14 16.93 22.97 22.45 20.07 21.31 19.96 18.88 21.63
19.06 18.20 18.16 18.09 17.66 17.52 17.11 16.02 15.25 14.53 13.81 12.88 9.05 6.56 5.69 7.07 6.16 6.05 5.74 6.32 10.37 10.72 11.34 13.36 15.57 15.77 14.46 13.66 11.54 11.04 13.83 16.93 21.15 22.99 25.19 24.62 21.46 18.47
16.54 17.31 16.40 15.46 15.23 14.41 13.94 13.03 11.73 10.33 11.09 10.45 9.22 9.47 4.40 4.25 7.68 6.77 6.50 8.45 10.23 9.78 10.24 10.66 12.46 13.17 12.18 12.57 11.82 11.55 12.52 13.71 16.88 17.80 19.51 24.59 26.04 28.27

GFSNE_sfc_wetblb_081.txt.gz
Wetbulb
55.89 54.94 55.63 55.90 55.97 56.15 55.70 55.26 52.58 48.94 48.78 50.84 51.93 53.49 53.30 52.63 52.60 52.75 52.39 50.99 48.14 47.54 48.19 49.75 51.12 51.59 51.33 51.13 51.37 51.68 51.43 51.10 50.62 50.11 49.83 49.82 49.95 50.19
56.03 55.55 55.50 55.91 56.03 56.54 56.12 56.25 55.65 53.40 50.32 50.81 52.17 53.49 53.77 54.28 53.63 52.81 52.80 50.75 46.85 46.17 46.23 47.24 47.32 48.31 48.66 48.77 48.88 48.78 48.49 48.09 47.94 47.85 47.74 47.51 47.55 47.41
56.07 55.93 55.65 56.13 55.76 56.04 56.24 56.06 55.57 55.26 52.72 53.87 52.85 52.32 50.45 53.35 54.00 53.09 52.03 50.39 47.42 44.83 44.47 44.87 44.87 45.22 45.47 45.63 45.60 45.93 46.07 45.61 45.11 44.59 44.28 44.17 44.03 43.68
55.24 55.28 55.23 55.86 55.12 55.63 55.98 55.78 55.63 56.00 54.32 52.71 54.12 48.81 50.15 50.67 51.88 49.19 49.68 49.77 47.88 44.96 43.76 43.84 43.71 43.08 42.79 42.54 42.38 42.05 42.15 42.23 41.34 40.96 40.24 39.69 39.82 40.06
54.92 54.84 54.52 54.64 53.58 54.21 54.90 55.03 55.91 55.62 55.61 54.23 53.10 50.55 51.51 47.66 47.28 46.96 48.00 48.13 48.40 46.78 43.25 43.31 42.63 42.57 42.07 41.27 40.95 40.45 39.88 39.65 39.55 39.48 39.07 38.58 38.13 38.29
54.56 54.89 54.91 54.39 54.14 54.21 54.49 55.11 55.65 55.24 54.98 54.38 53.75 51.75 48.02 46.25 48.66 47.39 43.83 45.66 45.87 47.09 45.65 43.14 42.53 42.17 41.61 40.77 39.52 39.19 39.51 39.50 39.42 39.05 38.47 37.38 37.17 37.84
54.19 54.83 55.22 54.18 50.51 52.60 54.97 55.19 55.16 54.58 54.44 53.01 51.99 50.99 43.66 41.90 44.21 46.15 45.46 44.81 42.24 43.35 42.03 41.42 40.11 39.99 39.55 39.85 38.71 39.78 39.58 39.33 39.63 39.73 39.44 38.41 37.05 37.23
53.34 54.18 54.90 49.52 49.40 45.72 45.72 47.02 51.21 54.35 53.07 52.61 52.22 50.37 48.12 46.47 46.25 44.46 40.51 36.78 35.71 40.18 37.16 36.71 37.26 35.89 36.24 36.87 38.56 38.15 38.61 39.39 39.45 39.56 39.00 38.23 37.66 36.89
54.41 54.39 54.22 53.88 48.40 52.35 40.66 38.44 37.06 37.31 35.24 49.25 51.05 50.72 42.62 40.72 38.18 34.71 33.53 33.46 32.39 35.77 35.27 32.10 34.01 33.70 35.74 37.11 37.58 38.03 37.74 37.08 37.02 37.18 37.20 36.70 36.18 35.61
54.86 54.51 53.46 49.75 47.37 42.72 37.44 34.87 33.23 33.56 34.53 36.74 37.77 35.64 35.97 37.18 37.35 36.17 34.98 33.55 33.56 34.98 34.78 30.13 31.54 30.50 33.12 34.81 37.04 37.81 37.19 36.63 36.46 35.80 35.61 35.75 35.59 35.43
43.32 42.98 49.30 44.95 39.11 39.28 36.03 32.06 31.00 31.06 34.25 34.70 34.48 34.24 34.46 35.07 35.06 34.31 31.59 30.88 29.41 30.14 30.83 30.53 29.99 29.42 29.85 30.08 32.04 35.13 33.56 33.86 34.73 35.20 35.09 34.79 34.43 35.11
34.57 34.77 35.87 37.60 35.97 35.86 34.24 32.01 29.26 28.97 29.32 28.94 28.71 29.62 31.04 31.17 31.20 32.50 31.57 29.46 28.92 26.90 27.28 27.51 26.65 26.42 24.76 27.77 27.38 27.69 28.24 29.83 30.73 31.87 33.08 34.02 35.14 30.50
32.52 31.60 33.13 34.60 34.97 34.46 33.77 32.44 29.36 28.79 28.26 28.93 28.95 28.97 29.25 29.20 29.08 29.20 29.34 28.55 26.82 26.07 26.96 25.96 24.41 24.27 23.90 22.85 24.47 25.47 25.04 25.11 26.16 27.21 29.84 30.75 31.62 32.04
30.60 31.49 32.10 32.75 31.99 31.26 30.48 30.92 30.45 29.64 29.02 27.96 27.42 26.94 25.80 24.92 25.91 26.34 26.69 26.55 26.81 25.63 26.51 26.07 22.63 21.99 19.86 19.41 19.21 22.71 23.05 23.86 23.88 24.61 25.32 28.00 29.80 30.74
30.71 31.19 31.36 31.11 30.44 29.73 30.09 29.80 29.00 28.35 27.43 26.11 24.69 24.03 24.85 25.85 26.36 26.10 26.89 26.59 26.28 26.24 26.12 26.08 24.38 23.70 21.62 20.08 19.40 20.43 20.89 22.59 23.82 23.15 23.45 24.07 24.14 25.64
26.64 27.12 26.57 26.32 25.99 25.98 26.52 27.20 27.19 26.58 25.62 24.30 23.90 24.77 25.41 24.77 23.44 24.22 23.13 23.15 22.45 22.54 25.35 25.82 24.79 24.14 21.48 21.82 21.41 20.01 21.40 18.94 21.89 22.51 23.33 23.98 24.91 25.56
26.67 26.77 25.44 24.77 24.04 24.31 24.67 24.69 24.53 24.24 22.97 23.10 22.66 22.21 22.13 22.05 21.19 21.72 21.16 20.38 18.70 18.53 19.59 22.56 24.03 23.79 22.45 21.89 19.00 19.90 19.70 19.78 20.96 21.89 21.52 19.91 21.40 23.22
26.70 24.80 24.08 23.78 23.10 22.46 21.38 20.47 21.02 21.65 22.18 21.81 21.03 20.58 19.34 18.69 18.43 19.15 19.23 17.89 16.54 17.01 17.06 17.95 17.37 16.10 17.33 19.16 21.78 17.96 18.11 17.28 18.65 19.48 19.82 17.39 17.54 20.48
23.62 22.56 21.85 21.61 21.26 21.51 20.53 19.82 19.38 19.73 20.25 19.05 18.10 17.71 17.90 17.52 16.75 16.04 15.52 14.62 13.88 14.03 14.42 15.28 14.64 13.94 11.43 8.67 14.70 20.72 14.97 16.00 16.32 16.26 17.80 17.87 16.94 19.14
21.71 20.55 19.91 19.90 19.82 19.15 19.13 18.82 18.21 17.46 17.49 17.33 16.03 14.79 13.40 13.93 13.14 12.41 12.29 9.48 10.39 11.72 12.07 14.00 13.43 13.28 10.04 8.06 9.30 13.02 20.02 15.03 15.20 15.06 16.49 18.62 20.65 23.65
18.46 17.91 18.23 18.13 18.16 17.92 17.47 16.72 15.65 14.28 13.37 12.31 10.96 10.43 6.72 8.37 5.47 6.72 6.29 6.31 8.17 10.76 9.61 10.31 12.68 15.49 15.47 14.58 7.34 9.05 13.54 19.23 18.92 15.69 15.96 14.66 14.70 16.60
16.70 16.14 16.04 15.65 15.02 14.43 13.54 13.48 12.77 11.98 11.43 10.71 7.08 5.62 4.50 6.83 5.64 5.27 4.96 4.69 8.54 8.75 9.66 11.35 13.70 13.52 11.47 10.39 7.86 7.55 10.63 13.39 17.45 19.58 21.12 20.54 16.88 13.93
13.35 13.10 12.32 12.14 12.12 11.76 11.71 10.67 9.46 8.61 9.14 8.19 6.20 2.99 -1.99 -0.33 5.08 3.44 1.16 4.85 7.25 7.33 8.19 8.28 9.21 10.46 10.02 10.09 8.78 8.59 9.10 10.03 12.86 13.95 16.82 22.43 23.06 23.89

GFSNE_sfc_wetblb_087.txt.gz
Wetbulb
55.46 54.66 54.01 54.50 54.92 54.85 54.43 53.50 52.00 47.72 47.80 49.82 51.25 53.79 54.77 55.02 53.87 53.44 52.53 51.32 48.63 48.57 49.01 50.15 51.84 53.04 53.57 54.40 55.24 55.98 57.16 57.91 58.36 58.29 58.21 57.92 57.34 56.06
56.08 55.23 54.53 54.96 55.12 55.50 55.18 54.93 53.76 52.02 49.69 51.60 51.34 52.99 54.14 53.78 53.95 53.55 52.37 50.41 48.05 46.52 46.50 47.72 48.70 50.46 51.33 52.04 52.59 53.36 54.31 55.56 56.35 56.69 55.95 55.03 54.24 53.23
56.27 55.81 55.60 56.12 55.58 55.44 55.56 55.30 54.51 54.06 51.56 53.33 54.17 53.16 52.30 53.69 54.16 53.61 53.59 53.07 53.66 46.94 45.79 45.92 45.65 46.24 47.53 48.51 49.21 50.10 51.16 52.46 53.51 52.80 52.30 51.73 51.32 51.01
56.18 55.85 55.40 55.69 55.11 55.53 55.47 54.91 54.38 54.18 52.93 51.63 53.92 53.55 52.11 53.63 54.84 54.25 53.81 54.28 54.57 51.43 47.55 46.44 45.95 45.39 45.18 45.75 46.23 47.09 47.49 47.81 48.11 48.12 48.41 48.51 48.42 48.28
55.26 55.25 54.78 54.47 53.83 54.22 54.37 53.75 53.40 53.63 53.98 52.90 52.45 53.76 53.75 52.37 52.01 52.28 52.77 54.00 54.02 51.73 47.50 45.49 45.06 45.29 45.30 44.65 44.68 44.67 44.85 44.27 43.81 43.58 43.43 43.26 43.88 43.55
54.25 54.40 54.34 54.00 53.75 53.77 53.06 52.86 53.03 52.95 53.22 52.70 52.69 53.07 53.49 53.14 50.02 50.38 49.49 48.85 51.50 51.80 47.93 45.69 44.40 44.27 44.25 43.87 43.37 43.43 43.28 42.91 42.08 40.92 39.86 38.70 38.63 39.30
54.11 53.71 53.49 52.72 49.99 51.35 53.60 53.15 52.79 52.18 52.31 52.12 51.71 52.17 52.18 49.65 49.21 52.27 50.65 51.89 51.20 50.09 48.48 46.37 44.67 44.11 43.86 43.02 43.45 42.66 41.66 40.04 39.23 38.72 38.63 38.56 37.61 37.70
52.68 53.13 53.10 48.20 47.97 43.94 44.59 45.87 50.52 51.86 51.06 51.47 51.28 50.72 51.13 51.71 51.86 51.12 51.40 48.73 45.79 43.81 44.90 40.69 42.07 41.15 42.53 42.86 41.11 38.89 38.35 38.40 38.78 39.22 38.76 38.81 38.60 37.83
53.53 53.46 52.99 52.90 47.98 51.52 45.04 42.45 42.84 42.62 44.79 51.99 50.76 51.09 51.11 52.14 52.95 50.91 50.24 50.35 48.49 38.47 37.53 32.48 35.30 35.35 38.48 38.91 38.66 38.86 38.55 38.30 37.93 37.42 37.78 38.65 38.67 37.99
53.98 53.57 53.20 52.95 52.04 50.33 49.62 49.04 47.00 48.85 46.54 46.57 49.21 51.75 52.86 48.10 48.31 49.92 51.40 40.38 33.81 33.53 35.47 31.73 32.51 31.98 34.91 36.70 37.73 37.52 37.31 37.21 37.05 36.85 36.66 36.17 35.52 34.97
54.67 54.78 54.28 53.22 49.94 45.24 49.45 48.60 47.07 33.67 35.60 36.24 35.44 34.93 34.93 35.70 38.62 38.85 34.83 35.94 30.99 29.55 29.28 31.37 30.45 30.58 31.39 31.62 33.25 35.05 34.28 32.33 32.08 31.83 31.31 30.92 31.15 31.26
53.39 53.72 46.66 51.13 45.96 42.56 48.22 49.30 46.28 35.79 31.82 29.82 29.50 28.92 29.35 29.98 30.04 31.79 34.64 35.89 28.52 25.57 26.13 27.49 27.01 28.22 25.95 28.40 28.18 27.22 27.37 28.69 28.74 28.77 29.28 29.42 29.27 26.51
50.46 47.59 33.94 35.01 35.15 35.72 39.64 48.68 44.39 31.73 29.10 27.75 26.73 27.09 27.64 27.69 27.69 27.93 27.90 28.48 24.18 22.65 27.01 27.27 25.42 25.47 25.44 24.18 24.99 25.98 25.88 25.98 25.91 26.43 26.91 27.40 27.90 27.44
32.84 31.98 32.03 32.89 32.54 32.47 31.93 31.93 30.97 29.17 27.49 26.31 25.60 24.69 24.44 24.31 25.34 26.05 26.23 26.20 26.31 24.75 25.96 26.69 23.95 23.71 22.19 21.09 20.93 24.44 24.92 25.18 25.22 25.16 25.94 26.13 26.41 26.63
30.26 30.34 30.07 29.78 29.18 28.62 29.40 28.87 28.04 26.98 25.54 23.46 21.96 22.28 23.57 24.71 25.24 25.30 25.92 24.98 24.97 25.49 26.30 25.88 24.68 24.17 23.15 21.35 20.49 21.33 21.57 23.42 25.06 24.03 24.32 23.46 22.56 23.32
28.02 27.42 26.83 26.48 25.71 25.83 25.68 26.04 25.80 25.34 24.02 22.48 21.57 21.93 22.20 21.44 21.10 22.56 21.42 21.98 20.96 21.62 22.06 21.94 21.03 21.22 19.42 19.75 19.49 18.34 19.64 18.07 20.40 19.83 19.94 19.85 20.35 21.34
25.45 24.44 22.94 22.46 21.74 21.98 22.09 22.15 22.38 22.36 21.08 21.22 20.12 19.55 19.13 19.04 18.53 20.12 20.04 19.32 17.23 16.38 15.42 17.92 20.05 20.47 20.18 18.94 16.37 16.12 15.29 15.49 17.12 16.84 16.59 15.20 17.21 18.57
22.55 20.20 19.48 19.52 18.84 18.53 18.21 18.30 18.87 18.85 19.30 19.40 18.69 18.42 17.52 16.61 16.02 16.71 17.02 16.19 14.05 13.89 13.73 14.87 15.45 14.48 14.84 15.60 19.09 13.73 13.86 13.31 14.97 15.98 15.91 13.38 13.48 16.02
18.23 17.91 17.84 17.72 17.29 17.44 17.43 17.32 16.24 16.96 17.81 16.61 16.09 15.94 15.84 15.40 14.02 12.97 13.01 13.36 12.44 12.35 12.59 13.39 12.56 11.00 6.93 4.90 12.09 17.65 11.50 12.54 12.77 11.73 12.83 12.56 11.04 13.57
16.74 15.76 15.40 15.98 16.13 15.68 15.61 14.76 14.48 14.14 13.71 13.32 12.70 12.66 12.73 12.32 11.47 10.81 10.75 10.49 10.59 10.83 10.24 11.16 10.82 10.03 7.34 1.86 4.43 10.02 16.59 10.62 10.19 9.66 10.46 12.98 14.96 18.40
13.75 13.38 13.77 13.76 13.64 13.53 12.97 12.36 11.41 10.25 10.19 9.42 9.24 9.45 9.00 9.70 8.59 8.68 8.53 8.33 8.25 8.56 7.04 7.76 9.94 12.98 12.43 11.21 -2.10 1.43 9.47 15.97 15.52 12.35 12.13 10.46 10.13 11.69
11.11 11.00 11.40 11.39 11.51 11.76 10.86 10.61 9.69 9.08 8.28 7.44 5.34 4.99 5.95 7.30 5.49 5.51 5.36 5.02 6.40 6.34 7.08 8.63 10.56 10.32 8.94 7.21 4.71 2.70 6.79 9.70 13.44 16.12 17.52 16.59 12.04 8.28
6.66 7.36 6.59 6.78 8.28 7.36 6.82 4.52 3.56 2.50 3.64 3.37 3.78 2.22 -1.62 0.18 2.29 1.90 2.51 4.11 5.18 5.16 5.89 5.47 6.52 7.49 6.73 6.59 5.67 5.17 5.43 5.92 8.36 8.95 11.16 17.36 18.77 20.10

GFSNE_sfc_wetblb_090.txt.gz
Wetbulb
54.28 53.54 53.31 53.69 55.01 55.38 54.75 53.93 51.92 48.33 48.96 51.25 51.89 54.15 54.64 54.38 53.37 54.02 54.07 51.99 48.88 48.60 48.97 50.04 51.69 52.85 53.42 54.27 55.23 56.17 57.31 57.88 58.71 58.98 59.08 59.45 59.49 59.55
55.89 54.84 54.46 54.46 54.24 54.64 54.54 54.19 54.36 52.53 49.70 52.20 51.90 53.57 54.40 54.60 54.82 54.56 54.43 51.47 48.87 47.24 47.31 47.78 48.86 50.40 51.27 51.80 52.41 53.14 54.26 55.29 56.08 56.82 57.51 58.05 58.78 58.89
55.98 55.42 54.73 55.15 54.25 54.61 54.87 54.67 54.19 53.84 51.44 53.18 53.73 53.82 52.58 53.93 54.23 54.42 54.86 54.16 53.59 46.83 46.49 46.48 46.46 46.88 47.88 48.49 49.43 50.32 51.21 52.40 53.20 54.36 55.39 56.32 57.41 57.87
55.13 54.99 54.75 55.29 54.92 55.02 54.88 54.23 54.25 54.68 53.31 51.61 54.09 54.05 52.56 54.82 54.95 54.99 53.99 54.31 54.51 51.06 47.40 46.30 46.19 45.59 45.06 45.23 45.82 46.58 47.49 48.67 49.81 50.40 51.21 53.01 54.50 54.80
54.99 54.77 54.82 55.02 54.40 54.79 55.07 54.61 54.73 54.45 54.16 52.92 52.76 54.69 54.47 52.64 53.03 53.60 54.70 55.08 54.38 52.00 48.32 46.56 46.12 46.05 45.40 44.76 44.85 45.25 45.46 45.76 45.88 47.05 47.01 46.81 47.62 47.93
55.13 55.34 55.41 55.12 54.60 54.65 53.89 54.01 53.95 53.86 53.58 52.64 52.61 52.75 53.36 53.60 52.79 52.49 52.29 51.98 53.23 54.04 51.29 49.30 48.76 46.87 45.64 45.12 44.47 44.83 45.13 45.73 45.11 43.70 42.29 41.14 40.92 41.23
54.48 54.33 54.66 53.89 50.14 52.24 54.47 54.03 53.17 52.38 52.31 51.77 51.50 51.88 51.90 52.17 50.39 52.45 51.12 52.56 53.29 51.85 52.66 51.86 49.09 48.64 47.83 44.48 45.66 44.51 44.15 43.61 43.08 42.37 40.97 39.17 37.93 38.15
53.37 53.68 54.08 48.74 48.78 44.25 44.89 46.16 51.55 52.49 51.57 51.45 51.23 50.71 51.52 52.23 52.88 52.34 51.83 50.80 49.10 51.96 50.38 50.70 46.18 47.08 46.67 45.13 43.49 42.43 41.84 41.04 39.86 39.01 38.45 37.91 37.50 37.41
53.13 53.13 53.02 53.37 48.43 52.30 45.85 42.23 42.71 42.08 44.03 52.80 51.23 51.02 50.99 52.01 52.36 51.39 51.23 50.74 50.28 51.55 45.63 41.72 37.36 36.82 39.50 41.03 40.60 39.68 38.87 38.53 38.81 38.98 38.54 38.27 37.82 37.53
54.44 54.09 53.76 53.86 53.85 52.38 51.34 50.51 47.79 48.81 47.89 47.18 49.99 51.84 52.88 53.37 52.30 51.45 51.13 50.15 37.64 33.94 36.65 36.37 33.40 32.15 35.66 37.94 39.09 38.80 38.51 37.90 37.22 36.82 36.60 35.81 34.64 33.77
54.31 54.48 54.50 53.72 50.13 45.86 50.43 49.76 49.03 47.28 36.33 38.06 36.03 34.15 33.86 33.95 35.34 44.15 40.82 36.42 32.96 30.16 28.66 31.89 31.02 30.58 30.28 30.54 32.42 33.93 33.85 33.84 32.98 32.60 32.37 31.75 30.94 30.22
52.39 52.56 42.50 37.67 34.73 39.12 48.05 49.98 48.52 47.64 33.02 29.82 29.10 29.35 29.72 29.82 29.66 29.60 33.19 41.33 33.10 27.38 26.75 28.13 27.04 28.77 25.39 27.68 26.67 27.41 27.93 29.61 30.16 30.54 30.55 30.15 30.00 29.08
32.67 31.85 32.18 33.19 34.39 35.02 34.81 37.07 36.31 31.88 28.98 28.29 27.20 26.62 26.37 26.24 26.17 26.50 26.60 28.06 25.28 22.65 26.51 27.90 25.67 26.39 25.31 24.29 25.63 26.33 26.76 26.55 26.86 27.07 27.66 27.96 27.96 27.05
29.18 29.54 30.52 31.48 31.50 32.13 30.72 30.73 30.85 28.74 26.88 25.27 24.45 23.66 23.61 23.87 24.11 24.94 25.20 25.15 25.36 23.80 26.00 27.14 24.16 24.30 23.23 22.47 22.28 25.66 25.64 26.26 26.29 25.77 26.09 26.53 25.85 25.35
27.66 27.47 27.49 27.32 27.19 26.42 27.48 27.75 27.41 26.54 24.85 22.33 21.01 20.72 21.85 23.13 24.56 24.42 24.84 22.75 21.79 21.78 22.51 22.42 23.96 24.20 23.69 21.59 20.91 21.68 21.70 23.25 23.22 21.63 21.53 21.25 20.95 21.96
25.08 24.65 24.76 24.59 23.36 23.06 23.01 23.55 23.06 22.45 21.11 19.87 19.22 20.16 21.01 20.59 20.36 22.05 21.60 21.37 18.15 17.75 21.19 21.87 21.58 21.97 19.97 20.36 20.15 18.72 19.06 17.42 18.79 18.87 18.75 19.28 20.08 20.43
22.40 21.22 20.26 20.35 19.58 19.64 19.69 19.82 20.94 20.72 19.67 19.99 19.06 18.21 17.68 18.15 17.85 19.77 19.13 17.95 15.73 15.04 14.82 17.16 19.99 20.82 19.27 19.60 17.06 16.09 15.71 15.62 16.45 16.62 16.81 16.00 17.75 19.26
19.57 17.62 16.96 17.27 17.17 17.13 16.81 16.86 17.37 17.18 18.11 18.26 17.76 17.05 15.87 15.64 15.38 16.30 16.51 15.57 13.79 13.27 12.59 14.06 14.64 14.64 15.32 16.96 18.72 14.46 14.13 13.42 14.89 15.73 15.40 13.07 13.45 17.07
15.81 15.17 14.59 14.92 15.26 15.30 14.82 14.96 13.99 15.37 16.22 15.74 15.47 15.27 15.03 14.26 13.48 13.02 13.56 13.58 12.31 12.01 11.85 13.00 12.27 10.66 7.13 5.64 12.36 17.67 11.87 12.67 12.70 12.22 13.09 13.01 12.79 14.93
13.67 13.02 12.79 13.25 13.63 13.30 13.42 12.76 12.46 12.63 12.39 12.50 11.76 12.21 12.74 12.18 11.11 10.85 11.07 10.95 10.67 10.70 10.22 10.76 10.17 9.50 7.50 6.15 7.28 11.31 15.53 12.82 11.68 11.66 12.25 14.46 15.85 17.62
11.07 11.11 11.60 12.23 12.27 12.46 12.01 11.40 10.50 9.66 9.42 9.43 9.69 9.71 10.05 10.24 9.04 9.47 9.22 8.43 8.63 8.77 7.22 7.44 9.75 12.66 12.35 11.81 6.26 6.57 11.15 15.31 15.35 13.22 13.19 12.02 11.83 13.27
7.43 7.56 8.44 8.93 8.86 9.39 8.52 8.97 8.18 7.83 7.98 7.81 6.38 6.20 7.61 8.04 6.94 6.78 7.06 6.62 7.09 7.15 7.07 8.42 10.35 10.36 9.37 7.79 5.93 6.17 8.62 10.83 13.59 15.72 16.51 15.76 12.66 9.01
2.12 4.43 3.99 4.82 6.25 4.96 4.74 3.01 1.53 0.97 2.78 3.14 3.80 3.11 0.41 2.75 4.37 4.94 5.30 6.26 6.12 5.37 5.89 5.76 6.98 7.96 7.03 7.43 6.23 6.04 6.02 7.70 9.89 10.25 12.82 17.19 18.82 20.20

GFSNE_sfc_wetblb_093.txt.gz
Wetbulb
56.26 55.60 56.26 57.61 59.01 58.66 58.35 57.55 55.12 51.94 52.52 55.67 55.29 56.68 55.92 56.67 56.56 57.81 57.20 53.96 49.47 48.57 49.14 50.31 51.88 53.09 53.67 54.26 54.99 56.05 57.28 58.13 58.69 59.11 59.81 60.14 60.26 60.55
56.16 55.24 56.64 57.04 56.57 57.74 57.08 55.53 55.80 54.31 52.59 55.66 56.13 57.55 55.71 54.33 54.50 54.65 54.92 52.40 49.33 47.59 47.43 48.00 48.99 50.46 51.37 51.86 52.51 53.20 54.21 55.17 56.19 56.95 57.49 58.27 59.34 59.82
56.92 55.52 54.89 55.14 54.76 54.54 54.93 55.05 54.48 54.81 51.78 53.65 55.72 59.52 57.82 58.04 58.36 57.60 56.65 56.05 55.96 48.20 46.72 46.70 46.75 47.16 47.71 48.23 49.12 50.27 51.12 52.15 53.18 54.17 55.21 56.37 57.58 58.41
56.13 57.83 56.45 56.00 55.27 55.65 54.96 54.51 56.50 57.43 53.49 51.49 54.38 57.94 58.18 58.99 55.35 55.23 54.73 55.16 55.77 52.87 48.49 47.16 46.56 46.22 45.95 46.11 46.58 47.07 47.61 48.71 49.61 50.64 51.83 53.22 54.78 55.94
57.37 57.67 58.44 58.85 58.83 58.67 58.56 57.76 56.52 55.68 55.78 54.59 55.68 58.63 59.10 59.28 58.41 56.22 56.04 56.09 57.23 53.79 48.70 46.66 46.84 46.87 46.49 45.67 45.48 45.60 45.83 46.15 46.22 46.68 47.27 48.24 50.01 51.65
58.89 59.38 59.15 59.10 59.23 59.71 59.27 58.97 58.52 58.36 57.40 55.28 54.95 56.58 57.58 59.26 59.22 57.57 57.40 59.07 58.31 58.75 54.61 51.50 50.17 48.20 46.43 46.24 45.04 45.02 45.10 45.45 45.24 45.00 44.56 43.99 43.97 46.12
57.53 57.41 57.85 57.05 51.99 55.01 58.55 59.05 58.51 56.70 56.29 55.31 54.18 55.90 56.26 56.49 55.83 57.08 55.98 56.82 58.30 59.79 59.08 59.07 58.70 57.58 56.45 47.54 48.59 45.58 45.17 44.64 44.77 44.88 44.98 44.04 43.01 42.69
57.47 57.89 58.17 50.98 51.70 45.77 46.07 47.14 54.77 57.21 55.15 54.24 52.99 52.07 52.47 53.42 54.48 54.38 54.52 53.08 50.89 56.91 56.48 56.68 58.21 56.92 56.81 56.57 46.73 43.40 43.11 43.22 43.73 43.91 42.59 40.06 38.68 37.76
54.98 55.33 55.34 55.72 51.05 56.89 47.86 43.26 44.20 43.36 44.86 54.50 52.65 52.24 52.16 53.48 53.66 52.88 52.46 52.08 51.73 54.10 53.27 51.85 43.33 41.05 39.56 40.29 40.84 41.45 41.22 40.16 39.33 38.71 38.21 37.70 37.17 36.63
55.22 54.67 54.48 54.60 54.37 53.35 53.21 52.97 51.85 52.33 50.13 48.74 51.27 53.19 51.45 45.17 46.41 50.82 51.92 52.24 51.93 39.02 38.43 45.52 34.87 31.68 32.99 33.71 37.03 37.72 37.18 36.66 36.26 35.33 34.58 33.91 33.29 33.05
53.51 46.98 38.25 40.86 36.27 39.19 48.16 51.00 50.31 49.42 35.67 38.92 34.24 32.89 32.55 32.21 33.13 38.26 41.51 39.24 44.70 32.42 29.11 33.05 31.89 28.28 27.19 27.52 31.29 32.88 32.84 32.85 32.69 32.46 32.56 32.19 32.18 31.92
34.81 33.15 32.55 34.58 34.18 35.02 41.02 42.75 44.99 44.00 32.34 30.88 29.49 29.15 29.51 29.09 28.86 29.18 31.44 34.11 35.06 31.13 27.82 29.15 28.02 29.60 24.31 26.86 27.49 28.40 29.14 31.13 31.30 31.42 31.33 31.32 31.25 31.01
30.25 29.38 29.75 31.32 31.76 32.30 32.83 33.89 34.08 31.91 30.14 28.34 27.55 26.23 25.66 25.45 24.83 24.75 25.12 26.66 25.90 22.85 25.93 28.85 28.10 27.68 27.15 24.78 27.53 28.21 28.64 29.08 29.49 29.38 29.55 29.63 29.16 28.98
27.52 28.08 28.65 28.88 28.82 28.58 28.60 28.76 28.86 27.61 26.28 24.02 24.18 22.35 23.28 23.33 23.02 23.82 23.68 23.63 24.04 23.03 25.23 28.16 25.46 26.83 25.98 24.66 24.18 27.31 26.83 27.20 27.70 26.32 27.28 26.21 25.36 24.44
28.04 26.98 26.68 26.86 26.83 26.62 26.17 25.79 25.37 24.05 23.81 21.12 21.05 21.56 24.37 25.38 27.41 27.06 25.76 24.88 23.59 23.76 25.05 25.30 26.01 26.21 26.06 24.38 23.45 23.16 24.56 23.72 23.84 23.12 23.44 23.57 23.11 24.29
27.20 27.01 26.35 25.77 24.96 25.71 27.26 27.35 27.27 26.87 25.51 24.68 24.20 24.67 25.64 23.62 24.24 25.40 24.13 23.93 21.51 19.92 21.72 23.28 23.78 24.05 22.04 21.71 22.34 19.76 20.05 19.25 21.05 21.01 21.23 21.78 22.53 23.63
26.57 26.78 26.06 25.52 24.60 24.73 24.05 24.34 25.52 25.75 24.54 24.68 23.95 23.69 23.02 23.04 22.08 23.40 22.34 21.54 18.97 17.94 17.79 20.02 21.67 22.23 21.66 21.41 17.92 17.75 17.03 17.54 19.28 19.17 19.22 18.77 20.84 21.83
24.68 23.48 22.59 22.52 21.88 22.09 22.03 21.77 22.25 21.58 22.38 23.02 22.49 21.53 20.46 20.08 20.36 20.35 20.74 19.47 17.65 17.35 17.34 18.19 19.09 19.41 18.68 18.59 20.21 16.60 17.24 16.45 17.82 18.15 18.19 17.24 18.14 21.64
21.74 20.77 20.18 20.26 20.15 20.14 20.22 19.71 18.51 18.95 19.56 19.87 19.80 19.49 19.18 18.36 18.77 18.37 18.22 17.62 16.27 16.22 16.44 17.14 16.90 15.93 14.29 12.50 17.23 17.58 15.29 16.58 16.72 17.11 18.35 18.42 18.17 20.13
19.37 18.90 18.29 18.73 18.60 18.00 17.75 17.44 17.34 17.62 17.51 17.47 17.15 17.19 17.49 17.26 16.27 15.63 15.97 15.82 15.38 15.02 14.90 15.79 14.75 14.08 12.92 11.89 12.65 16.90 16.56 15.78 16.68 16.69 17.55 20.06 21.08 21.05
16.71 16.57 16.82 16.96 17.11 16.88 16.32 15.76 15.30 14.84 14.95 15.12 15.41 14.94 15.41 15.66 14.01 14.32 13.63 11.61 13.49 13.96 12.24 12.63 13.97 13.80 16.73 17.39 14.87 15.15 17.58 17.40 16.90 15.99 17.01 17.19 18.02 20.49
14.30 13.98 14.10 14.15 14.35 14.51 14.18 14.30 14.01 13.67 13.50 13.17 12.87 13.35 13.92 13.66 12.17 12.02 12.76 12.76 12.08 12.34 12.38 14.10 15.07 15.55 15.27 13.48 12.10 13.11 15.44 17.12 19.30 18.99 18.37 17.17 16.93 16.14
11.40 11.89 11.50 11.91 12.12 11.70 11.62 11.34 10.24 10.99 10.76 11.07 11.76 11.37 11.10 10.96 11.82 11.99 11.97 11.45 11.33 11.20 11.37 11.76 13.71 14.42 13.31 12.80 11.67 13.65 13.49 14.98 17.47 17.91 20.84 20.31 20.05 20.95

GFSNE_sfc_wetblb_096.txt.gz
Wetbulb
59.04 60.60 60.24 59.70 60.76 60.57 60.16 58.56 56.01 53.56 53.36 57.39 57.60 60.33 61.38 61.90 59.62 61.01 60.56 55.05 49.74 48.75 48.77 49.94 51.72 52.93 53.56 54.19 54.98 55.94 57.11 57.81 58.56 59.02 59.39 60.26 60.83 60.94
56.58 58.68 59.55 59.50 59.15 59.64 59.79 60.21 58.79 57.06 53.81 57.75 57.98 60.35 61.20 59.96 59.08 60.68 61.25 54.26 50.49 48.36 47.45 47.89 48.75 50.47 51.28 51.72 52.41 53.01 54.01 54.90 55.78 56.39 57.31 58.05 58.96 59.64
57.63 56.36 57.28 58.90 56.91 58.64 58.52 58.92 57.06 55.04 52.51 54.36 58.11 57.79 59.58 60.58 60.52 61.07 59.81 58.15 55.58 47.93 47.03 46.61 46.77 47.23 48.01 48.67 49.46 50.47 51.34 52.14 53.07 54.00 54.96 55.96 57.25 58.15
57.59 55.78 55.60 56.65 57.32 56.00 56.12 57.08 55.59 55.28 53.64 52.19 54.22 56.84 60.08 60.62 60.48 59.65 61.13 61.29 62.18 55.03 48.62 47.71 47.32 46.31 46.38 46.32 46.43 47.26 47.83 48.63 49.36 50.40 51.61 52.91 54.25 55.74
56.87 54.90 55.63 56.09 56.25 56.81 55.76 54.81 55.66 56.37 57.34 56.84 57.69 59.15 59.58 61.02 60.55 61.54 62.16 61.95 61.53 54.67 48.38 46.83 47.01 47.27 46.76 46.22 45.85 45.99 46.18 46.06 46.16 46.22 46.95 47.68 49.21 51.15
57.92 57.17 56.64 56.52 57.55 59.01 59.73 60.46 60.40 60.47 60.01 57.78 58.57 58.71 59.63 60.95 61.17 59.87 59.75 61.73 61.26 60.80 56.31 53.16 51.83 49.53 46.94 46.91 46.16 45.76 46.08 46.22 45.76 45.22 44.73 44.07 44.08 45.82
58.10 58.50 58.75 57.16 52.35 54.73 59.43 60.40 60.65 59.88 59.44 58.27 56.90 58.08 58.64 58.80 58.36 59.91 59.21 60.55 61.11 61.11 59.36 60.69 60.83 61.44 59.80 48.12 50.01 46.36 45.43 45.29 45.03 44.93 44.69 43.77 42.68 42.86
58.25 59.53 59.99 52.81 53.18 45.51 45.09 46.27 53.35 57.68 56.61 56.01 56.06 54.88 57.30 58.38 59.30 59.25 58.70 55.07 52.40 58.27 56.72 56.96 61.24 60.26 50.76 42.01 40.38 41.10 42.69 43.80 43.87 43.94 43.94 43.78 42.19 39.92
58.68 58.40 57.74 57.47 51.78 58.46 49.07 43.90 44.46 42.92 42.63 54.43 55.08 55.12 54.73 55.24 55.24 54.55 54.92 54.88 54.26 57.02 54.37 53.68 42.49 33.86 34.42 35.53 37.92 39.36 39.81 39.77 39.28 39.12 38.65 37.72 36.94 36.51
49.13 42.15 43.92 46.18 42.17 40.18 49.67 54.17 52.72 51.96 50.90 49.89 50.94 46.24 36.55 35.19 37.81 42.28 42.80 44.20 46.42 35.02 36.92 37.88 32.82 28.21 30.16 32.14 34.63 35.16 35.01 35.01 34.85 34.81 34.84 34.19 34.07 33.57
34.84 33.78 35.29 34.99 33.96 35.41 41.41 46.09 48.33 43.38 34.53 33.95 33.29 32.16 31.02 30.58 31.34 38.83 38.39 36.23 40.83 35.16 33.38 34.30 31.61 28.02 27.74 27.69 30.14 33.18 33.20 33.49 33.48 33.54 33.29 33.38 33.06 32.64
31.38 31.05 30.98 31.77 31.88 32.66 37.07 39.07 39.28 33.29 32.52 30.71 28.53 27.61 27.12 27.06 27.15 27.53 28.39 32.93 35.36 33.36 27.58 30.65 30.97 29.31 24.74 27.65 28.88 31.43 31.56 31.43 31.81 32.30 32.09 32.01 32.49 33.32
30.16 29.41 29.97 29.83 30.25 30.46 30.64 30.90 30.15 29.26 27.10 26.62 26.00 25.67 25.36 25.12 25.46 26.25 26.65 26.83 26.94 23.46 27.76 30.58 29.59 30.42 28.60 26.72 29.80 30.41 30.59 31.08 31.51 31.32 29.64 29.07 28.92 28.82
29.45 29.86 30.04 29.21 29.24 28.89 28.91 28.30 27.85 28.06 27.54 26.29 25.61 24.44 25.75 25.76 26.83 26.73 27.56 28.60 29.19 27.76 30.00 32.26 30.50 31.49 29.82 28.41 27.51 28.85 29.33 28.98 29.15 28.01 28.19 27.77 26.69 25.39
29.65 28.63 28.20 29.09 29.40 29.22 28.38 29.49 29.98 30.30 28.83 27.63 26.32 26.36 27.68 29.41 31.09 30.94 30.02 30.04 28.07 27.47 28.78 28.91 29.78 30.96 31.38 29.41 28.11 27.48 28.35 27.86 27.79 26.30 25.99 25.15 25.30 26.17
29.92 30.88 29.55 29.13 28.54 28.62 30.17 30.37 30.43 30.31 29.57 28.07 27.81 28.61 29.26 28.58 27.87 28.64 28.00 28.56 27.99 26.32 26.44 26.70 28.34 29.04 27.12 27.01 27.35 25.82 26.00 23.95 25.51 25.07 24.46 24.76 25.55 25.93
31.09 31.93 30.66 29.83 28.67 27.99 27.82 27.44 27.70 28.01 27.18 27.63 27.15 27.31 27.16 27.59 26.70 27.89 27.15 26.81 24.72 24.28 24.00 25.79 26.40 26.00 25.76 25.19 23.64 23.82 23.48 23.89 24.88 23.80 23.31 23.15 25.05 26.16
29.48 27.84 26.46 26.45 25.91 25.94 25.88 25.52 25.51 24.67 25.53 26.06 25.97 25.59 24.87 24.50 25.06 25.29 25.48 24.47 23.03 22.81 22.63 23.64 24.75 25.59 24.88 22.95 21.82 21.78 22.98 22.42 23.31 23.17 23.28 22.00 22.61 26.64
26.94 25.64 24.84 25.01 24.85 24.82 24.74 24.29 23.31 23.12 23.75 24.08 23.91 23.67 23.63 23.13 23.40 22.97 23.28 22.85 21.73 21.92 21.97 22.40 22.07 21.60 20.66 19.67 22.49 19.06 19.56 20.79 21.65 22.51 23.74 23.09 22.90 24.99
24.48 23.27 23.01 23.53 23.19 22.60 22.48 22.15 22.33 22.60 22.15 22.16 22.04 21.90 22.41 22.07 21.24 20.64 20.76 20.36 20.72 20.33 20.31 20.96 19.45 18.41 17.74 17.16 17.92 21.69 19.89 19.25 19.91 20.15 21.38 23.49 24.97 25.34
21.70 21.33 21.97 21.79 21.49 21.51 21.22 20.90 20.10 19.30 19.70 20.46 20.54 19.97 20.43 20.36 19.03 19.61 19.14 15.69 17.93 18.96 17.27 17.60 18.29 16.66 20.64 21.51 19.66 20.07 22.08 20.89 19.74 19.14 20.00 20.02 21.72 24.42
20.06 19.47 19.49 19.49 19.50 19.64 19.51 19.62 19.83 19.18 18.84 18.93 18.26 18.67 19.08 19.20 18.29 17.63 17.61 17.90 17.36 17.92 17.85 19.02 20.06 20.15 19.69 17.76 16.74 17.89 20.36 22.14 23.90 23.02 22.11 20.43 20.05 19.79
17.80 17.92 17.80 17.48 17.94 17.52 17.76 17.48 16.23 16.97 16.05 16.78 17.05 17.59 16.83 17.37 17.69 17.72 17.61 17.17 16.07 16.50 16.94 17.37 18.92 20.16 18.96 18.10 16.98 19.17 19.16 20.13 22.18 22.88 25.04 21.82 21.91 22.19

GFSNE_sfc_wetblb_099.txt.gz
Wetbulb
58.66 59.25 58.29 58.75 59.01 60.97 60.27 60.18 57.22 53.17 53.58 58.55 58.24 62.48 62.91 63.19 60.89 62.96 62.49 55.81 49.86 49.10 49.23 50.67 52.31 53.36 53.59 54.20 54.85 55.61 56.62 57.42 58.11 58.56 58.91 59.72 60.51 60.98
56.77 58.65 59.10 59.14 58.94 59.04 59.92 60.05 59.80 57.10 54.15 57.50 57.26 58.07 60.83 60.79 60.48 62.37 62.53 54.87 50.95 48.61 47.96 48.41 49.44 50.98 51.64 51.97 52.43 53.08 53.81 54.66 55.48 56.28 56.98 57.82 58.71 59.33
56.50 57.46 56.81 59.64 59.35 59.56 59.73 59.29 58.85 58.09 54.85 57.71 59.23 57.57 56.62 57.25 58.71 60.33 61.31 61.70 61.58 48.93 47.60 47.31 47.20 47.77 48.71 49.30 49.62 50.49 51.31 52.10 52.81 53.77 54.87 55.83 57.03 58.00
54.62 54.83 55.57 55.44 56.70 59.77 59.08 58.28 58.31 57.43 56.54 56.11 57.29 55.71 57.27 57.65 58.46 58.18 58.94 61.08 61.82 55.42 48.61 47.75 47.69 47.07 46.49 46.49 46.77 47.27 47.78 48.63 49.32 50.39 51.48 52.76 54.09 55.52
55.47 57.16 58.05 57.33 57.17 56.35 58.53 58.28 58.35 57.70 56.98 55.17 54.76 57.78 58.91 60.42 60.61 61.26 61.28 61.76 61.83 56.07 48.83 46.97 46.77 46.50 46.29 45.76 45.82 45.89 45.96 45.99 46.01 46.38 46.75 47.64 48.96 50.68
58.99 58.95 60.10 57.61 54.91 55.84 55.34 55.78 57.01 56.85 56.62 55.25 56.29 57.61 58.99 60.72 60.73 59.16 59.33 61.11 60.79 62.00 57.37 53.95 50.69 47.82 46.82 46.73 46.35 46.24 45.78 45.98 45.96 45.12 44.33 43.38 43.40 45.01
59.38 59.55 58.14 54.99 49.82 51.94 55.38 56.03 57.61 57.11 56.85 55.66 55.85 57.69 58.48 58.82 58.22 59.97 58.86 59.84 60.76 61.58 60.73 61.72 62.06 61.46 46.38 41.19 41.37 41.75 41.94 43.02 44.39 45.02 44.83 43.66 42.21 42.52
57.77 58.30 58.40 51.29 51.89 46.13 45.72 46.22 51.60 57.50 56.84 56.72 56.94 56.51 57.84 58.92 59.42 58.92 58.03 56.46 54.10 58.57 56.85 56.27 54.19 36.54 36.75 37.22 38.31 39.58 40.73 41.07 41.17 41.94 42.70 42.37 42.04 40.23
50.10 51.36 53.66 46.49 41.04 43.97 45.26 42.89 43.71 41.92 38.49 51.03 52.66 53.66 53.47 42.61 43.04 49.93 52.69 53.04 52.21 43.23 45.09 46.89 36.21 32.61 33.49 35.00 36.44 36.62 36.64 36.95 37.24 37.40 37.10 36.63 36.23 35.64
36.46 37.79 38.82 37.25 35.12 36.49 41.77 46.68 46.26 35.40 36.76 38.07 34.70 31.99 31.44 31.76 34.05 39.40 40.20 41.01 43.45 36.78 36.97 37.44 33.18 30.07 31.05 31.90 34.45 35.06 34.99 35.04 34.81 34.70 34.43 34.26 33.78 33.25
32.50 32.77 33.69 32.81 32.85 35.13 42.42 44.80 37.10 31.75 32.30 31.74 30.92 30.10 30.31 30.10 30.22 37.15 33.24 34.46 36.73 33.68 29.22 32.53 32.71 29.80 28.65 28.60 31.18 32.66 32.90 33.27 33.49 33.59 33.56 33.67 33.64 33.24
30.97 30.93 30.83 30.92 31.50 32.95 35.80 38.42 30.40 29.08 28.48 27.93 27.51 27.61 28.28 28.06 28.95 28.36 28.43 31.52 32.09 32.64 28.08 29.39 31.51 29.97 25.69 29.02 30.59 31.82 32.16 32.05 31.36 31.33 31.13 30.89 30.81 33.91
30.26 29.73 30.61 30.55 30.52 30.62 31.12 31.71 29.69 29.99 28.84 28.47 28.21 28.12 28.40 27.94 28.26 29.36 29.14 28.91 28.31 26.88 29.68 31.70 30.97 31.36 29.56 27.78 30.07 31.05 31.77 31.35 31.67 31.01 30.60 29.21 28.37 27.67
30.38 30.80 30.92 30.19 30.37 30.55 30.61 29.35 29.45 30.23 30.47 29.39 28.75 28.24 28.62 29.13 29.65 30.02 30.16 29.65 29.31 28.08 29.83 31.57 31.20 31.91 31.54 30.00 29.16 30.70 30.02 30.07 29.87 29.04 29.23 28.92 28.59 27.76
30.27 29.59 29.85 30.26 30.40 30.01 29.93 30.16 30.97 32.45 31.72 30.38 28.96 28.69 29.77 30.71 32.02 31.94 32.59 31.75 29.61 29.08 29.42 30.99 30.38 31.17 31.11 28.97 27.67 27.22 26.87 29.07 29.12 27.91 27.61 27.13 27.14 27.69
31.13 31.74 30.31 29.70 29.57 29.92 30.65 30.85 30.99 30.82 30.32 29.61 29.06 29.78 31.00 30.34 29.28 30.82 29.67 30.04 29.18 28.02 28.98 28.69 28.48 29.70 27.85 27.86 27.72 26.45 26.32 23.77 26.89 26.74 26.15 27.20 28.18 28.33
31.66 31.66 30.84 30.32 28.99 29.12 28.54 28.73 29.29 29.58 28.66 29.00 28.59 28.20 28.34 28.89 27.72 28.75 28.02 28.10 25.96 25.18 25.27 27.11 28.04 26.96 25.58 25.54 24.82 24.96 24.54 24.71 25.86 25.30 24.89 23.97 26.54 28.31
29.80 28.19 27.32 27.68 26.81 26.95 26.81 26.39 26.56 25.95 26.91 27.21 27.00 26.57 25.71 25.49 26.02 26.50 26.78 25.60 24.30 23.93 23.56 24.52 25.37 26.42 26.38 22.01 24.13 21.66 23.16 22.60 23.71 24.24 25.16 23.71 23.94 28.32
27.04 25.85 25.80 25.99 25.67 25.52 25.71 25.24 24.18 24.52 25.58 25.24 24.93 24.71 25.07 24.59 24.36 23.89 24.61 24.28 23.07 23.23 23.29 23.64 22.23 21.46 20.74 19.73 23.78 23.32 20.60 21.02 21.43 21.86 23.15 23.35 23.11 24.94
25.24 24.22 24.09 24.32 24.16 23.42 23.04 22.60 22.46 23.17 23.53 23.40 23.06 22.95 23.41 23.13 22.50 21.26 20.34 20.20 21.52 21.90 21.73 22.29 20.53 18.17 17.36 16.64 17.55 22.30 22.66 21.16 20.12 18.95 20.12 22.65 24.86 26.96
22.94 22.50 23.02 22.89 22.77 22.57 22.67 22.56 21.69 21.21 21.41 21.64 21.47 21.27 21.56 21.63 20.12 20.41 21.31 18.61 19.18 20.47 19.18 19.30 20.36 19.51 22.03 22.87 20.28 20.41 23.01 23.78 21.49 21.52 21.50 20.69 20.97 23.08
21.93 21.06 21.13 21.11 20.79 21.31 21.32 20.81 21.22 19.99 20.08 20.34 20.27 19.86 20.32 20.61 19.57 19.28 18.87 18.39 18.66 18.94 19.12 21.08 22.34 22.24 21.29 19.46 17.85 18.99 21.87 23.92 26.17 26.74 25.80 23.10 20.93 18.60
19.60 19.68 19.08 18.40 18.91 18.83 19.53 18.48 17.44 18.04 17.41 18.24 17.95 18.03 18.97 18.24 18.91 19.14 19.10 18.56 18.13 17.40 18.15 18.87 20.59 22.03 21.15 20.69 18.82 19.92 21.53 21.42 22.97 23.20 25.84 25.36 24.51 24.35

GFSNE_sfc_wetblb_102.txt.gz
Wetbulb
57.89 57.68 57.34 57.33 57.28 57.38 56.91 56.95 53.90 49.93 51.05 54.83 54.99 58.44 59.01 59.20 58.06 58.31 58.08 54.22 50.08 49.09 49.19 50.43 52.35 53.68 54.13 54.74 55.36 56.18 57.05 57.67 58.20 58.55 58.94 59.35 60.05 60.51
57.75 57.89 57.36 56.28 56.73 56.97 57.22 57.36 56.73 54.25 50.12 53.18 54.85 56.60 58.93 60.01 58.78 58.69 58.84 54.66 50.53 48.22 47.88 48.18 49.39 51.06 51.83 52.26 52.91 53.66 54.31 55.23 55.87 56.57 57.16 57.55 58.50 59.14
56.73 56.86 57.13 57.04 55.87 56.73 56.60 56.70 55.85 55.08 52.85 53.34 54.56 55.75 55.77 55.50 57.23 56.90 58.35 59.26 58.71 49.46 48.08 47.69 47.76 47.96 48.56 49.20 49.92 50.94 51.72 52.64 53.25 54.13 55.05 55.97 57.15 57.98
56.13 55.73 55.79 57.01 55.72 56.18 56.69 56.19 55.21 55.63 54.10 52.07 53.66 54.10 53.40 54.10 55.07 55.60 56.62 58.11 58.12 54.11 49.54 48.69 48.22 47.08 46.93 46.96 47.10 47.57 48.23 48.83 49.22 50.18 51.19 52.44 53.90 55.31
54.78 54.82 54.69 54.19 53.63 53.74 54.70 55.14 55.05 55.88 53.99 52.89 52.67 53.77 54.09 53.89 54.49 55.24 55.61 56.15 57.55 54.08 49.50 47.28 47.36 47.43 47.19 46.45 46.36 46.20 45.98 45.86 45.25 45.79 46.29 47.05 48.47 50.11
54.45 54.55 54.78 54.78 53.92 53.62 54.28 53.96 54.49 54.22 53.93 52.67 52.57 53.16 54.03 55.13 55.84 54.76 54.43 57.11 57.55 59.81 55.53 52.13 49.54 46.32 44.04 43.24 41.94 42.31 42.85 43.79 44.15 43.93 43.73 42.56 42.59 44.34
55.50 55.76 55.51 54.25 50.46 52.69 54.65 54.43 53.92 52.63 53.12 53.02 52.73 53.55 54.22 54.63 54.66 56.70 56.34 56.27 56.65 57.57 57.87 58.64 52.86 44.07 39.82 39.43 39.55 40.52 41.40 41.99 42.07 42.31 42.04 42.48 41.63 41.61
56.49 56.84 57.28 49.40 48.76 43.18 42.82 42.67 48.13 53.12 53.20 53.18 54.13 54.36 54.72 54.90 52.20 52.27 52.54 51.84 50.89 45.14 48.37 49.84 42.19 35.88 35.71 36.50 37.23 37.64 38.11 38.56 38.90 38.90 38.93 38.54 37.69 37.18
43.29 45.24 46.18 41.26 38.72 42.46 42.80 40.70 36.94 36.44 35.36 47.27 49.90 48.19 42.92 36.12 37.86 43.74 47.74 46.67 46.16 40.20 43.47 42.78 36.13 32.36 33.24 34.59 35.82 36.00 36.06 35.97 35.87 35.71 35.45 35.11 34.72 34.07
35.18 36.43 36.14 35.23 34.42 36.13 40.96 38.24 34.04 32.74 33.80 34.36 32.84 31.33 31.24 31.61 33.25 37.58 39.04 39.81 40.61 32.32 32.51 34.80 33.03 29.42 30.67 32.03 34.30 35.01 34.96 34.87 34.96 34.92 35.02 34.42 34.01 33.65
32.64 33.07 33.16 32.76 33.40 36.18 42.62 35.42 31.42 30.16 32.04 32.23 31.51 31.19 31.29 31.30 31.33 36.19 31.64 33.46 34.08 29.76 29.42 30.34 31.47 28.77 28.72 28.93 31.43 33.21 32.97 33.00 32.72 32.39 32.26 32.14 32.86 34.12
30.97 31.11 31.60 31.92 32.20 34.07 34.67 32.22 28.16 28.21 28.29 28.22 28.45 29.00 29.63 29.94 30.04 29.49 29.56 30.57 28.76 28.85 28.40 29.04 30.18 30.22 26.53 29.26 30.18 31.09 31.59 32.91 32.41 31.64 31.67 30.75 30.24 25.96
29.18 29.21 30.44 31.70 31.16 31.13 30.90 29.98 28.60 29.10 28.69 29.02 29.15 29.30 29.34 29.29 29.17 29.02 28.19 26.80 27.48 25.33 28.58 30.39 30.22 29.82 26.98 26.70 28.46 29.60 29.43 29.02 29.59 29.23 30.12 29.92 29.53 26.35
28.88 29.76 30.05 31.13 31.16 31.53 30.86 31.30 31.09 30.91 30.64 29.45 28.41 27.55 27.70 28.77 27.57 24.52 23.51 23.95 23.84 24.24 28.71 30.34 29.50 29.44 29.42 28.11 26.86 28.93 24.60 22.84 22.81 22.53 22.99 27.22 28.52 28.87
29.28 30.06 30.63 30.61 30.52 29.35 30.41 30.14 30.43 30.33 29.19 27.51 26.73 27.10 28.01 28.94 28.77 30.06 27.61 24.55 21.53 22.17 24.68 22.74 23.29 28.34 28.14 25.50 24.03 21.79 20.94 23.16 22.47 21.54 22.28 22.58 22.47 24.02
30.02 29.85 29.18 28.72 28.59 28.03 28.10 29.07 28.87 28.58 28.08 27.57 27.35 28.04 28.67 27.42 23.16 23.04 21.92 23.08 21.27 20.75 24.74 24.34 23.79 23.24 20.49 21.63 21.45 19.75 20.19 18.75 21.21 21.57 21.13 21.92 23.01 22.87
29.40 28.90 27.63 27.07 26.63 26.37 25.39 25.34 25.71 26.71 26.00 26.71 25.63 23.41 21.17 21.28 20.20 21.63 22.11 21.68 18.17 18.89 20.04 22.83 24.60 23.23 21.39 21.50 18.83 18.56 19.21 19.22 19.61 20.76 21.56 20.37 22.10 23.30
26.78 25.13 24.74 24.69 23.84 23.65 23.46 21.69 21.45 21.34 22.23 22.48 20.56 21.18 20.08 20.62 21.85 23.01 22.45 19.85 17.24 18.16 17.54 19.32 20.00 20.91 21.56 20.79 23.73 18.65 18.10 17.78 18.57 20.72 21.18 18.80 19.11 21.61
23.91 23.48 22.47 21.84 21.25 20.95 20.88 20.34 19.67 19.75 20.71 20.82 20.23 20.45 21.42 21.19 19.61 19.14 19.49 19.87 19.01 18.68 17.85 18.51 17.16 15.95 14.20 10.99 20.08 22.99 16.81 18.42 17.89 16.26 18.69 18.27 17.21 20.00
22.09 20.88 20.38 20.52 20.40 19.61 19.45 18.79 17.96 17.91 18.70 19.28 17.19 16.58 15.91 17.52 16.33 18.19 16.77 11.57 15.87 17.67 17.64 17.43 15.52 15.19 9.97 5.49 7.41 16.11 24.78 14.04 14.75 13.17 15.22 18.18 21.01 25.38
19.22 18.71 18.65 18.64 18.67 18.26 18.21 17.17 14.77 13.49 12.79 11.41 12.28 14.37 12.27 14.22 11.77 13.30 13.94 11.95 11.80 16.36 14.93 15.14 16.24 17.25 18.10 17.45 7.57 10.59 17.71 24.90 22.01 17.70 18.94 13.79 15.13 17.86
17.61 16.73 16.93 16.75 16.01 17.51 13.59 13.46 14.38 11.06 12.64 12.38 12.14 8.97 9.60 12.23 12.17 10.84 9.74 9.39 12.88 12.52 14.84 17.13 19.79 19.51 17.84 17.58 12.33 7.29 15.85 17.92 23.84 26.52 26.89 24.99 14.77 11.09
15.17 14.76 13.24 12.24 13.66 12.80 14.88 11.60 10.93 9.83 10.92 12.38 12.28 10.59 9.72 8.58 11.64 10.90 9.91 13.34 14.27 11.67 12.41 12.89 16.95 17.34 18.09 18.21 13.97 12.87 15.73 12.85 18.65 18.70 20.06 26.19 27.02 26.52

GFSNE_sfc_wetblb_105.txt.gz
Wetbulb
58.97 58.69 58.37 57.26 56.84 55.40 55.03 55.16 51.37 47.90 51.47 53.48 54.16 57.19 57.36 57.04 55.90 55.96 55.90 52.32 48.85 48.42 48.97 50.39 52.19 53.36 54.01 54.60 55.32 56.16 57.32 57.86 58.79 59.30 59.72 60.20 60.54 61.04
58.78 58.16 57.95 56.80 55.62 55.20 55.16 56.06 56.08 54.02 50.93 52.99 54.75 55.11 56.72 57.86 56.85 57.28 57.46 53.52 50.23 48.25 47.71 48.14 49.18 50.98 51.86 52.51 53.06 53.69 54.56 55.28 55.98 56.77 57.07 57.58 58.28 58.83
57.92 57.68 57.30 56.68 55.82 55.72 55.51 55.82 55.48 55.13 52.59 53.89 54.68 55.32 54.81 55.84 57.16 57.39 57.88 57.38 57.29 49.48 48.70 48.54 47.51 47.73 48.74 49.44 49.87 50.81 51.64 52.47 53.18 54.24 55.07 56.03 56.77 57.65
56.96 57.00 56.68 57.17 55.11 55.20 55.56 55.26 55.55 55.61 54.24 52.66 53.38 53.79 54.15 54.67 54.88 55.17 55.59 57.69 57.61 53.62 48.83 48.19 47.66 47.02 46.47 46.79 46.61 46.77 47.24 47.93 48.40 49.40 50.15 51.26 52.97 54.34
56.66 56.28 56.32 56.34 55.48 54.87 55.20 55.14 54.91 55.41 54.34 53.12 52.22 53.14 53.09 54.00 53.72 54.11 54.52 54.81 55.99 52.57 48.75 47.72 46.97 45.28 43.97 42.96 43.32 43.58 44.57 44.72 44.58 44.90 45.19 45.40 46.29 47.72
56.44 56.12 56.18 55.74 55.29 54.66 54.44 53.54 53.98 53.98 52.63 51.85 51.46 51.40 51.57 52.56 52.25 52.49 52.72 54.34 54.84 57.55 51.27 44.03 42.16 41.13 40.65 40.42 40.82 41.52 42.03 42.62 42.59 42.10 41.91 41.37 41.21 42.70
55.03 54.77 55.25 53.84 49.67 51.43 54.57 54.08 52.51 52.29 50.60 50.33 49.96 50.94 51.13 51.85 52.68 53.70 54.65 55.80 53.60 50.37 54.97 48.51 42.76 40.02 38.60 38.53 38.98 39.37 39.63 39.97 40.15 40.07 39.76 39.10 38.74 39.10
53.95 54.53 55.09 47.81 46.26 40.60 41.27 39.82 44.12 52.99 50.78 50.88 51.03 50.43 51.44 53.44 48.71 50.83 50.78 49.84 48.20 41.21 46.48 42.25 38.69 34.81 35.56 36.44 37.17 37.20 37.25 37.48 37.34 37.39 37.30 36.94 36.12 35.81
43.24 46.59 44.20 40.00 40.06 44.34 37.45 36.04 35.04 34.77 33.06 44.44 49.91 46.28 41.07 35.79 37.29 41.85 45.21 45.70 44.32 35.66 39.92 39.08 34.03 31.07 33.27 35.30 36.29 36.37 36.35 36.26 36.07 35.95 35.47 35.12 34.63 34.30
34.92 35.64 35.83 35.71 35.65 39.90 37.07 34.08 32.67 32.83 32.98 33.50 32.44 31.72 31.60 32.08 33.36 37.35 38.89 39.89 34.59 31.68 32.19 33.59 32.26 29.00 30.76 32.37 34.89 34.95 34.53 34.15 33.77 33.72 33.38 33.41 34.52 34.09
32.16 33.12 33.09 33.48 35.01 38.86 35.82 31.91 30.49 30.32 32.87 33.18 33.06 32.74 32.08 32.08 32.55 35.98 32.40 33.99 32.74 28.51 28.96 31.32 30.87 28.22 28.87 29.34 31.75 33.29 33.15 32.92 32.78 32.35 32.25 31.48 30.15 29.86
31.35 31.60 32.40 32.40 33.25 34.69 34.79 32.77 29.00 28.40 29.05 29.40 29.74 30.53 30.61 29.84 29.56 29.05 27.83 26.75 30.18 27.37 28.15 28.69 30.32 29.44 25.85 29.47 30.15 30.55 29.95 30.91 30.99 30.84 30.84 30.65 30.39 21.56
29.48 29.84 31.34 32.31 32.40 32.31 31.75 30.69 29.13 29.84 29.55 29.78 29.65 29.75 29.54 28.90 27.32 26.86 24.35 23.53 22.03 24.59 27.92 30.28 29.17 30.10 27.33 26.60 28.60 22.72 20.13 21.22 21.13 23.68 28.87 28.98 29.29 26.79
28.73 29.59 30.48 31.62 31.83 31.93 31.16 31.48 31.25 30.67 29.51 27.99 27.15 26.69 26.89 27.61 21.87 20.07 19.37 21.91 23.33 22.73 24.36 29.38 28.30 28.21 28.46 27.55 25.71 23.16 19.63 20.13 19.11 20.01 20.42 25.23 27.55 28.25
29.82 30.06 30.04 30.00 29.71 29.33 30.08 29.95 29.70 28.90 27.23 25.76 25.44 26.14 25.49 25.46 25.13 26.11 23.82 21.85 20.34 20.47 22.93 19.64 19.76 20.80 20.98 21.63 19.50 18.38 18.19 20.50 20.45 20.03 20.99 21.42 20.90 22.86
29.29 28.54 27.81 27.29 26.40 25.94 26.32 27.31 27.56 27.15 26.38 25.93 25.24 24.99 24.55 22.60 22.65 21.44 19.92 18.24 17.99 18.29 23.87 23.84 23.06 21.93 17.98 20.49 19.00 18.14 19.18 17.09 18.80 19.92 20.99 21.44 22.33 22.13
27.93 27.35 26.06 25.58 23.88 22.77 22.81 23.36 23.63 24.08 22.82 22.50 21.45 18.64 19.15 19.87 21.67 22.37 21.41 20.20 17.90 17.66 18.38 20.70 22.66 22.01 21.42 21.46 17.39 17.99 17.80 17.81 18.16 19.11 20.20 18.92 20.46 21.09
25.04 23.25 21.93 21.73 21.16 21.18 20.55 20.39 21.18 21.24 21.56 21.68 20.59 21.03 19.84 19.62 20.34 20.59 20.56 18.10 16.15 17.27 16.60 17.56 17.67 19.90 21.86 21.74 23.42 18.51 17.63 17.20 17.88 19.64 19.61 16.40 16.96 20.25
21.44 20.50 19.52 19.21 19.07 19.26 18.36 18.74 18.22 19.49 20.50 19.29 18.13 18.32 19.12 19.88 18.24 17.82 17.51 17.70 17.67 18.01 17.04 17.07 16.07 14.48 11.09 6.83 17.57 23.86 15.92 17.28 16.97 15.38 17.41 16.79 14.42 19.32
19.05 18.04 17.70 18.19 19.03 18.94 18.50 17.73 16.84 16.37 17.09 17.66 16.04 15.94 14.46 16.37 15.78 16.01 15.56 10.87 14.92 16.66 16.43 16.29 14.30 14.31 7.88 2.85 4.05 13.46 24.21 13.18 13.10 11.33 13.90 16.63 19.62 23.79
16.60 16.02 15.66 16.17 16.36 15.67 15.21 13.36 12.30 12.80 12.03 10.68 10.26 11.66 7.67 11.06 11.18 12.03 11.90 8.66 11.05 14.56 13.23 13.72 15.86 17.10 17.10 15.01 4.58 8.12 15.66 24.64 22.49 16.44 17.18 11.58 13.21 16.26
13.69 12.96 12.94 12.64 12.83 13.33 9.35 9.75 10.69 9.61 9.69 10.83 7.99 8.86 8.11 9.17 7.03 8.43 8.54 6.38 11.24 10.26 11.76 13.90 16.76 18.31 16.98 17.09 11.45 3.76 12.95 15.99 21.10 23.79 23.81 22.70 16.57 11.74
11.40 10.45 9.23 8.84 9.90 10.36 11.16 7.84 6.58 4.74 6.75 5.79 5.85 7.96 8.54 4.64 9.48 9.71 6.67 10.69 10.97 9.33 10.38 10.51 12.78 14.40 15.08 16.57 12.77 10.48 12.78 10.88 15.72 16.15 17.47 22.80 24.26 25.47

GFSNE_sfc_wetblb_108.txt.gz
Wetbulb
59.12 58.66 57.74 57.70 57.63 56.94 56.14 55.17 52.79 49.35 50.81 52.89 53.06 55.83 56.52 56.87 55.53 55.07 56.15 51.63 49.14 48.60 49.14 50.42 52.18 53.30 53.79 54.56 55.39 56.38 57.53 58.27 58.90 59.31 59.70 60.33 60.96 61.23
59.04 58.54 57.97 57.58 57.03 55.83 55.29 56.16 55.31 52.11 49.65 54.09 53.97 55.58 57.07 57.00 55.55 55.80 56.03 52.08 48.38 47.33 47.22 48.06 49.23 50.81 51.78 52.22 52.81 53.44 54.64 55.40 56.32 56.84 57.23 57.76 58.42 59.10
58.84 58.26 57.68 57.64 56.60 55.39 55.27 55.35 55.01 54.82 52.18 53.50 54.33 55.10 55.78 56.11 56.64 56.27 56.83 56.74 56.06 47.72 46.92 46.69 46.77 47.25 48.07 49.10 50.00 50.33 50.77 51.45 52.60 53.57 54.58 55.51 56.65 57.35
57.77 57.94 57.41 57.42 56.44 56.15 55.65 54.73 54.84 55.41 53.36 51.94 53.70 53.77 53.98 55.62 56.25 55.17 56.78 57.74 56.95 53.04 49.29 48.22 48.21 47.62 45.82 44.85 44.79 44.97 45.51 46.23 46.92 48.03 49.19 50.26 51.80 52.62
57.79 57.40 57.34 57.05 56.38 55.96 55.99 55.41 54.96 55.09 54.48 52.99 52.63 53.95 54.39 54.17 54.03 54.22 53.52 53.91 55.20 52.77 48.42 41.94 43.13 42.72 41.75 41.75 42.21 42.71 43.24 43.25 43.03 42.97 43.27 43.48 44.28 45.82
56.52 57.12 57.18 57.00 56.66 55.61 55.19 54.82 54.72 54.10 53.86 53.29 53.52 52.84 52.95 53.45 52.90 51.83 50.49 51.81 53.04 50.51 42.76 40.97 40.42 40.41 40.24 40.59 40.93 41.29 41.47 41.49 41.16 40.61 39.59 38.89 39.51 41.19
56.20 56.24 56.44 54.91 50.46 52.85 55.71 55.11 53.72 53.12 52.85 52.57 50.92 49.58 49.76 50.10 49.68 51.91 51.88 52.82 49.57 48.88 46.90 43.07 40.25 38.52 38.29 38.56 38.98 39.21 39.22 39.31 39.26 39.03 38.24 37.57 37.33 38.06
54.36 54.64 55.23 48.51 43.82 41.64 40.47 38.10 47.04 53.39 52.33 50.97 50.96 48.43 48.44 50.21 48.49 51.07 51.92 51.69 48.76 39.77 46.28 36.83 37.39 34.99 36.12 36.99 37.45 37.27 37.29 37.37 37.14 36.86 36.75 36.29 35.40 35.09
43.44 47.80 43.58 40.68 42.48 39.64 36.05 35.56 34.90 34.33 33.78 47.78 49.84 45.40 43.88 38.54 38.94 42.46 44.96 46.03 43.04 34.44 38.45 33.31 32.82 31.04 33.96 35.88 36.46 36.19 35.51 35.02 34.88 34.54 35.14 35.32 34.57 34.00
35.47 36.73 37.53 37.36 37.38 39.59 36.79 34.35 33.01 33.34 33.63 34.21 34.29 32.14 32.36 33.19 35.36 38.39 39.59 37.57 33.70 31.89 32.67 32.09 31.23 28.97 30.83 32.65 34.53 34.13 33.87 33.81 33.54 33.15 32.55 31.35 31.18 32.83
32.97 34.15 34.73 35.10 36.72 37.89 35.23 32.14 30.76 30.69 33.24 33.45 33.06 32.53 32.25 32.43 34.03 35.88 33.25 34.13 31.93 29.08 29.70 31.79 30.13 27.72 28.75 29.53 31.67 33.64 33.14 32.01 31.64 31.25 31.18 31.04 29.84 28.01
31.50 31.98 33.09 33.92 34.77 34.27 33.00 31.09 28.09 28.43 29.66 29.96 30.21 29.95 29.54 29.62 29.47 29.71 31.21 32.39 30.43 27.71 28.66 29.99 30.04 28.32 25.12 29.32 29.78 30.19 26.62 30.10 30.88 29.94 29.14 29.62 29.76 20.75
29.85 30.19 31.57 32.56 33.03 32.78 32.02 30.71 29.22 30.33 29.90 29.66 29.48 29.27 27.71 26.44 26.42 26.40 25.52 26.32 25.50 25.30 27.78 30.01 28.97 29.57 27.85 26.04 28.03 22.93 20.19 21.73 20.45 21.35 26.30 27.97 29.07 26.43
28.32 29.70 30.79 31.97 32.05 31.82 30.97 31.04 30.55 29.47 28.63 27.60 27.03 26.39 27.22 25.33 22.75 23.36 23.50 23.45 23.77 22.88 23.94 28.40 25.40 24.08 25.36 24.88 22.14 22.68 19.65 17.80 18.78 18.87 19.88 24.56 26.69 27.21
28.76 29.12 29.26 29.48 29.56 29.02 29.71 29.71 28.89 28.11 26.94 25.63 24.31 23.75 22.00 20.85 24.68 25.33 25.25 24.18 23.89 24.62 25.15 23.28 23.76 23.08 22.50 20.29 18.85 17.06 17.85 20.59 20.53 19.89 20.60 21.21 21.07 22.22
27.78 26.87 26.06 25.88 25.14 25.23 25.52 25.80 25.47 25.26 24.90 23.37 22.22 22.51 22.13 23.26 22.13 21.77 22.55 22.16 20.24 20.02 23.26 23.50 22.90 22.70 18.21 18.92 18.83 17.67 18.42 16.06 19.16 19.56 20.77 21.51 22.16 21.62
26.63 25.68 24.25 22.86 21.71 21.95 22.02 22.40 22.81 22.61 21.87 22.00 21.53 21.50 21.46 21.74 21.38 22.51 21.58 20.35 18.27 17.30 16.75 19.65 22.61 22.82 22.20 21.52 18.46 18.53 18.58 18.29 18.45 19.23 20.03 18.53 20.36 20.92
22.79 20.78 19.90 20.08 19.36 19.67 19.64 19.73 20.49 20.38 20.77 20.88 20.43 20.99 19.79 19.59 19.75 20.42 20.55 19.28 17.14 17.01 16.25 17.31 18.07 19.73 21.48 21.05 23.18 18.84 18.20 17.81 18.35 19.71 20.20 16.89 16.61 19.74
19.30 18.71 18.25 18.00 18.09 18.35 18.42 18.44 17.70 18.88 19.62 18.62 18.16 18.44 19.66 19.54 18.57 18.05 17.68 18.09 17.61 16.95 16.90 17.39 17.07 15.47 12.00 9.79 17.11 23.17 16.40 17.90 17.44 15.86 17.25 16.77 13.96 18.71
17.41 16.77 16.35 17.04 17.70 17.05 16.60 15.99 15.45 15.19 15.42 15.64 14.65 13.94 14.51 16.27 14.96 14.84 14.59 12.18 14.89 16.11 15.64 16.18 15.53 15.31 10.69 7.02 7.10 14.18 22.58 14.38 13.22 11.78 12.47 15.18 18.47 23.09
14.08 13.80 13.99 14.56 14.00 13.62 11.96 11.26 10.75 10.45 9.39 9.17 9.87 10.21 5.48 10.71 10.84 12.04 11.84 9.93 10.78 13.35 11.86 12.30 14.27 17.62 17.97 14.68 7.00 8.90 14.99 23.35 21.19 15.22 15.54 9.82 12.12 15.01
10.71 10.87 11.36 10.88 10.73 10.56 6.39 6.19 7.47 7.42 7.24 7.60 4.86 3.83 4.22 8.08 7.00 6.01 6.21 7.82 10.17 9.27 11.13 12.77 15.20 15.92 15.95 15.25 10.81 2.93 11.38 13.33 19.06 21.78 22.11 19.68 14.26 9.62
7.27 8.69 7.19 7.54 8.52 7.58 6.83 3.60 1.39 -0.51 1.86 1.71 2.64 4.65 0.42 3.62 7.20 5.17 5.57 9.15 9.26 8.54 9.80 9.42 11.48 12.51 12.85 14.57 10.84 8.65 10.22 8.46 13.62 13.98 15.41 21.46 22.74 24.28

GFSNE_sfc_wetblb_111.txt.gz
Wetbulb
59.78 60.09 58.84 57.85 57.47 56.86 56.06 55.60 53.28 49.95 50.65 52.78 52.82 55.65 56.27 56.50 55.43 55.94 55.85 52.66 49.30 48.71 48.96 50.36 52.18 53.46 53.91 54.58 55.49 56.68 57.69 58.57 59.15 59.55 59.63 60.55 60.57 61.10
59.44 58.03 57.88 57.52 57.28 56.78 56.38 55.43 54.84 52.71 49.83 54.23 54.21 54.77 56.19 56.16 55.37 55.94 56.00 52.74 48.74 47.45 47.38 47.77 49.05 50.73 51.56 51.93 52.63 53.42 54.38 55.21 56.03 56.31 56.81 57.63 58.31 58.76
58.93 58.39 57.48 57.75 56.94 56.58 56.30 56.20 55.03 54.20 51.73 52.94 54.14 55.12 55.25 55.64 55.63 55.23 55.42 54.72 54.83 47.25 46.68 46.59 46.63 47.25 47.22 47.74 47.49 48.91 49.80 50.73 51.44 52.39 53.41 54.30 54.91 55.44
58.43 58.11 57.36 57.38 56.42 56.44 55.88 54.94 55.19 54.96 53.29 51.59 53.28 53.29 54.27 55.53 56.22 56.12 56.56 56.95 56.94 52.12 47.31 47.56 47.07 46.60 45.27 43.57 43.92 44.60 45.33 45.81 46.41 47.15 47.88 48.61 49.40 50.34
57.83 57.86 57.32 56.98 56.02 55.80 55.49 54.63 54.50 54.73 54.36 52.60 52.44 54.17 54.33 54.11 54.32 54.76 55.13 55.92 55.59 43.96 41.57 41.39 41.83 42.10 41.97 42.20 42.73 42.91 43.14 42.86 41.87 41.34 41.20 42.11 43.76 45.01
58.10 58.04 57.82 57.08 56.68 56.22 55.88 55.44 55.30 54.44 54.31 53.81 53.44 53.01 53.59 53.76 53.77 53.14 52.31 52.58 51.30 43.88 41.01 40.13 40.50 40.92 41.04 41.11 41.12 41.45 41.51 41.02 40.37 39.62 38.83 38.56 39.14 40.87
56.00 56.40 57.22 55.64 50.99 53.52 56.26 55.96 55.26 54.48 53.92 53.43 52.84 51.46 51.29 50.69 51.67 52.25 51.95 52.19 47.92 47.13 43.55 41.04 39.59 38.63 38.68 39.12 39.54 39.48 39.12 39.14 39.01 38.63 37.97 37.24 37.22 37.77
55.26 55.46 55.60 49.21 48.14 44.52 44.34 46.33 52.21 54.43 53.41 53.19 52.83 51.68 50.96 51.66 51.09 51.76 51.60 50.56 47.16 39.98 40.34 35.10 37.16 35.57 36.54 37.11 37.66 37.65 37.43 37.28 37.08 36.80 36.57 36.15 35.36 34.80
46.93 51.65 45.85 43.25 43.70 41.29 36.55 36.12 35.38 34.98 34.86 50.94 52.39 51.07 48.66 45.29 45.55 45.34 46.82 47.89 43.54 35.84 40.18 31.82 33.13 31.77 34.74 36.20 36.22 35.81 35.22 34.88 34.49 34.48 34.60 35.02 34.48 33.77
36.08 37.82 39.80 40.13 40.18 39.70 37.22 34.31 33.26 33.10 33.49 34.88 34.90 32.72 32.90 34.71 38.27 40.69 42.36 35.68 33.37 31.96 34.07 30.34 30.97 29.19 31.50 32.42 34.49 34.61 34.03 33.25 33.30 32.75 32.08 30.71 30.18 30.19
33.11 34.70 35.57 37.24 37.19 37.89 34.82 31.77 30.77 30.85 32.96 33.19 32.85 32.79 32.61 33.22 35.00 36.95 34.15 34.47 31.57 30.12 30.64 31.98 29.17 27.82 29.30 29.70 32.06 32.84 32.37 31.71 31.03 30.56 30.53 30.89 29.79 28.29
31.64 32.18 33.74 34.23 34.01 34.29 33.03 31.32 28.45 28.89 29.69 29.27 28.58 28.65 29.46 29.56 29.26 29.36 32.18 32.84 30.51 29.55 29.42 31.00 29.06 27.92 25.24 29.15 29.55 28.83 27.67 29.74 29.06 28.76 28.95 29.49 29.39 22.45
29.92 30.38 31.52 32.65 32.84 32.87 32.22 31.20 29.92 30.63 29.96 29.62 28.23 26.76 26.36 26.64 26.26 26.46 26.90 29.51 28.59 26.68 27.85 30.70 29.66 28.92 27.78 25.64 28.07 25.07 21.28 21.99 22.61 23.52 25.72 27.84 28.91 26.19
28.30 29.60 31.08 31.95 31.73 31.06 30.28 30.45 30.25 29.67 29.01 27.70 26.94 24.99 23.71 23.45 24.08 24.51 24.78 24.63 24.47 22.82 23.60 25.91 26.81 28.25 25.52 23.69 20.34 22.74 21.09 21.44 21.70 20.42 19.54 23.59 25.41 26.22
27.66 28.66 29.08 29.18 29.14 28.25 29.10 28.97 28.52 27.57 26.18 24.33 23.39 23.14 23.82 25.77 26.42 24.69 24.47 24.65 23.60 23.68 24.59 24.25 23.04 21.91 23.96 23.23 19.33 18.77 19.82 21.05 21.11 20.23 20.77 21.13 21.22 22.38
25.87 25.27 25.50 25.40 24.50 24.62 24.76 25.15 25.25 24.86 23.77 22.29 21.65 22.41 23.63 22.91 22.40 22.86 21.20 21.19 19.52 20.10 23.34 24.42 24.70 24.03 20.44 20.16 19.52 17.98 19.00 17.86 19.90 20.82 21.45 21.80 22.10 22.30
24.30 23.37 22.47 22.19 21.64 21.88 21.87 22.23 22.38 22.52 21.67 22.31 21.79 21.44 21.19 21.32 21.17 22.52 21.51 20.14 17.94 17.54 17.97 21.12 24.16 24.18 23.09 22.14 19.51 19.48 19.41 19.19 19.42 20.30 20.37 18.94 20.89 21.99
21.51 19.46 18.83 19.04 18.83 19.20 19.35 19.35 19.86 19.96 20.71 21.13 20.82 20.70 19.93 19.99 20.07 21.02 21.05 19.17 17.07 17.10 16.71 17.94 19.32 21.33 20.91 21.18 23.44 19.48 18.88 18.50 19.17 19.88 19.96 16.52 16.63 20.03
17.14 17.01 17.07 17.40 17.68 17.65 17.61 17.11 16.11 17.37 18.52 18.00 18.29 18.93 19.38 19.03 18.65 18.00 18.60 18.46 17.23 17.04 16.85 17.55 17.20 15.97 13.13 10.79 17.45 23.36 17.90 17.91 17.40 14.75 16.91 16.57 15.30 18.32
15.51 14.51 13.76 14.74 15.15 15.01 14.67 14.11 13.58 13.60 14.08 14.58 13.82 13.87 15.50 16.14 15.50 14.98 15.05 14.91 15.78 15.92 15.37 15.77 15.04 14.81 12.57 9.79 9.57 14.48 22.24 13.24 12.96 12.25 13.39 15.02 17.95 22.44
12.51 12.12 12.20 12.07 11.39 10.55 8.16 8.23 7.51 7.75 8.45 9.09 9.63 10.21 9.46 12.61 11.58 12.21 11.47 10.03 11.29 12.93 11.58 11.96 13.88 17.05 17.72 14.80 8.36 10.23 14.82 21.56 19.75 14.89 14.65 8.90 10.21 13.85
8.71 8.99 9.35 8.93 8.29 7.44 5.07 4.90 5.66 5.14 5.53 6.87 5.62 5.79 5.84 9.98 7.71 8.57 8.66 9.43 10.22 10.27 10.90 12.32 14.46 15.09 15.17 14.17 10.30 2.87 10.95 11.25 17.02 20.14 20.64 19.41 15.16 10.60
2.07 5.19 4.65 3.93 5.42 3.58 3.89 0.87 -0.79 -2.17 1.25 2.35 2.24 3.31 -1.12 3.70 5.46 6.10 7.46 9.42 9.31 8.31 9.02 8.66 10.46 11.75 12.45 13.22 9.83 6.93 8.13 5.97 11.88 11.89 12.92 19.41 20.37 21.98

GFSNE_sfc_wetblb_114.txt.gz
Wetbulb
59.85 60.05 59.69 59.94 59.81 58.47 57.73 57.03 54.53 50.83 51.29 53.20 53.57 57.28 57.67 57.61 56.05 56.80 56.60 52.43 49.37 49.08 49.37 50.57 52.44 53.55 54.06 54.93 55.85 56.80 58.16 59.04 59.76 60.08 60.37 60.78 60.95 60.88
59.80 59.48 59.25 59.81 58.58 58.11 57.31 57.00 56.17 54.26 51.36 54.20 53.97 54.77 56.99 56.93 56.16 56.79 56.47 52.64 49.01 47.69 47.60 48.07 49.13 50.89 51.62 52.16 52.45 53.30 54.19 54.87 55.74 56.37 56.98 56.84 57.56 58.15
58.26 58.15 57.96 58.84 57.64 56.87 56.77 56.35 55.26 54.43 51.74 52.80 55.14 55.72 54.88 55.73 55.91 55.70 55.99 55.92 55.58 47.51 46.54 46.38 45.95 46.35 47.24 48.03 48.52 49.40 50.11 51.18 52.14 52.92 53.46 54.20 54.77 55.31
57.02 57.92 57.98 57.48 56.70 56.47 55.98 55.22 54.87 54.69 53.17 51.30 53.15 53.47 54.45 55.62 56.07 54.91 55.49 56.05 56.41 48.97 46.20 45.91 45.25 45.42 45.06 45.06 44.97 45.10 45.46 46.18 46.87 47.22 47.37 47.51 48.76 49.72
57.89 57.95 57.84 57.50 56.56 56.48 56.06 55.52 55.44 54.93 54.67 53.08 52.58 54.28 54.59 55.16 55.18 55.80 55.80 54.43 47.36 43.67 42.06 41.95 42.42 42.76 42.89 42.88 43.20 43.25 43.01 42.06 41.63 41.58 42.07 42.82 44.70 46.10
57.83 58.00 58.19 57.27 56.47 56.10 55.78 55.64 55.56 54.73 54.46 53.42 52.77 52.71 53.39 54.14 54.15 53.17 52.09 52.39 45.11 43.22 41.36 40.55 41.17 41.56 41.45 41.53 41.50 41.72 41.43 40.94 40.18 39.62 39.10 38.92 39.71 41.10
56.68 57.38 57.82 55.90 51.39 53.71 56.06 55.56 55.24 54.72 54.12 53.29 52.58 52.78 52.20 51.24 52.11 53.32 53.56 51.48 46.07 42.51 40.95 40.70 39.85 39.48 39.72 39.87 40.16 40.05 39.83 39.75 39.32 38.92 38.27 37.42 37.42 37.61
55.27 55.69 56.33 49.87 48.08 44.47 45.56 46.83 52.17 54.48 53.80 53.62 53.34 52.46 52.74 53.14 52.74 52.97 52.60 49.12 44.89 44.01 39.23 35.62 37.85 36.29 37.08 37.82 38.01 37.79 37.86 37.75 37.42 37.37 36.60 35.98 35.20 34.55
47.64 51.97 49.25 46.36 46.23 42.82 37.07 36.68 35.56 35.53 36.48 53.67 53.59 53.41 52.90 52.64 51.82 49.52 50.70 50.24 45.45 38.19 37.57 31.72 33.97 32.61 35.44 36.16 36.13 35.78 35.39 34.93 34.66 34.56 35.21 34.96 34.07 33.65
36.46 38.57 42.11 41.58 41.27 40.97 38.11 35.24 33.60 33.41 34.25 35.64 36.99 34.86 34.32 37.30 44.25 45.85 45.76 35.44 34.04 33.03 36.01 29.42 31.57 30.18 32.32 34.06 35.40 34.59 34.02 33.68 33.09 32.62 31.86 30.80 30.11 29.95
33.69 36.18 37.32 37.78 37.17 38.68 35.83 32.91 31.69 30.83 33.08 33.53 33.44 33.38 33.63 34.46 36.13 40.31 36.64 37.77 31.89 31.12 32.23 30.80 29.46 28.51 29.96 30.56 32.31 33.44 32.45 31.24 30.44 30.10 30.52 30.99 29.55 28.00
31.85 32.33 33.51 33.79 34.25 34.36 33.51 32.24 29.50 28.89 29.37 29.05 29.09 29.56 29.63 29.89 29.49 31.38 34.29 34.27 31.04 29.63 29.96 29.56 28.40 28.34 25.61 29.10 28.52 28.72 29.57 29.12 28.50 28.62 29.32 29.80 29.43 28.71
30.07 30.60 31.63 32.75 32.81 32.75 32.35 31.08 30.01 30.37 29.12 27.47 26.60 26.71 26.78 26.22 26.14 26.78 27.15 30.96 31.56 27.93 28.58 31.68 29.71 29.08 27.33 26.05 27.54 24.21 25.66 24.71 24.96 24.85 25.78 27.68 28.48 28.28
26.57 28.03 29.74 31.24 31.23 31.08 30.29 30.55 29.96 29.40 28.65 26.04 24.19 23.45 23.38 23.86 24.13 24.73 25.10 25.06 25.55 25.43 26.65 30.82 29.55 30.05 27.42 25.78 23.12 21.93 22.58 23.49 24.08 23.50 24.25 24.92 24.91 25.51
26.77 27.83 28.03 27.75 27.28 26.86 27.86 27.54 27.46 26.79 25.89 23.85 22.51 22.63 23.69 24.81 24.91 24.70 24.97 25.23 24.57 25.35 26.40 27.01 28.32 28.00 27.94 24.49 20.56 20.59 21.41 22.46 23.41 23.12 23.67 23.49 23.58 24.05
25.22 24.91 25.13 25.30 24.52 24.19 24.30 24.86 24.54 24.17 23.45 22.63 22.31 23.45 24.93 23.87 22.81 23.85 22.52 22.73 21.27 21.54 24.99 25.69 25.63 25.19 21.83 22.01 21.33 19.46 20.83 19.80 21.96 22.44 23.14 23.67 24.69 25.15
23.43 22.71 21.70 21.55 20.82 21.16 21.33 21.57 22.36 23.19 22.28 22.60 22.04 21.86 21.91 22.06 21.62 22.78 21.70 20.53 19.26 19.44 20.35 22.85 24.69 24.76 24.29 22.81 19.84 20.33 20.26 20.61 21.68 22.13 22.12 20.98 22.77 23.89
20.41 18.88 18.13 18.30 17.95 18.31 18.12 18.31 19.10 19.72 20.94 21.73 21.65 21.54 20.88 21.06 20.60 20.99 20.97 19.64 17.87 17.63 17.86 19.27 20.95 22.30 21.66 21.78 23.84 19.78 20.01 19.91 21.02 21.23 21.24 19.03 19.20 22.34
15.63 15.15 14.72 15.42 16.21 16.47 16.22 15.70 14.84 16.57 18.07 18.11 18.57 19.36 19.71 19.27 19.73 18.82 19.20 18.74 17.55 17.21 17.32 18.48 18.53 17.91 15.48 14.17 19.06 23.69 19.69 19.28 19.26 18.67 19.10 18.85 17.98 19.86
13.77 12.61 12.52 12.77 12.97 12.54 12.43 12.47 12.29 13.13 13.92 14.56 14.27 15.07 16.59 16.75 16.45 15.65 16.04 16.03 16.01 16.10 15.60 15.88 15.43 15.49 15.08 14.09 15.14 17.64 22.61 18.47 17.84 17.03 17.12 18.66 19.76 21.79
11.12 10.45 10.27 9.95 9.04 8.74 7.56 7.73 7.62 7.64 7.98 9.36 9.95 10.83 11.68 14.26 13.35 13.37 12.82 11.87 12.53 13.42 12.05 12.35 14.12 17.44 18.20 16.43 14.04 14.73 17.16 20.09 19.82 17.58 17.25 16.69 16.24 17.32
7.54 8.06 7.76 6.59 5.71 6.12 3.37 3.44 5.25 4.95 6.13 7.43 6.77 7.12 8.73 11.11 10.61 11.06 11.23 10.98 10.89 11.10 11.33 12.87 15.21 16.44 16.66 14.56 12.69 11.00 13.79 14.11 17.22 18.88 19.42 19.72 16.50 13.99
2.28 4.45 2.76 1.97 4.46 2.96 3.10 0.48 -1.09 -2.22 1.27 2.51 3.61 4.84 2.52 7.15 9.26 9.86 10.37 10.67 10.44 9.75 9.84 9.98 11.95 13.21 13.45 12.64 11.11 10.99 10.80 10.90 12.65 12.83 14.77 17.53 18.39 19.80

GFSNE_sfc_wetblb_117.txt.gz
Wetbulb
62.02 61.83 61.34 61.56 61.54 61.06 60.35 58.35 55.87 51.74 51.97 56.90 56.13 58.27 58.72 58.88 58.75 60.75 60.43 53.39 49.70 49.62 50.08 51.32 52.83 53.94 54.23 55.08 56.18 57.47 59.04 59.82 60.32 60.34 60.52 60.83 61.23 61.59
61.56 61.17 60.71 61.35 61.31 60.52 59.81 58.83 57.82 56.05 52.55 56.18 56.00 57.06 58.39 58.16 58.27 60.46 60.34 54.04 49.08 48.12 47.98 48.66 49.74 51.46 52.15 52.57 53.04 53.85 55.04 56.01 56.88 57.58 58.09 58.43 59.13 59.17
60.26 60.27 60.10 61.11 60.11 60.03 59.58 59.62 57.48 56.91 54.25 54.68 56.32 56.47 57.04 57.33 57.36 58.96 60.03 59.60 59.26 47.59 46.92 46.83 46.83 47.15 48.19 48.93 49.61 50.58 51.45 52.33 53.21 54.01 54.80 55.61 56.02 55.96
59.11 59.22 59.12 59.01 59.37 59.38 58.85 57.29 56.87 56.85 55.34 52.08 54.27 54.93 55.25 56.62 57.16 57.03 58.38 58.88 59.69 47.62 46.58 46.15 45.84 45.48 45.63 45.57 46.13 46.40 47.06 47.66 48.37 49.39 49.48 49.36 49.57 49.76
58.17 57.79 57.95 58.97 58.23 58.79 57.49 56.61 56.31 55.77 55.57 53.67 53.52 54.85 55.23 55.69 55.67 57.13 58.51 58.52 50.68 44.90 42.58 42.67 43.52 43.80 43.68 43.80 43.88 43.61 43.51 43.08 43.05 43.20 44.22 45.02 46.80 47.98
59.30 58.46 59.31 59.01 58.37 56.99 56.53 57.28 55.91 55.04 54.74 54.10 53.46 53.66 54.53 55.05 55.85 55.00 55.55 52.65 48.91 46.01 42.80 42.56 42.29 42.31 42.31 41.99 41.97 42.01 41.70 41.42 40.95 40.51 40.27 39.89 40.62 42.29
58.33 58.40 59.02 57.12 51.68 54.19 57.03 56.45 55.73 54.62 54.16 53.28 52.89 52.76 53.43 52.59 53.35 55.35 54.80 50.88 46.45 44.43 41.38 41.35 41.16 41.06 41.26 41.27 41.42 40.90 40.57 40.18 39.86 39.68 39.00 38.43 38.23 38.60
56.13 57.48 58.35 50.94 50.68 45.07 45.25 47.13 54.24 55.04 54.62 53.35 53.18 52.63 52.95 53.97 53.98 53.43 53.01 47.91 45.27 43.47 40.59 37.15 39.66 38.22 39.11 39.24 39.09 39.05 39.05 38.76 38.60 38.04 37.37 36.57 35.92 35.39
49.23 51.91 54.14 49.85 48.66 46.11 38.02 37.33 36.19 36.18 37.80 54.59 53.64 53.72 53.36 54.09 53.79 52.74 52.96 51.48 49.77 42.19 37.87 32.41 35.61 33.80 36.47 36.80 36.87 36.82 36.59 36.86 36.98 36.58 35.90 35.18 34.18 33.40
35.49 37.55 40.73 42.40 42.13 42.70 40.48 36.58 34.20 33.99 35.18 36.43 38.31 37.82 37.27 41.05 50.99 53.28 53.58 45.15 35.56 34.70 37.25 31.15 32.48 31.49 33.72 35.40 36.10 35.65 34.84 34.25 33.75 32.82 31.99 31.62 31.12 30.75
32.41 33.54 35.34 35.58 35.98 39.01 37.17 33.51 31.42 31.08 33.72 34.02 33.79 33.82 33.85 34.05 34.79 42.20 38.31 39.91 33.07 32.89 33.45 31.33 30.53 29.80 31.08 31.10 33.45 33.31 32.28 31.53 31.34 31.36 31.69 30.46 29.61 29.51
31.58 31.33 32.55 33.03 33.57 33.97 34.81 33.78 30.46 30.81 30.38 29.88 29.66 29.31 29.85 29.93 30.44 32.02 35.46 39.17 33.03 32.20 31.83 29.75 29.37 29.27 26.12 28.82 29.13 30.35 29.45 29.28 29.24 29.87 30.32 30.63 29.53 32.29
28.00 28.77 30.15 31.67 32.05 32.48 32.15 30.94 29.52 29.09 28.22 27.72 26.86 27.56 26.86 25.80 25.46 26.95 28.09 32.56 32.74 28.87 28.92 31.90 30.09 29.69 28.04 25.19 25.53 25.56 26.29 26.20 27.34 27.48 27.47 28.63 28.95 30.04
26.68 27.28 28.55 29.78 29.63 29.11 29.05 29.79 29.50 28.37 27.17 25.87 24.34 24.16 24.27 23.61 24.88 25.40 26.13 26.29 26.69 26.60 28.41 31.72 31.06 29.73 27.21 25.28 21.81 23.88 25.44 27.20 27.91 27.87 28.95 26.84 25.80 25.85
28.16 27.82 27.57 27.79 27.64 27.20 27.87 27.16 26.94 26.56 25.59 23.43 22.27 22.54 23.77 24.56 25.71 25.95 26.48 26.91 26.19 26.78 28.16 30.95 31.28 31.11 30.51 26.47 23.06 23.63 23.87 25.09 27.24 27.49 28.94 29.00 29.01 29.13
27.71 27.53 26.62 25.96 25.35 25.34 26.28 26.78 27.13 26.28 25.67 23.92 23.04 23.85 25.35 24.36 23.44 25.10 23.77 24.65 23.37 23.83 26.95 28.40 29.13 27.81 25.51 26.33 25.85 23.50 24.33 22.53 26.02 26.01 27.13 27.69 29.47 30.17
27.30 26.98 26.05 25.43 23.73 23.32 23.78 23.89 25.07 25.76 25.40 25.51 24.48 24.45 24.73 24.68 23.97 24.80 25.30 25.09 23.81 22.93 22.87 24.75 26.27 26.71 26.54 25.64 23.02 24.25 23.98 24.26 26.09 25.52 25.67 25.46 26.73 27.63
25.30 24.13 23.27 23.18 22.33 21.87 20.62 20.51 20.88 21.16 23.24 24.24 24.41 24.61 24.17 23.55 22.51 23.01 24.01 23.33 22.36 22.77 22.85 24.31 24.64 23.53 23.59 23.20 25.67 23.56 24.39 24.20 25.41 25.08 25.25 23.90 25.02 27.80
22.07 21.44 20.90 21.01 21.03 20.96 20.31 19.27 18.00 18.88 20.60 21.07 21.80 22.23 22.43 21.97 22.57 22.06 22.41 22.35 20.93 21.19 21.72 23.02 23.34 24.13 21.50 18.52 21.80 24.72 23.33 23.20 23.56 23.44 23.05 23.12 22.30 24.57
19.78 18.95 18.39 18.67 18.62 18.40 17.88 17.70 17.58 18.43 18.07 18.48 19.14 20.00 20.64 20.72 20.27 19.92 20.79 20.87 20.65 20.45 20.14 21.29 20.96 21.45 22.10 20.94 20.24 21.07 22.17 22.30 21.84 21.28 21.37 23.20 24.63 23.48
17.25 16.67 17.22 17.06 16.71 16.54 16.78 16.54 16.78 15.97 16.59 17.14 17.49 18.11 19.58 19.51 18.14 17.93 17.17 16.79 18.39 19.42 17.88 17.99 19.08 19.78 22.34 22.71 20.67 19.92 20.62 19.68 20.13 19.66 20.71 21.55 21.81 23.65
15.30 14.74 14.33 14.36 14.39 15.02 15.19 15.86 16.21 15.88 16.50 16.68 16.83 17.98 19.12 19.09 17.67 17.09 17.43 16.65 16.21 16.78 16.77 18.62 20.18 21.76 21.23 20.32 17.77 17.03 18.72 19.52 20.23 18.77 19.55 18.41 19.62 18.81
12.78 12.84 12.26 12.22 12.74 11.78 11.91 12.34 11.99 12.82 12.63 14.09 15.72 16.01 16.79 17.01 17.60 17.68 16.74 16.11 16.05 15.56 16.14 16.42 18.28 19.83 18.25 17.07 16.69 16.79 14.26 15.80 17.69 18.23 20.75 18.41 17.76 18.28

GFSNE_sfc_wetblb_120.txt.gz
Wetbulb
66.66 66.23 64.06 63.86 63.27 63.64 64.08 62.72 58.28 54.27 53.50 58.23 58.28 60.64 60.91 62.20 59.19 59.90 59.97 53.99 50.23 49.51 50.08 51.46 53.12 54.25 54.88 55.51 56.53 57.70 58.72 59.26 60.03 60.12 60.40 61.08 61.55 61.75
64.08 64.17 63.57 62.77 62.84 63.16 63.73 62.72 60.83 57.73 54.24 56.94 57.79 59.33 60.01 60.34 58.50 59.86 60.55 55.10 49.25 48.38 48.44 49.12 50.34 51.81 52.42 52.94 53.25 54.15 55.37 56.52 57.65 58.65 59.16 59.67 60.30 60.72
63.08 62.92 62.92 62.98 61.75 62.83 62.67 62.62 60.45 58.66 55.51 56.91 57.88 59.40 58.13 58.34 58.70 58.85 59.20 60.51 60.81 47.80 47.34 47.64 48.00 48.62 49.48 49.85 50.37 51.27 52.32 53.22 54.13 55.40 56.52 57.33 58.20 58.39
62.29 61.82 61.85 61.64 60.81 62.30 61.37 60.60 59.91 59.93 57.49 55.07 55.71 56.33 56.79 58.40 58.04 57.34 58.27 59.51 61.99 51.19 47.35 46.87 46.81 46.40 46.38 46.76 47.30 47.82 48.56 49.42 50.30 51.25 52.23 53.41 54.36 54.84
61.48 61.38 61.63 60.64 59.60 60.50 60.40 59.56 61.63 60.38 58.16 55.91 54.21 56.05 56.33 57.09 56.89 57.19 57.25 58.00 53.26 45.64 44.39 45.31 45.10 45.21 45.03 44.81 45.21 45.60 45.82 45.64 45.53 46.02 46.31 46.96 48.00 49.29
60.60 61.37 60.76 59.56 59.75 60.46 59.26 60.84 60.16 58.08 56.73 55.45 54.38 54.48 55.28 55.61 56.27 54.97 54.64 52.37 49.74 48.36 44.23 44.63 44.54 45.15 43.67 43.18 42.98 43.31 43.27 43.40 43.19 42.72 42.03 41.62 42.56 44.77
59.24 58.99 59.13 57.63 52.55 55.77 60.74 59.98 58.30 56.67 55.49 54.55 53.53 53.72 53.48 52.96 52.85 54.48 54.13 51.14 49.41 47.07 44.48 44.79 45.24 45.10 43.57 42.56 42.64 42.15 41.99 41.58 41.56 41.21 40.81 40.12 40.20 41.14
56.21 57.87 58.56 51.96 52.87 44.72 44.91 46.36 53.34 56.01 54.99 54.09 53.44 52.68 53.55 53.53 54.17 53.51 52.94 47.97 44.93 45.95 45.24 41.85 43.54 41.97 41.91 42.38 40.15 40.01 40.01 40.11 40.19 39.73 39.21 38.45 37.90 37.71
38.77 41.05 43.82 49.26 46.54 54.76 39.75 38.10 36.79 36.39 37.82 55.14 54.03 54.76 53.54 54.66 54.29 53.72 53.76 51.53 51.20 44.19 40.20 33.94 37.40 36.02 37.66 38.31 38.72 38.92 38.66 38.61 38.24 37.32 36.53 35.76 34.89 34.49
34.29 35.04 36.58 37.18 37.36 42.08 44.48 39.44 35.96 34.64 35.15 36.93 38.48 37.84 38.92 42.99 53.86 54.61 54.33 46.98 37.58 39.47 39.19 32.38 33.59 31.98 33.95 35.80 37.00 36.81 36.36 36.48 36.45 35.87 34.88 33.59 32.91 32.13
32.66 33.90 34.11 34.05 34.55 37.34 38.68 33.71 31.65 31.55 33.20 33.72 33.12 32.94 32.89 33.20 35.40 47.01 41.99 42.33 34.39 34.39 34.01 32.66 31.34 30.73 31.75 31.93 33.24 34.32 34.11 33.80 33.22 32.40 31.85 31.47 31.33 31.10
30.41 30.99 31.89 32.34 33.02 33.62 34.80 34.08 30.57 29.37 31.09 30.68 29.85 29.23 29.41 28.96 29.70 30.81 35.63 47.17 33.67 32.40 32.58 31.36 30.22 29.46 26.02 29.00 30.46 29.98 30.30 31.43 31.79 31.84 31.68 30.18 30.46 32.28
27.62 28.03 29.58 30.95 31.59 32.01 31.55 29.76 28.85 29.29 28.46 28.02 28.07 27.37 27.69 27.18 26.76 27.59 28.54 32.28 33.49 31.21 31.78 33.05 31.25 29.98 27.78 24.59 25.67 26.11 26.76 27.31 27.61 28.76 30.04 30.25 29.46 30.47
29.70 29.72 29.72 29.98 29.84 29.47 28.97 29.27 28.90 28.32 27.11 25.81 24.68 24.28 24.47 25.19 26.25 27.04 27.37 27.49 28.64 29.46 31.63 32.22 31.50 29.55 26.28 23.13 21.05 24.55 25.37 27.17 28.33 27.40 28.23 27.28 27.64 26.81
29.66 28.98 28.77 28.78 28.98 28.57 28.78 28.54 28.35 26.83 25.80 24.28 22.69 23.10 24.21 25.33 26.54 27.34 27.67 28.58 27.71 28.32 30.12 32.03 31.44 29.55 29.69 24.28 21.67 23.40 24.48 26.66 29.27 28.75 28.79 29.55 29.54 30.28
30.43 31.41 29.88 29.17 29.00 28.86 29.67 30.06 29.79 29.79 27.67 25.91 26.43 26.91 28.33 27.34 26.08 27.42 26.23 26.27 25.15 24.56 28.11 29.47 30.46 30.72 27.53 26.78 26.06 25.38 26.13 24.07 26.78 26.98 27.72 28.51 29.26 30.39
30.93 31.50 30.30 29.45 28.18 29.10 28.45 28.30 28.94 29.21 28.13 28.57 28.11 27.80 27.14 27.18 26.84 28.61 28.02 27.51 25.61 24.85 24.27 26.46 28.22 29.20 29.54 27.83 24.88 25.32 25.13 25.33 26.96 26.36 26.49 26.29 27.83 30.07
29.00 27.99 26.74 26.84 26.42 26.43 26.41 26.87 27.41 27.03 27.84 27.88 27.34 26.34 25.37 25.55 25.16 25.80 26.45 26.24 25.15 25.06 24.80 25.76 25.98 24.93 24.92 24.74 26.83 25.56 26.29 25.82 26.61 26.18 26.28 25.53 26.40 29.12
27.19 26.47 25.74 25.78 25.90 25.68 25.81 25.72 24.73 24.85 26.08 26.42 26.41 26.16 25.71 24.52 24.10 23.53 23.62 23.39 22.70 23.29 24.10 25.48 26.28 26.05 23.06 19.11 22.76 24.27 25.45 25.33 26.05 26.65 27.33 27.30 26.71 27.91
24.50 24.01 23.83 23.87 23.85 24.00 24.14 24.35 24.65 25.22 24.75 25.16 25.47 25.49 25.64 25.10 24.21 23.51 23.40 22.58 21.56 21.66 21.62 23.02 23.35 25.02 25.36 22.81 21.81 20.52 22.89 25.30 25.91 25.37 25.59 26.89 27.93 24.35
22.08 21.76 22.34 22.36 22.39 22.69 23.03 22.97 22.91 22.70 23.56 24.21 24.38 24.17 24.71 24.37 22.79 22.11 21.09 20.69 22.09 21.98 19.81 19.59 20.78 23.10 25.47 26.14 22.23 21.15 21.83 20.50 21.43 22.44 23.43 24.56 25.86 25.97
19.82 19.87 19.78 19.87 19.67 20.50 21.09 21.36 22.31 22.24 22.53 22.85 23.10 23.70 24.04 23.72 22.10 21.68 21.87 21.02 20.82 20.82 19.39 20.94 22.71 23.34 23.53 23.50 21.54 20.38 20.75 22.10 20.60 19.88 19.23 18.59 21.41 22.87
17.22 17.58 17.40 17.13 17.91 18.20 18.59 19.05 18.66 19.69 19.51 20.39 21.54 21.83 22.14 22.12 22.16 22.03 21.15 20.62 20.52 19.93 20.61 20.34 21.67 22.79 21.23 20.75 20.82 19.98 17.30 18.99 21.64 21.32 21.87 18.68 17.47 17.91

GFSNE_sfc_wetblb_123.txt.gz
Wetbulb
67.10 67.31 66.48 66.50 66.74 65.81 64.84 63.46 61.67 56.91 58.73 60.81 59.82 63.90 63.62 61.81 60.25 60.74 61.88 54.87 49.87 49.47 50.33 51.68 53.71 55.01 55.56 56.29 57.12 57.86 58.55 58.91 59.31 59.43 59.96 60.62 61.05 61.40
65.46 65.95 65.98 66.31 65.95 66.06 65.39 64.26 62.18 60.13 58.52 60.92 61.03 62.50 62.89 60.71 59.93 61.22 61.40 55.79 49.66 48.47 48.13 48.91 50.45 52.19 52.96 53.53 54.44 55.07 56.09 57.00 57.71 58.06 58.79 59.39 60.31 60.91
63.28 63.77 63.54 64.85 64.30 63.65 63.43 64.07 61.89 61.22 58.95 61.25 61.64 62.50 62.02 61.61 61.13 60.00 60.05 59.77 58.06 48.60 47.90 47.58 47.81 48.71 49.86 50.43 50.92 51.85 52.84 53.75 54.64 55.74 56.83 58.28 59.39 60.21
62.51 61.95 62.38 62.63 62.41 62.85 62.37 61.76 61.65 61.46 61.09 56.93 59.84 59.53 59.93 60.64 59.70 59.05 59.22 60.05 59.64 50.77 47.78 47.69 47.58 47.04 47.31 47.59 47.93 48.52 49.10 49.95 50.72 51.81 52.92 54.63 56.34 57.48
62.22 62.01 61.96 62.02 61.50 61.87 61.46 61.11 61.45 60.00 61.07 58.19 57.89 59.77 59.46 59.28 57.94 58.27 58.09 58.59 57.75 48.58 46.26 45.49 46.23 46.59 46.52 46.22 46.74 47.10 47.28 47.31 47.35 47.64 48.18 48.83 50.42 52.17
60.86 61.17 61.64 61.29 60.69 60.66 60.37 60.49 60.35 60.41 60.95 58.62 58.05 55.84 55.64 56.95 57.12 56.00 54.99 56.70 50.02 47.87 44.77 45.20 45.14 45.18 45.32 45.40 44.84 45.27 45.63 45.99 45.89 45.43 44.69 43.93 44.33 46.25
51.93 59.59 60.41 58.77 53.10 55.06 59.59 59.47 59.24 58.57 58.13 56.90 55.56 54.82 54.38 53.91 53.88 55.56 54.58 51.18 47.51 46.23 43.90 44.48 45.00 44.62 43.52 44.08 44.78 44.69 43.48 43.61 43.77 43.92 43.41 42.54 42.14 43.25
39.92 43.34 46.09 49.08 45.09 45.30 46.57 45.30 52.55 58.06 57.08 55.70 55.20 53.27 53.79 54.55 54.83 54.56 53.52 47.76 45.30 46.37 44.30 41.16 44.17 42.03 42.41 43.37 42.08 41.44 42.19 42.13 42.63 43.11 42.50 41.37 40.43 39.99
34.44 35.72 38.54 39.52 39.18 40.60 43.86 38.38 36.97 36.03 34.41 51.06 55.00 54.55 54.45 54.87 54.75 53.57 52.94 50.33 50.72 44.69 40.99 35.07 37.74 35.73 38.72 39.47 39.66 39.78 39.76 39.88 39.81 39.40 38.68 37.95 37.46 36.83
32.23 32.54 33.31 34.74 35.51 36.88 42.02 37.53 34.57 33.75 34.14 36.14 36.24 34.92 34.35 35.93 46.46 55.38 54.16 49.35 40.07 42.92 40.37 32.85 33.86 32.05 34.60 37.46 39.14 38.88 38.37 38.00 37.42 36.87 36.23 35.72 35.26 34.75
30.98 31.42 31.60 31.70 33.38 35.66 37.23 33.57 32.61 31.80 32.93 32.90 32.74 32.40 32.30 32.77 33.56 44.39 42.56 43.82 34.42 35.31 34.60 33.09 32.02 30.80 32.25 31.78 34.21 36.08 35.99 36.18 35.64 35.02 34.41 33.66 32.81 32.56
30.72 30.09 30.89 31.08 31.80 32.20 33.51 33.39 31.35 29.16 30.60 30.61 30.11 29.73 29.81 29.50 29.69 30.06 31.89 44.07 34.78 32.79 33.15 32.07 30.82 30.07 26.35 30.27 30.80 31.54 32.49 33.29 33.06 32.98 33.07 32.83 32.03 30.84
30.99 30.43 30.71 30.47 30.52 30.47 30.29 29.45 29.15 30.17 29.19 28.01 28.35 28.16 28.21 27.63 28.31 27.98 28.57 30.02 33.15 31.67 32.94 33.15 31.45 30.05 27.89 24.73 26.37 27.56 28.57 29.24 30.42 31.20 31.56 31.77 32.57 31.30
29.60 30.86 31.44 30.45 30.57 30.23 30.11 29.92 29.18 29.09 27.84 26.20 25.25 24.61 25.20 26.16 27.20 28.19 28.59 28.89 30.02 30.82 31.87 32.79 31.92 29.39 25.53 22.56 20.76 24.83 25.88 26.98 27.38 27.06 27.83 28.78 28.82 29.25
32.07 31.33 31.21 30.79 30.33 30.31 30.10 29.85 30.41 30.00 28.39 26.32 25.34 25.40 26.16 27.84 28.75 28.41 28.91 29.45 28.60 29.42 31.41 31.83 29.98 28.31 28.13 22.99 21.31 22.28 23.13 26.05 28.23 27.80 27.00 26.28 26.58 27.28
31.25 32.66 31.54 30.58 30.95 30.66 30.67 30.99 31.04 30.74 29.70 28.93 27.87 28.60 30.04 30.03 29.50 30.52 28.80 27.88 25.64 25.40 27.96 30.72 30.61 28.41 24.69 24.71 24.23 23.85 25.13 24.02 28.13 28.86 29.53 29.63 30.10 31.06
30.56 31.62 30.41 30.19 29.56 29.61 30.04 29.63 30.32 30.71 29.81 29.60 28.60 28.09 28.14 28.37 27.72 29.68 29.66 28.71 26.16 25.21 24.68 26.52 27.62 28.45 28.82 28.06 24.95 25.88 25.37 25.60 27.04 27.14 28.06 27.55 29.29 30.33
29.52 28.13 27.44 27.71 27.57 27.41 27.33 27.31 27.35 26.97 27.95 28.64 28.29 27.63 26.76 26.35 26.03 26.81 27.38 27.28 26.10 25.94 25.44 26.61 27.06 26.01 25.57 25.51 27.70 25.98 26.22 25.92 26.44 26.82 27.03 25.78 25.87 29.10
26.57 26.14 25.73 25.71 26.31 26.29 26.51 26.69 25.82 26.26 27.46 27.09 27.05 27.04 26.95 26.49 26.19 25.06 25.41 25.24 24.39 25.23 25.82 27.35 28.35 26.81 22.86 19.03 23.95 25.78 25.55 25.39 24.95 24.76 26.12 26.40 27.60 28.07
24.93 23.79 23.26 23.96 24.27 24.24 24.06 23.52 23.95 24.91 25.73 25.92 25.86 25.94 26.14 25.83 25.18 24.66 24.58 23.89 23.09 22.98 22.63 24.08 24.60 26.34 23.98 21.74 21.13 20.37 24.75 25.24 25.37 24.76 24.75 26.36 26.84 24.58
22.10 22.13 22.00 21.36 21.35 22.00 22.72 23.56 23.98 23.61 24.03 24.70 25.05 24.81 25.34 25.34 23.94 23.52 22.52 22.70 24.26 23.68 21.61 21.16 22.48 26.23 25.43 24.90 19.52 18.94 19.80 21.71 21.20 21.85 22.73 23.61 24.83 25.11
19.12 19.72 19.51 19.32 19.85 19.87 21.75 21.80 22.27 22.21 22.74 23.45 23.70 24.59 24.80 24.86 23.48 23.09 23.19 22.95 22.62 22.40 21.83 23.04 24.66 25.40 25.42 24.85 21.65 20.59 20.25 21.27 20.95 20.45 20.25 19.34 18.18 21.13
17.15 17.42 18.23 17.62 17.52 18.01 18.15 18.74 18.77 19.90 19.73 20.88 21.27 22.39 22.59 22.64 23.17 23.16 22.66 21.98 22.06 21.86 22.35 22.42 23.85 24.33 23.45 23.02 21.90 20.43 18.10 19.43 21.34 20.12 20.33 19.38 18.43 18.30

GFSNE_sfc_wetblb_126.txt.gz
Wetbulb
63.38 63.01 62.89 63.27 63.75 62.74 61.65 60.17 56.97 53.29 54.93 58.02 58.28 61.48 61.36 61.95 60.63 60.46 60.39 54.29 50.50 49.78 50.37 52.09 54.46 55.88 56.08 56.93 57.66 58.46 58.99 59.04 59.35 59.20 59.50 59.91 60.42 60.83
63.88 63.14 63.43 63.75 63.79 62.61 61.80 61.41 59.98 58.12 56.00 57.95 58.27 59.52 61.23 60.74 59.23 60.47 60.65 55.33 50.05 48.44 48.19 49.59 51.24 53.37 53.98 54.24 54.83 55.44 56.35 56.89 57.48 57.83 58.19 58.65 59.47 60.32
63.44 62.54 62.19 62.33 59.97 59.60 62.25 61.68 61.31 60.08 58.02 58.99 59.40 59.74 59.94 59.41 59.47 59.07 59.91 60.53 59.72 48.83 48.14 47.92 48.18 49.03 50.40 51.21 51.73 52.61 53.37 54.42 55.23 56.03 56.89 57.73 58.77 59.60
62.95 62.60 60.60 60.71 59.60 61.05 62.03 61.57 61.31 61.42 59.96 58.03 59.12 58.29 57.84 58.71 59.42 59.23 59.68 60.70 60.89 54.09 48.45 48.23 47.91 47.10 47.37 47.97 48.44 49.19 50.26 50.98 51.78 52.79 53.76 55.15 56.85 57.93
59.24 61.20 61.01 60.23 59.56 60.43 60.90 61.09 60.77 60.48 60.38 59.14 58.14 58.22 58.05 58.23 57.32 59.36 59.25 59.30 59.75 55.16 47.91 47.28 47.69 47.35 46.67 46.45 47.04 47.38 47.72 48.01 48.26 48.26 48.80 49.57 51.13 53.08
47.88 48.51 50.15 52.18 57.24 61.02 61.20 61.29 61.05 59.96 59.69 58.90 58.43 58.00 56.94 57.48 56.94 56.58 56.08 57.46 51.19 49.63 46.25 47.91 48.40 47.13 46.27 45.82 45.86 45.99 46.38 46.72 46.70 46.40 46.20 45.35 45.56 47.66
40.55 40.53 42.73 42.06 40.04 40.08 45.39 55.36 59.92 59.22 58.77 57.84 57.10 55.41 54.81 53.83 54.13 55.62 55.46 55.28 48.24 46.48 44.78 44.60 45.38 46.57 46.41 44.85 46.72 45.49 44.98 45.33 45.64 45.98 45.69 44.47 43.67 44.90
34.64 35.92 39.06 38.32 37.74 37.28 39.06 38.99 38.48 50.03 56.92 56.20 55.58 54.26 54.58 54.95 55.18 54.58 54.51 48.09 46.25 46.05 44.22 41.79 43.70 41.76 42.84 43.55 42.97 42.75 43.22 43.57 44.09 44.60 44.56 43.71 43.19 42.86
31.93 32.14 33.91 34.57 34.42 36.17 38.56 37.18 34.94 34.19 32.16 40.54 49.66 52.66 53.55 54.31 54.97 53.72 53.90 50.45 51.18 45.52 41.83 36.18 36.69 35.11 38.18 40.13 40.97 41.31 41.69 42.10 42.64 43.15 43.70 43.01 41.39 39.85
30.82 31.19 31.15 31.34 32.26 34.61 37.99 35.15 33.17 32.45 32.41 32.88 31.94 31.68 32.07 32.84 35.78 47.38 53.69 51.10 41.38 42.84 41.07 34.20 33.32 31.86 34.61 37.66 39.99 39.96 39.57 39.19 38.99 38.75 38.34 37.42 36.70 36.11
31.56 31.20 30.75 30.50 31.78 32.91 33.55 33.73 32.87 32.04 33.25 33.47 32.74 32.39 31.67 32.31 32.43 38.22 42.04 43.20 34.79 36.24 34.44 33.87 31.66 30.73 31.45 31.84 35.14 38.21 37.79 37.43 37.23 36.94 36.68 36.12 35.58 34.70
30.45 30.14 30.85 30.35 31.48 31.28 29.20 28.77 27.72 27.90 28.62 29.75 30.78 30.96 31.00 30.85 30.79 30.27 31.71 35.33 34.43 33.16 33.72 32.15 30.87 30.11 26.69 29.64 30.90 32.22 33.10 34.66 35.16 35.23 34.74 34.39 32.83 30.99
29.17 29.32 30.31 30.64 30.80 30.94 30.74 28.76 27.96 28.37 27.58 27.21 27.13 27.49 28.21 28.79 29.12 29.77 29.98 30.72 32.22 31.89 32.22 32.99 31.15 29.96 28.37 25.05 25.91 27.72 31.26 31.20 31.52 32.28 33.28 32.57 32.15 30.76
29.27 30.26 30.76 31.65 30.91 30.82 29.86 30.79 30.82 29.86 28.81 27.41 26.89 26.36 26.94 27.47 28.32 28.91 28.97 29.47 30.53 31.24 32.45 33.35 31.65 28.73 25.00 22.03 21.27 24.93 26.12 27.43 28.37 28.09 28.84 31.08 31.59 31.62
29.72 31.49 31.75 31.86 31.49 29.37 30.50 30.43 28.87 28.73 28.48 26.69 26.18 26.85 28.22 29.51 30.60 30.22 29.61 29.41 28.63 28.23 30.81 31.59 30.58 28.43 27.00 22.56 21.31 22.48 23.47 25.43 27.14 26.27 26.68 27.04 27.06 27.64
28.54 30.64 30.11 29.35 29.85 29.77 28.25 28.12 28.39 29.11 28.12 27.00 26.74 28.09 28.98 28.03 27.56 29.77 27.91 28.16 25.73 25.40 27.85 29.41 28.93 27.64 24.49 24.33 23.88 23.24 24.42 23.09 26.63 26.36 26.12 27.00 27.36 28.66
29.09 28.30 26.89 26.81 26.08 26.32 27.02 25.35 25.73 26.12 26.55 27.78 26.89 26.18 25.80 26.54 26.20 27.98 28.25 26.72 24.13 23.78 24.47 25.94 26.92 27.73 27.44 26.35 23.45 24.72 24.77 25.30 27.03 27.22 27.28 26.16 27.73 29.14
26.39 24.40 23.62 23.66 23.43 23.00 22.90 23.99 23.42 22.98 24.27 25.28 25.35 25.96 25.59 25.33 25.15 25.80 26.49 25.60 24.67 25.06 25.40 26.74 26.13 25.24 24.69 25.02 28.33 24.83 25.28 24.81 26.03 27.23 27.75 25.08 25.88 28.60
21.09 20.21 19.67 20.51 21.11 21.14 21.08 20.63 20.49 21.93 24.07 24.24 23.72 24.13 25.13 25.71 25.20 24.90 24.66 24.22 23.04 23.29 24.06 25.71 27.33 25.13 20.47 17.73 23.59 27.17 24.32 25.19 25.26 24.73 26.32 26.43 25.76 26.72
19.14 18.83 17.33 17.91 18.76 19.56 19.41 20.56 21.73 20.92 21.51 23.62 22.94 21.16 23.19 21.59 20.93 21.34 21.74 22.00 22.11 22.72 22.78 23.24 22.69 25.07 21.42 19.86 18.44 19.19 26.88 24.60 25.14 23.46 23.81 25.47 24.93 26.34
16.44 17.38 16.47 16.12 17.04 17.04 19.15 17.81 20.47 19.23 20.53 21.49 21.81 22.21 21.66 18.85 16.67 18.54 17.72 16.13 18.14 20.71 19.21 19.48 21.28 24.48 23.65 22.62 17.57 17.69 18.74 23.24 22.84 21.83 22.32 22.01 22.47 22.28
14.36 14.63 16.26 14.61 13.78 14.47 15.07 16.00 15.83 16.36 16.08 18.04 18.81 15.82 20.36 20.60 16.17 15.30 15.36 14.16 17.14 16.57 17.97 19.58 22.20 22.98 23.65 20.79 16.92 13.58 17.72 18.25 21.22 21.85 21.56 19.56 16.82 17.22
12.41 13.85 13.92 13.22 11.81 12.05 12.47 12.44 13.65 13.06 12.11 12.66 14.62 17.31 18.04 13.72 19.32 18.75 16.15 16.01 16.53 16.92 17.87 17.93 20.02 20.63 21.60 21.52 19.02 16.22 12.95 12.70 17.78 17.84 17.99 20.30 19.68 19.22